[[[{"header":{"parameterUnit":"kt","parameterCategory":2,"dx":1,"dy":1,"la1":29.587661999999998,"la2":31.0,"lo1":-88.76705300000003,"lo2":-86.6583820000003,"nx":115,"ny":88,"refTime":"2022-10-11T00:00:00:Z","depth":0,"parameterNumber":1,"parameterNumberName":"U-component_of_WINDS"},"data":[12.4978,12.4978,12.4978,12.4978,12.4978,12.4978,12.4978,12.4978,12.4978,12.4978,12.4978,12.4978,12.4978,12.4978,12.4978,12.4978,12.4978,12.5015,12.7022,12.903,12.9363,13.1204,13.2868,13.3592,13.2695,13.208,13.1481,13.0143,12.8453,12.9934,13.0667,12.992,13.11,13.0914,12.998,13.0093,13.038,13.0453,13.038,13.038,13.0198,12.9322,12.9186,12.893,12.8967,12.9108,12.9322,12.9405,12.9582,13.0119,13.1149,13.1928,13.2772,13.3732,13.4104,13.4213,13.543,13.5402,13.5425,13.5577,13.5835,13.5835,13.5835,13.5835,13.5835,13.5835,13.5835,13.5835,13.5835,13.5835,13.5835,13.5835,13.5835,13.5835,13.5835,13.5835,13.5835,13.5835,13.5835,13.5835,13.5835,13.5835,13.5835,13.5835,13.5835,13.5835,13.5835,13.5835,13.5835,13.5835,13.5835,13.5872,13.5872,13.5835,13.5877,13.6706,13.7254,13.7861,13.8368,13.8831,13.9098,13.9124,13.9156,13.9307,13.933,13.9315,13.9469,13.9603,13.956,13.9546,13.9553,13.9599,13.9603,13.9603,13.9603,12.4978,12.4978,12.4978,12.4978,12.4978,12.4978,12.4978,12.4978,12.4978,12.4978,12.4959,12.4968,12.4978,12.4978,12.4978,12.4978,12.4978,12.4978,12.5124,12.6767,12.8665,13.0303,13.1789,13.3113,13.3503,13.3268,13.1986,12.9482,12.6686,12.8269,12.9459,12.9571,12.9644,12.9706,12.984,12.9765,12.9363,12.9181,12.9144,12.9509,12.856,12.7246,12.6402,12.5859,12.5713,12.636,12.7258,12.7915,12.8628,12.9224,12.9905,13.0376,13.1143,13.2648,13.2757,13.3251,13.4467,13.4923,13.4537,13.5131,13.5651,13.5835,13.5835,13.5835,13.5835,13.5835,13.5835,13.5835,13.5835,13.5835,13.5835,13.5835,13.5835,13.5835,13.5835,13.5835,13.5835,13.5835,13.5835,13.5835,13.5835,13.5835,13.5835,13.5835,13.5835,13.5835,13.5835,13.5835,13.5835,13.5835,13.5835,13.5835,13.5835,13.5872,13.5909,13.6404,13.6837,13.7466,13.8186,13.875,13.9095,13.9083,13.9087,13.9182,13.9213,13.9245,13.9345,13.944,13.9521,13.9481,13.9527,13.9537,13.9568,13.9532,13.9562,12.4978,12.4978,12.4978,12.4978,12.4978,12.4978,12.4978,12.4978,12.4978,12.491,12.4811,12.4919,12.4978,12.4978,12.4978,12.4978,12.4978,12.4973,12.5319,12.6158,12.8014,12.9335,13.083,13.2471,13.3476,13.3394,13.1561,12.9049,12.5962,12.6724,12.7119,12.6502,12.7533,12.7626,12.6812,12.704,12.6991,12.7205,12.6991,12.6954,12.6662,12.6005,12.5161,12.4978,12.5088,12.5343,12.5949,12.6136,12.6579,12.7001,12.7528,12.7937,12.9935,13.1632,13.2256,13.2736,13.3643,13.5135,13.4467,13.4762,13.5798,13.5835,13.5835,13.5835,13.5835,13.5835,13.5835,13.5835,13.5835,13.5835,13.5835,13.5835,13.5835,13.5835,13.5835,13.5835,13.5835,13.5835,13.5835,13.5835,13.5835,13.5835,13.5835,13.5835,13.5835,13.5835,13.5835,13.5835,13.5835,13.5835,13.5835,13.5835,13.5835,13.5872,13.5913,13.6194,13.6624,13.7244,13.7991,13.8585,13.9146,13.9049,13.8924,13.8792,13.8776,13.8952,13.9124,13.9218,13.9277,13.9277,13.9372,13.9477,13.9473,13.9452,13.9306,12.4978,12.4978,12.4978,12.4975,12.4905,12.4954,12.4919,12.4784,12.4816,12.4695,12.4686,12.4816,12.4914,12.4963,12.4978,12.4978,12.4949,12.4978,12.5687,12.621,12.7645,12.9238,13.0767,13.2192,13.3209,13.2719,13.0882,12.8147,12.6325,12.5579,12.5311,12.4492,12.5253,12.5989,12.5186,12.5364,12.5484,12.5635,12.5562,12.5562,12.5494,12.5161,12.4978,12.4978,12.4978,12.5083,12.5119,12.5119,12.5051,12.4978,12.4978,12.6327,12.8747,13.0578,13.1612,13.2245,13.3161,13.3367,13.3284,13.3952,13.4799,13.5094,13.5577,13.5725,13.5835,13.5835,13.5835,13.5835,13.5835,13.5835,13.5835,13.5835,13.5835,13.5835,13.5835,13.5835,13.5835,13.5835,13.5835,13.5835,13.5835,13.5835,13.5835,13.5835,13.5835,13.5835,13.5835,13.5835,13.5835,13.5835,13.5835,13.5835,13.5835,13.5872,13.595,13.6147,13.6541,13.7156,13.7751,13.8462,13.9191,13.9105,13.9008,13.8667,13.8436,13.8681,13.8872,13.8984,13.8973,13.8952,13.9006,13.9122,13.9178,13.9105,13.8946,12.4978,12.4978,12.4978,12.4875,12.468,12.4917,12.4731,12.4319,12.4335,12.4381,12.4569,12.462,12.4801,12.4959,12.4978,12.4978,12.4939,12.4791,12.5008,12.4843,12.6847,12.8523,13.0136,13.2075,13.2868,13.238,13.0799,12.8391,12.741,12.5785,12.4478,12.4149,12.4573,12.4718,12.4611,12.4872,12.5005,12.4978,12.4978,12.4978,12.4978,12.4978,12.4978,12.4978,12.4978,12.4978,12.4978,12.4978,12.4978,12.4978,12.4998,12.5056,12.6488,12.7833,12.8712,12.9653,13.1178,13.1402,13.1806,13.2699,13.3358,13.4173,13.4914,13.5209,13.5172,13.5098,13.5223,13.5264,13.4762,13.4684,13.5061,13.5172,13.5149,13.5135,13.4817,13.4537,13.4514,13.4518,13.4716,13.5273,13.5388,13.5835,13.5835,13.5835,13.5835,13.5835,13.5835,13.5835,13.5835,13.5835,13.5835,13.5835,13.5835,13.5872,13.5913,13.607,13.6462,13.6941,13.7533,13.8181,13.8828,13.8988,13.9053,13.8765,13.8433,13.8595,13.8572,13.8671,13.8691,13.8638,13.864,13.8776,13.8748,13.8646,13.8489,12.4978,12.4978,12.4978,12.4934,12.4841,12.4791,12.4391,12.3963,12.4127,12.4247,12.4402,12.4498,12.4766,12.4954,12.4978,12.501,12.499,12.4695,12.4569,12.4737,12.5518,12.7253,12.8661,13.0279,13.2023,13.1961,13.0628,12.8718,12.7617,12.5553,12.3783,12.3891,12.4288,12.4386,12.4519,12.4786,12.4949,12.4978,12.4978,12.4978,12.4978,12.4978,12.4978,12.4978,12.4978,12.4978,12.4978,12.4978,12.4978,12.4978,12.4978,12.5017,12.5365,12.665,12.7704,12.8285,12.962,13.0117,13.0029,13.1106,13.2253,13.3215,13.3947,13.3873,13.3694,13.3998,13.4241,13.4255,13.3749,13.35,13.3988,13.4394,13.4325,13.4261,13.3694,13.3095,13.3041,13.3064,13.3612,13.4329,13.4946,13.5508,13.5835,13.5835,13.5835,13.5835,13.5835,13.5835,13.5835,13.5835,13.5835,13.5835,13.5835,13.5835,13.5872,13.595,13.6342,13.6805,13.7303,13.7832,13.8453,13.8735,13.8858,13.8681,13.8466,13.822,13.8063,13.8235,13.8321,13.8243,13.8171,13.7914,13.7645,13.7521,13.7362,12.4929,12.4978,12.4978,12.4939,12.486,12.4563,12.42,12.3692,12.394,12.4117,12.4216,12.4401,12.467,12.5,12.4978,12.4978,12.486,12.467,12.4549,12.4724,12.5153,12.6617,12.8125,12.9662,13.1112,13.1546,13.0866,12.9082,12.7949,12.6018,12.4494,12.383,12.4168,12.4304,12.4509,12.475,12.491,12.4978,12.4978,12.4978,12.4978,12.4978,12.4978,12.4978,12.4978,12.4978,12.4978,12.4978,12.4978,12.4978,12.4978,12.4978,12.4988,12.6018,12.688,12.7407,12.844,12.9546,12.8919,12.9624,13.0586,13.1396,13.1769,13.1258,13.1622,13.204,13.2633,13.2513,13.2186,13.2307,13.2731,13.268,13.2496,13.2482,13.2277,13.1919,13.1894,13.2074,13.2663,13.3385,13.4181,13.4808,13.5766,13.5835,13.5835,13.5835,13.5835,13.5835,13.5835,13.5835,13.5835,13.5835,13.5835,13.5835,13.5835,13.5835,13.6227,13.659,13.705,13.7533,13.8105,13.847,13.8621,13.8617,13.8419,13.8119,13.7705,13.7708,13.7871,13.7772,13.7657,13.7017,13.6339,13.5725,13.5375,12.4745,12.4959,12.4978,12.485,12.4595,12.435,12.3985,12.3637,12.3648,12.3903,12.4236,12.4226,12.4533,12.4919,12.4963,12.4949,12.487,12.4453,12.4314,12.4438,12.4871,12.6485,12.8135,12.967,13.0995,13.1768,13.1395,12.9599,12.8332,12.6396,12.4952,12.4229,12.4068,12.4273,12.4529,12.4791,12.491,12.4968,12.4978,12.4978,12.4978,12.4978,12.4978,12.4978,12.4978,12.4978,12.4978,12.4978,12.4978,12.4978,12.4978,12.4978,12.5027,12.5174,12.541,12.573,12.6166,12.735,12.7886,12.8111,12.8856,12.8997,12.9039,12.9743,13.0259,13.0664,13.0951,13.0852,13.0388,13.0814,13.1106,13.0801,13.0533,13.0705,13.0664,13.0447,13.0415,13.0715,13.13,13.2133,13.2896,13.4379,13.5365,13.5835,13.5835,13.5835,13.5835,13.5835,13.5835,13.5835,13.5835,13.5835,13.5835,13.5835,13.5835,13.5835,13.6148,13.6388,13.682,13.7148,13.7695,13.8165,13.8286,13.8341,13.8284,13.8053,13.7596,13.7438,13.7327,13.7341,13.7242,13.6638,13.5923,13.4982,13.4989,12.474,12.5005,12.4978,12.4846,12.4579,12.4309,12.3995,12.3665,12.3632,12.3835,12.4143,12.4231,12.4487,12.4789,12.4799,12.472,12.467,12.4309,12.4089,12.4145,12.4433,12.5562,12.7003,12.8423,13.015,13.1089,13.0866,13.0072,12.8603,12.6829,12.5332,12.4318,12.4005,12.4267,12.4499,12.469,12.4809,12.4959,12.4978,12.4978,12.4978,12.4978,12.4978,12.4978,12.4978,12.4978,12.4978,12.4978,12.4978,12.4978,12.4978,12.4978,12.4988,12.5075,12.5238,12.5422,12.5642,12.5913,12.6564,12.6851,12.7036,12.7143,12.7999,12.8224,12.7966,12.8961,12.9228,12.9033,12.8211,12.9097,13.0148,12.8118,12.8189,12.8905,12.864,12.7856,12.7778,12.7925,12.8441,12.984,13.0944,13.338,13.514,13.5319,13.5457,13.5646,13.5835,13.5835,13.5835,13.5835,13.5835,13.5835,13.5835,13.5835,13.5835,13.5835,13.5996,13.6162,13.6452,13.677,13.7269,13.7721,13.7908,13.801,13.7939,13.7812,13.7415,13.6794,13.62,13.6065,13.6199,13.5912,13.5501,13.566,13.6203,12.4665,12.4978,12.4978,12.4801,12.4483,12.4283,12.3964,12.3659,12.3643,12.3829,12.4138,12.421,12.4509,12.4791,12.4776,12.4605,12.4529,12.4241,12.4056,12.3993,12.3839,12.4654,12.5812,12.7359,12.8809,13.0253,13.0758,13.0186,12.9217,12.7762,12.6059,12.4584,12.4365,12.4293,12.4448,12.4685,12.4765,12.4949,12.4978,12.4978,12.4978,12.4978,12.4978,12.4978,12.4978,12.4978,12.4978,12.4978,12.4978,12.4978,12.4978,12.4978,12.4983,12.4983,12.5143,12.5328,12.5491,12.5464,12.5601,12.5752,12.5873,12.6354,12.7004,12.7082,12.6452,12.7266,12.7518,12.747,12.6961,12.7505,12.8859,12.705,12.669,12.7331,12.7294,12.6436,12.6198,12.6198,12.6607,12.8155,12.9184,13.145,13.3321,13.3662,13.4251,13.4546,13.5457,13.5646,13.5835,13.5835,13.5835,13.5835,13.5835,13.5835,13.5835,13.5835,13.5955,13.6038,13.6231,13.6487,13.6795,13.719,13.7458,13.785,13.7708,13.7565,13.7425,13.7025,13.5752,13.4624,13.4385,13.4138,13.3984,13.4634,13.5759,12.4524,12.4959,12.4978,12.4685,12.4288,12.421,12.4001,12.3728,12.3668,12.3829,12.4174,12.421,12.4509,12.4804,12.4645,12.4534,12.4442,12.4147,12.3971,12.3918,12.3775,12.4462,12.5409,12.6384,12.7834,13.0102,13.0794,13.0758,13.0541,12.8689,12.7214,12.586,12.4489,12.4053,12.4252,12.4705,12.4959,12.4978,12.4978,12.4978,12.4978,12.4978,12.4978,12.4978,12.4978,12.4978,12.4978,12.4978,12.4978,12.4978,12.4978,12.4978,12.4978,12.4978,12.5075,12.5216,12.5412,12.5514,12.5592,12.5682,12.5833,12.612,12.6332,12.6488,12.6272,12.6272,12.6506,12.674,12.6317,12.6382,12.6309,12.6198,12.6235,12.6436,12.651,12.6198,12.6198,12.6198,12.664,12.7676,12.8395,12.9172,13.0861,13.2203,13.2944,13.3699,13.4864,13.5568,13.5798,13.5835,13.5835,13.5835,13.5835,13.5835,13.5835,13.5835,13.5872,13.5913,13.6033,13.6331,13.661,13.6843,13.7185,13.7633,13.7567,13.7345,13.7296,13.7315,13.6429,13.5417,13.4221,13.3588,13.2783,13.3039,13.4157,12.4519,12.4995,12.4978,12.4806,12.4452,12.4288,12.41,12.3876,12.3734,12.3865,12.42,12.4226,12.4509,12.4761,12.4559,12.4366,12.4257,12.3947,12.3795,12.3714,12.3712,12.3921,12.4585,12.5554,12.6931,12.8886,13.0036,13.0788,13.0716,12.9086,12.7606,12.6082,12.457,12.4139,12.4283,12.4705,12.4973,12.4978,12.4978,12.4978,12.4978,12.4978,12.4978,12.4978,12.4978,12.4978,12.4978,12.4978,12.4978,12.4978,12.4978,12.4978,12.4978,12.5002,12.5039,12.5116,12.5228,12.53,12.5491,12.561,12.5705,12.5918,12.6051,12.6153,12.6198,12.6198,12.6198,12.6198,12.6198,12.6198,12.6235,12.6198,12.6198,12.6198,12.6198,12.6198,12.6198,12.6198,12.6714,12.7086,12.781,12.8558,12.9921,13.0646,13.1,13.115,13.2574,13.38,13.4716,13.5559,13.5679,13.5835,13.5835,13.5835,13.5835,13.5835,13.5872,13.5872,13.5941,13.6202,13.6357,13.6463,13.6758,13.717,13.7241,13.711,13.7053,13.7041,13.661,13.6103,13.5951,13.5564,13.4807,13.4399,13.468,12.4427,12.4819,12.4949,12.4796,12.4442,12.4262,12.4079,12.388,12.3687,12.3784,12.3989,12.4153,12.4478,12.463,12.4412,12.421,12.4148,12.3786,12.3676,12.3615,12.3615,12.3615,12.3832,12.4771,12.5962,12.7515,12.9103,13.0042,13.0541,12.917,12.7762,12.6796,12.5584,12.4832,12.4319,12.4605,12.4865,12.4934,12.4978,12.4978,12.4978,12.4978,12.4978,12.4978,12.4978,12.4978,12.4978,12.4978,12.4978,12.4978,12.4978,12.4978,12.4978,12.4978,12.5032,12.5063,12.5111,12.519,12.5323,12.5366,12.5547,12.5736,12.5975,12.6198,12.6198,12.6198,12.6198,12.6198,12.6198,12.6198,12.6198,12.6198,12.6198,12.6198,12.6198,12.6198,12.6198,12.6198,12.6456,12.6603,12.7207,12.7799,12.8428,12.9121,12.8874,12.8803,13.0483,13.2133,13.3883,13.5089,13.5596,13.5835,13.5835,13.5835,13.5835,13.5835,13.5835,13.5835,13.5877,13.6049,13.6207,13.6302,13.6471,13.6661,13.6851,13.6931,13.6897,13.6839,13.6712,13.6529,13.6649,13.6863,13.6863,13.6558,13.6314,12.4376,12.4595,12.486,12.4726,12.4298,12.4231,12.398,12.3768,12.3654,12.3626,12.3741,12.4006,12.4329,12.4499,12.435,12.421,12.4195,12.3838,12.3712,12.3663,12.3615,12.3615,12.3688,12.3971,12.4651,12.6245,12.7515,12.9211,13.0042,12.9246,12.8552,12.8202,12.6503,12.5441,12.4791,12.4559,12.474,12.4944,12.4978,12.4978,12.4978,12.4978,12.4978,12.4978,12.4978,12.4978,12.4978,12.4978,12.4978,12.4978,12.4978,12.4978,12.4978,12.4978,12.4978,12.5041,12.509,12.5104,12.5104,12.52,12.5408,12.566,12.5883,12.5973,12.6051,12.6127,12.6198,12.6198,12.6198,12.6198,12.6198,12.6198,12.6198,12.6198,12.6198,12.6198,12.6198,12.6198,12.6198,12.6198,12.6354,12.667,12.7234,12.7769,12.7726,12.7814,12.9286,13.0391,13.2317,13.3989,13.4753,13.5319,13.543,13.5761,13.5798,13.5835,13.5835,13.5835,13.5835,13.594,13.6073,13.624,13.6379,13.6591,13.6715,13.682,13.6843,13.6767,13.6743,13.6815,13.6863,13.6863,13.6863,13.6863,13.6863,12.4242,12.4319,12.4553,12.4766,12.4745,12.4345,12.4153,12.4022,12.3743,12.3615,12.3703,12.3894,12.4257,12.4478,12.4324,12.4257,12.4236,12.4015,12.3842,12.3701,12.3615,12.3615,12.3615,12.3718,12.4435,12.5993,12.6612,12.8087,12.9366,12.9276,12.7847,12.687,12.6657,12.5844,12.4899,12.4595,12.472,12.4959,12.4978,12.4978,12.4978,12.4978,12.4978,12.4978,12.4978,12.4978,12.4978,12.4978,12.4978,12.4978,12.4978,12.4978,12.4978,12.4978,12.4978,12.4993,12.5022,12.5032,12.5027,12.5041,12.5166,12.5296,12.5445,12.5642,12.583,12.606,12.6198,12.6198,12.6198,12.6198,12.6198,12.6198,12.6198,12.6198,12.6198,12.6198,12.6198,12.6198,12.6198,12.6198,12.6198,12.6198,12.6332,12.6679,12.6844,12.6969,12.7687,12.876,13.0428,13.2198,13.3058,13.3841,13.4431,13.5462,13.5609,13.5794,13.5835,13.5835,13.5835,13.5927,13.6011,13.6175,13.63,13.6414,13.6573,13.6686,13.6739,13.6723,13.6682,13.676,13.6791,13.6823,13.6827,13.6863,13.6863,12.4179,12.421,12.4467,12.4675,12.4791,12.4529,12.4273,12.4111,12.3892,12.375,12.3659,12.3821,12.402,12.4283,12.4299,12.4288,12.4319,12.4116,12.3939,12.3837,12.3706,12.3615,12.3615,12.3718,12.3899,12.4946,12.5807,12.7251,12.7718,12.7722,12.7252,12.6471,12.6532,12.6011,12.4705,12.4726,12.485,12.4929,12.4978,12.4978,12.4978,12.4978,12.4978,12.4978,12.4978,12.4978,12.4978,12.4978,12.4978,12.4978,12.4978,12.4978,12.4978,12.4978,12.4978,12.4978,12.4978,12.4978,12.4978,12.4978,12.5094,12.5168,12.5212,12.5357,12.5601,12.5857,12.6021,12.6144,12.6157,12.6198,12.6198,12.6198,12.6198,12.6198,12.6198,12.6198,12.6198,12.6198,12.6198,12.6198,12.6198,12.6198,12.6267,12.6439,12.6525,12.6588,12.7034,12.7923,12.9162,13.0388,13.1121,13.217,13.3579,13.4905,13.5126,13.5605,13.5646,13.5554,13.5554,13.5886,13.5957,13.6047,13.6135,13.6297,13.6429,13.6539,13.662,13.6603,13.6528,13.6624,13.6743,13.6682,13.6665,13.6698,13.6783,12.4064,12.4231,12.4478,12.4595,12.4645,12.4615,12.436,12.4094,12.4035,12.388,12.3615,12.3643,12.3757,12.3967,12.41,12.4314,12.4345,12.4215,12.4025,12.3864,12.3728,12.3615,12.3615,12.3615,12.3796,12.4043,12.5048,12.5601,12.6021,12.636,12.6181,12.6207,12.6322,12.6109,12.4877,12.4892,12.4973,12.4973,12.4978,12.4978,12.4978,12.4978,12.4978,12.4978,12.4978,12.4978,12.4978,12.4978,12.4978,12.4978,12.4978,12.4978,12.4978,12.4978,12.4978,12.4978,12.4978,12.4978,12.4978,12.4978,12.5046,12.5106,12.5149,12.5323,12.5459,12.5647,12.579,12.6038,12.6116,12.6157,12.6198,12.6198,12.6198,12.6198,12.6198,12.6198,12.6198,12.6198,12.6198,12.6198,12.6198,12.6198,12.6198,12.6198,12.6198,12.6198,12.6345,12.7086,12.7888,12.8217,12.8867,13.0646,13.2137,13.3616,13.4205,13.52,13.5324,13.5204,13.5485,13.5849,13.5931,13.5958,13.6076,13.6081,13.6266,13.6416,13.6374,13.6366,13.6407,13.648,13.6603,13.6561,13.6496,13.6582,13.6698,12.3924,12.4221,12.4267,12.4534,12.4809,12.4721,12.4448,12.4189,12.4063,12.3891,12.3674,12.3621,12.3648,12.3746,12.3966,12.4084,12.411,12.4189,12.3999,12.3784,12.3648,12.3615,12.3615,12.3615,12.3652,12.3682,12.4229,12.4225,12.4734,12.5681,12.5719,12.5648,12.659,12.6438,12.5172,12.498,12.4959,12.4978,12.4978,12.4978,12.4978,12.4978,12.4978,12.4978,12.4978,12.4978,12.4978,12.4978,12.4978,12.4978,12.4978,12.4978,12.4978,12.4978,12.4978,12.4978,12.4978,12.4978,12.4978,12.4978,12.4998,12.5019,12.5041,12.5143,12.5258,12.5394,12.5478,12.577,12.6002,12.6161,12.6198,12.6198,12.6198,12.6198,12.6198,12.6198,12.6198,12.6198,12.6198,12.6198,12.6198,12.6198,12.6198,12.6198,12.6198,12.6198,12.6198,12.6861,12.693,12.7034,12.755,12.9283,13.0549,13.1995,13.3026,13.38,13.4278,13.4163,13.4518,13.5223,13.5545,13.5894,13.5842,13.5833,13.5972,13.5938,13.602,13.604,13.6174,13.6297,13.6437,13.647,13.6394,13.6455,13.6535,12.3835,12.42,12.421,12.4514,12.4914,12.4855,12.4574,12.4262,12.4132,12.3904,12.3697,12.3615,12.3615,12.3717,12.3907,12.4047,12.41,12.4121,12.3968,12.3817,12.367,12.3615,12.3615,12.3615,12.3615,12.3621,12.3632,12.3819,12.4123,12.5069,12.4994,12.4913,12.546,12.5704,12.5131,12.4978,12.4978,12.4978,12.4978,12.4978,12.4978,12.4978,12.4978,12.4978,12.4978,12.4978,12.4978,12.4978,12.4978,12.4978,12.4978,12.4978,12.5039,12.5046,12.5114,12.5099,12.5027,12.4978,12.4978,12.4978,12.4978,12.4978,12.4983,12.5065,12.5136,12.5288,12.5496,12.5765,12.6027,12.6198,12.6198,12.6198,12.6198,12.6198,12.6198,12.6198,12.6198,12.6198,12.6198,12.6198,12.6198,12.6198,12.6198,12.6198,12.6198,12.6198,12.6198,12.6272,12.6309,12.6406,12.6586,12.7639,12.8044,12.9338,13.0332,13.1624,13.261,13.2845,13.3289,13.4311,13.4909,13.5711,13.585,13.5336,13.5344,13.534,13.555,13.606,13.6051,13.6137,13.6279,13.6355,13.6285,13.6273,13.634,12.3865,12.4164,12.42,12.4493,12.489,12.4968,12.4706,12.4257,12.4205,12.3964,12.3654,12.3615,12.3615,12.3654,12.388,12.4036,12.4085,12.4068,12.3956,12.3869,12.3708,12.3615,12.3615,12.3621,12.3681,12.3687,12.3768,12.3924,12.4125,12.411,12.4552,12.4678,12.4841,12.4952,12.498,12.4978,12.4978,12.4978,12.4978,12.4978,12.4978,12.4978,12.4978,12.4978,12.4978,12.4978,12.4978,12.4978,12.4978,12.4978,12.5007,12.5022,12.5051,12.5082,12.5144,12.5139,12.5039,12.4978,12.4978,12.4978,12.4978,12.4988,12.5027,12.5087,12.5216,12.5435,12.5574,12.5777,12.5968,12.6114,12.6153,12.6198,12.6198,12.6198,12.6198,12.6198,12.6198,12.6198,12.6198,12.6198,12.6198,12.6198,12.6198,12.6198,12.6198,12.6198,12.6198,12.6198,12.6198,12.6198,12.6235,12.6198,12.6235,12.7271,12.8159,13.0009,13.121,13.1525,13.2044,13.3075,13.3856,13.5049,13.5293,13.4296,13.398,13.4509,13.5302,13.6053,13.6203,13.6207,13.624,13.6257,13.6184,13.6132,13.6197,12.3774,12.4078,12.4179,12.437,12.4655,12.489,12.469,12.4262,12.4236,12.3996,12.3681,12.3615,12.3615,12.3621,12.3681,12.3853,12.3967,12.3998,12.3885,12.3772,12.3654,12.3665,12.3654,12.3687,12.3795,12.4127,12.4064,12.4242,12.4407,12.4524,12.4611,12.486,12.4919,12.4929,12.4959,12.4978,12.4978,12.4978,12.4978,12.4978,12.4978,12.4978,12.4978,12.4978,12.4978,12.4978,12.4978,12.4978,12.4978,12.4993,12.5087,12.5154,12.5135,12.5087,12.507,12.517,12.5085,12.5002,12.5002,12.5002,12.5002,12.4988,12.5077,12.5146,12.5258,12.5445,12.5647,12.574,12.5866,12.596,12.6135,12.6198,12.6198,12.6198,12.6198,12.6198,12.6198,12.6198,12.6198,12.6198,12.6198,12.6198,12.6198,12.6198,12.6198,12.6198,12.6198,12.6198,12.6198,12.6198,12.6198,12.6198,12.6714,12.7602,12.7938,12.9332,12.9844,13.0218,13.0653,13.1331,13.1926,13.2387,13.2352,13.2125,13.2841,13.3713,13.4499,13.5329,13.5945,13.6324,13.6327,13.6264,13.615,13.5994,13.6056,12.3793,12.4041,12.4169,12.4345,12.4646,12.4865,12.4786,12.4421,12.4252,12.4079,12.3833,12.3654,12.3615,12.3615,12.3621,12.3665,12.3804,12.3821,12.3719,12.3701,12.3788,12.3842,12.3806,12.3849,12.3892,12.4053,12.4195,12.4376,12.4544,12.46,12.4761,12.5,12.4973,12.4978,12.4978,12.4978,12.4978,12.4978,12.4978,12.4978,12.4978,12.4978,12.4978,12.4978,12.4978,12.4978,12.4983,12.4983,12.4983,12.508,12.5288,12.5473,12.5487,12.5371,12.5342,12.531,12.5162,12.5022,12.5094,12.5128,12.512,12.53,12.5333,12.5395,12.5514,12.5587,12.5749,12.591,12.5986,12.6031,12.6144,12.6198,12.6198,12.6198,12.6198,12.6198,12.6198,12.6198,12.6198,12.6198,12.6198,12.6198,12.6198,12.6198,12.6198,12.6198,12.6198,12.6198,12.6198,12.6198,12.6198,12.6345,12.7008,12.7431,12.7661,12.8024,12.8587,12.8849,12.9331,12.988,13.0136,12.986,12.9623,13.0253,13.0936,13.2064,13.3754,13.4467,13.5166,13.5934,13.6439,13.6333,13.6231,13.6207,13.6168,12.3446,12.3961,12.409,12.4293,12.4493,12.475,12.473,12.4499,12.4371,12.4195,12.3983,12.3784,12.3676,12.3615,12.3615,12.3615,12.3637,12.3643,12.3615,12.3674,12.3875,12.395,12.3988,12.4152,12.4131,12.4215,12.4319,12.4504,12.4671,12.4746,12.4816,12.5,12.4978,12.4978,12.4978,12.4978,12.4978,12.4978,12.4978,12.4978,12.4978,12.4978,12.4978,12.4978,12.4978,12.4978,12.4988,12.5061,12.5104,12.5214,12.5455,12.565,12.5687,12.5551,12.5487,12.544,12.5209,12.5036,12.5116,12.5168,12.5277,12.5408,12.551,12.5665,12.5752,12.5816,12.5953,12.6086,12.6198,12.614,12.6198,12.6198,12.6198,12.6198,12.6198,12.6198,12.6198,12.6198,12.6198,12.6198,12.6198,12.6198,12.6198,12.6198,12.6198,12.6198,12.6198,12.6198,12.6198,12.6198,12.6198,12.6198,12.6629,12.6767,12.693,12.7012,12.7268,12.7376,12.8029,12.8629,12.8488,12.8255,12.83,12.8702,12.9362,13.1134,13.3088,13.3953,13.5248,13.5936,13.6591,13.6496,13.6433,13.6399,13.6377,12.2374,12.3676,12.395,12.4067,12.4095,12.4494,12.4509,12.4314,12.4432,12.4299,12.4036,12.3993,12.3774,12.3621,12.3615,12.3615,12.3615,12.3615,12.3615,12.3668,12.3706,12.3804,12.4009,12.4247,12.4422,12.4468,12.4755,12.4875,12.489,12.4914,12.4995,12.5005,12.4978,12.4978,12.4978,12.4978,12.4978,12.4978,12.4978,12.4978,12.4978,12.4978,12.4978,12.4978,12.4978,12.4983,12.5075,12.5327,12.5482,12.5496,12.5556,12.5692,12.5745,12.5422,12.538,12.5487,12.5271,12.5051,12.5065,12.5211,12.5268,12.538,12.5619,12.578,12.5833,12.5966,12.6118,12.6157,12.6198,12.6198,12.6198,12.6198,12.6198,12.6198,12.6198,12.6198,12.6198,12.6198,12.6198,12.6198,12.6198,12.6198,12.6198,12.6198,12.6198,12.6198,12.6198,12.6198,12.6198,12.6198,12.6198,12.6207,12.6201,12.6236,12.621,12.6191,12.6287,12.6423,12.7329,12.7574,12.743,12.7393,12.7222,12.7611,12.8756,13.0343,13.1999,13.3715,13.5499,13.6103,13.5396,13.5857,13.6286,13.5446,13.5149,12.033,12.1007,12.2197,12.2654,12.2805,12.391,12.4304,12.4226,12.4273,12.4152,12.3994,12.388,12.3745,12.3615,12.3615,12.3615,12.3615,12.3615,12.3615,12.3615,12.3579,12.367,12.3858,12.4125,12.433,12.4402,12.4625,12.4836,12.499,12.4978,12.4978,12.4978,12.4978,12.4978,12.4978,12.4978,12.4978,12.4978,12.4978,12.4978,12.4978,12.4978,12.4978,12.4978,12.4978,12.5041,12.512,12.5412,12.5629,12.5683,12.5673,12.579,12.5936,12.5673,12.5587,12.5637,12.5487,12.5333,12.5413,12.5492,12.5587,12.5741,12.5852,12.5966,12.6034,12.6114,12.6198,12.6198,12.6198,12.6198,12.6198,12.6198,12.6198,12.6198,12.6198,12.6198,12.6198,12.6198,12.6198,12.6198,12.6198,12.6198,12.6198,12.6198,12.6198,12.6198,12.6198,12.6198,12.617,12.6198,12.6243,12.6213,12.6231,12.6269,12.6272,12.6406,12.6505,12.6553,12.7084,12.6993,12.6973,12.7008,12.698,12.7284,12.8269,12.9262,13.0004,13.1232,13.342,13.4524,13.4014,13.3809,13.3709,13.3217,13.3277,11.8566,11.9093,12.0387,12.0977,12.1184,12.2277,12.3044,12.3505,12.3416,12.3602,12.3998,12.3795,12.3728,12.3615,12.3615,12.3615,12.3615,12.3615,12.3615,12.3574,12.3285,12.3177,12.3629,12.3918,12.4073,12.42,12.4468,12.469,12.4885,12.4949,12.4978,12.4978,12.4978,12.4978,12.4978,12.4978,12.4978,12.4978,12.4978,12.4978,12.4978,12.4978,12.4978,12.4978,12.4978,12.509,12.5291,12.5403,12.5574,12.5824,12.5864,12.5966,12.6077,12.5843,12.57,12.5713,12.5592,12.5524,12.5655,12.5703,12.5842,12.6006,12.6064,12.6157,12.6198,12.6198,12.6198,12.6198,12.6198,12.6198,12.6198,12.6198,12.6198,12.6198,12.6198,12.6198,12.6198,12.6198,12.6198,12.6198,12.6198,12.6198,12.6198,12.6198,12.6198,12.6198,12.6198,12.6198,12.6167,12.6221,12.6228,12.624,12.6273,12.6286,12.6365,12.6566,12.6677,12.6705,12.6709,12.6743,12.6784,12.6852,12.691,12.7079,12.8106,12.9028,12.9354,12.9733,13.074,13.2616,13.2497,13.2777,13.2309,13.1791,13.1885,11.7473,11.8933,11.9057,11.9006,11.9182,11.9571,12.0564,12.1718,12.1878,12.2598,12.3595,12.3619,12.3656,12.3576,12.3357,12.3363,12.3543,12.3327,12.3152,12.2857,12.2135,12.1991,12.3029,12.3513,12.3791,12.4048,12.4376,12.459,12.467,12.486,12.4978,12.501,12.4978,12.4978,12.4978,12.4978,12.4978,12.4978,12.4978,12.4978,12.4978,12.4978,12.4978,12.4978,12.4983,12.5147,12.544,12.5371,12.5533,12.6025,12.6086,12.6131,12.6092,12.5778,12.5642,12.5802,12.5432,12.545,12.5601,12.5772,12.5838,12.5873,12.6055,12.6198,12.6198,12.6198,12.6198,12.6198,12.6198,12.6198,12.6198,12.6198,12.6198,12.6198,12.6198,12.6198,12.6198,12.6198,12.6198,12.6198,12.6198,12.6198,12.6198,12.6198,12.617,12.6183,12.6211,12.6237,12.6247,12.6307,12.6247,12.6292,12.6374,12.637,12.6378,12.6581,12.6623,12.6669,12.6748,12.6773,12.6825,12.6881,12.6943,12.7309,12.7979,12.8852,12.9521,12.9964,13.0707,13.0801,13.1054,13.1846,13.1693,13.1103,13.0911,11.3006,11.4492,11.5492,11.6431,11.7452,11.8614,11.9394,11.9911,12.0015,12.033,12.1032,12.1883,12.2216,12.2188,12.2171,12.2171,12.2068,12.1083,12.0697,12.0547,11.9969,12.0119,12.0687,12.1779,12.2815,12.386,12.4152,12.4324,12.459,12.469,12.4841,12.4995,12.4978,12.4978,12.4978,12.4978,12.4978,12.4978,12.4978,12.4978,12.4978,12.4978,12.4978,12.4978,12.4978,12.5181,12.5533,12.5454,12.5578,12.5874,12.6077,12.6157,12.6144,12.587,12.5771,12.5905,12.574,12.5646,12.5902,12.5977,12.6034,12.6042,12.6127,12.6198,12.6198,12.6198,12.6198,12.6198,12.6198,12.6198,12.6198,12.6198,12.6198,12.6198,12.6198,12.6198,12.6198,12.6198,12.6198,12.6198,12.6198,12.6198,12.6198,12.6202,12.6245,12.6306,12.6403,12.6516,12.6563,12.6558,12.6555,12.6554,12.6538,12.6513,12.6491,12.6536,12.6598,12.667,12.6796,12.6851,12.6874,12.6941,12.6999,12.7334,12.7472,12.8319,12.8389,12.9147,12.9571,12.8977,12.8613,12.9237,12.9605,12.9381,12.9599,11.0051,11.117,11.2217,11.3548,11.5054,11.6178,11.7375,11.8133,11.8159,11.8484,11.9108,12.0083,12.0547,12.0552,12.0557,12.0557,12.0408,11.8417,11.7731,11.8169,11.8205,11.8453,11.9149,12.0093,12.1474,12.2986,12.3729,12.4147,12.4376,12.4529,12.4701,12.4865,12.4975,12.501,12.4978,12.4978,12.4978,12.4978,12.4978,12.4978,12.4978,12.4978,12.4978,12.4978,12.4978,12.5128,12.5413,12.5436,12.5533,12.5732,12.591,12.6068,12.6081,12.589,12.5877,12.6081,12.589,12.5873,12.6099,12.6157,12.6157,12.6161,12.6161,12.6198,12.6198,12.6198,12.6198,12.6198,12.6198,12.6198,12.6198,12.6198,12.6198,12.6198,12.6198,12.6198,12.6198,12.6198,12.6198,12.6198,12.6198,12.6198,12.6198,12.6198,12.6245,12.6297,12.6403,12.653,12.6595,12.6555,12.6645,12.6693,12.6717,12.6663,12.6671,12.67,12.6717,12.6747,12.6855,12.6903,12.6932,12.6957,12.7019,12.7169,12.7172,12.7313,12.7209,12.7443,12.7729,12.7492,12.7566,12.7451,12.7224,12.7391,12.7806,10.9365,10.9432,10.9473,11.052,11.1959,11.2217,11.3692,11.5884,11.6245,11.6967,11.7983,11.8855,11.8964,11.8933,11.8964,11.8897,11.8278,11.5931,11.5307,11.6395,11.6462,11.7261,11.8494,11.8783,11.9774,12.1137,12.2997,12.3813,12.3732,12.4101,12.4381,12.4556,12.4749,12.4978,12.4978,12.4978,12.4978,12.4978,12.4978,12.4978,12.4978,12.4978,12.4978,12.4978,12.4978,12.4997,12.5106,12.5161,12.5338,12.5542,12.5691,12.5905,12.6034,12.5864,12.5896,12.6068,12.5936,12.5931,12.6135,12.6198,12.6198,12.6198,12.6198,12.6198,12.6198,12.6198,12.6198,12.6198,12.6198,12.6198,12.6198,12.6198,12.6198,12.6198,12.6198,12.6198,12.6198,12.6198,12.6198,12.6183,12.6217,12.6174,12.6202,12.6239,12.6266,12.6287,12.6307,12.6356,12.6537,12.6524,12.6552,12.6673,12.6767,12.6765,12.6804,12.6821,12.6823,12.6796,12.6915,12.696,12.6939,12.6938,12.6998,12.7083,12.7124,12.712,12.7053,12.7061,12.7116,12.7124,12.7124,12.7194,12.7098,12.7083,12.7039,10.676,10.7658,10.773,10.8674,11.0123,11.0159,11.0768,11.1712,11.2831,11.3574,11.4445,11.6359,11.7256,11.7225,11.7261,11.6756,11.557,11.4626,11.4373,11.4848,11.4843,11.5131,11.5776,11.6751,11.7514,11.8216,11.977,12.0729,12.108,12.2208,12.2892,12.3377,12.4491,12.4978,12.4978,12.4978,12.4978,12.4978,12.4978,12.4978,12.4978,12.4978,12.4978,12.4978,12.4978,12.4595,12.3647,12.4635,12.531,12.5542,12.5629,12.5656,12.5746,12.566,12.5805,12.606,12.589,12.5873,12.609,12.6198,12.6198,12.6198,12.6198,12.6198,12.6198,12.6198,12.6198,12.6198,12.6198,12.6198,12.6198,12.6161,12.6198,12.6198,12.6198,12.6198,12.6198,12.6239,12.6295,12.6318,12.6394,12.6513,12.6574,12.6531,12.6582,12.6672,12.6698,12.6719,12.6847,12.6896,12.6934,12.6993,12.6938,12.6886,12.6895,12.6984,12.6968,12.692,12.6939,12.6949,12.6964,12.6964,12.6998,12.7083,12.7124,12.7124,12.712,12.712,12.7124,12.7124,12.7124,12.7124,12.7098,12.7094,12.7064,10.5172,10.6033,10.6074,10.7013,10.8488,10.8529,10.8931,10.955,11.0525,11.0907,11.1392,11.362,11.4729,11.4729,11.4193,11.3362,11.2527,11.3001,11.3254,11.3326,11.3873,11.4079,11.4198,11.509,11.5817,11.6477,11.7587,11.8656,11.9564,12.0577,12.1286,12.1785,12.274,12.3226,12.3258,12.3263,12.3263,12.3216,12.3258,12.355,12.4015,12.4129,12.3805,12.3294,12.3258,12.2809,12.1908,12.2818,12.3747,12.4509,12.4657,12.4978,12.551,12.5697,12.5889,12.6122,12.6025,12.5971,12.614,12.6198,12.6198,12.6198,12.6198,12.6198,12.6198,12.6198,12.6198,12.6198,12.6198,12.5414,12.4914,12.4948,12.5249,12.5344,12.5777,12.6198,12.6198,12.6202,12.6286,12.6307,12.646,12.6676,12.6661,12.6719,12.6787,12.688,12.6855,12.6911,12.703,12.7046,12.7065,12.7098,12.7072,12.7034,12.7031,12.7079,12.712,12.7005,12.7001,12.7013,12.7005,12.7031,12.7035,12.712,12.7124,12.7124,12.7124,12.7124,12.7124,12.7124,12.7124,12.7124,12.7124,12.7098,12.7105,10.4599,10.4599,10.4585,10.5528,10.6792,10.6823,10.7704,10.8895,10.9256,10.9333,10.954,11.1062,11.1588,11.1273,11.038,10.9478,10.9586,11.0984,11.1661,11.182,11.3223,11.3971,11.4007,11.4084,11.4915,11.608,11.6523,11.7454,11.8995,11.9452,11.9661,11.9741,12.0193,12.026,12.037,12.0479,12.0219,12.0516,12.0484,12.1022,12.2321,12.2431,12.1601,12.037,12.0187,12.0306,12.005,12.0119,12.0917,12.2486,12.2921,12.3704,12.5102,12.5563,12.5681,12.5739,12.5784,12.583,12.5715,12.5678,12.5682,12.5752,12.5535,12.5793,12.5461,12.5461,12.5494,12.583,12.5573,12.4511,12.2337,12.2923,12.3593,12.3692,12.4915,12.5626,12.5821,12.5691,12.6068,12.6035,12.6275,12.6585,12.6755,12.6744,12.677,12.6826,12.6773,12.6849,12.6938,12.6957,12.6994,12.7079,12.7113,12.7113,12.712,12.7124,12.7124,12.7083,12.7083,12.7116,12.712,12.7124,12.712,12.7124,12.7124,12.7124,12.7124,12.7124,12.7124,12.7124,12.7124,12.7124,12.7124,12.7124,12.7124,10.4599,10.4599,10.4599,10.4847,10.5208,10.5208,10.5492,10.5997,10.7112,10.7586,10.7776,10.9369,10.8787,10.7049,10.8643,10.8756,10.792,10.9329,11.0087,11.0231,11.1707,11.2383,11.2537,11.3507,11.4327,11.4698,11.4836,11.5109,11.568,11.7069,11.8053,11.8482,11.9525,12.0114,12.0114,12.0114,12.0114,12.0114,12.0114,12.037,12.0547,11.9699,11.8928,11.8608,11.9489,11.9598,11.8531,11.9521,12.037,12.0808,12.1077,12.1466,12.1924,12.2199,12.2325,12.2361,12.2508,12.2658,12.2658,12.2612,12.2649,12.2621,12.2621,12.2617,12.2612,12.2612,12.2617,12.265,12.281,12.2667,12.1647,12.1937,12.2212,12.2243,12.256,12.2892,12.3085,12.42,12.4863,12.5044,12.582,12.6958,12.6982,12.6894,12.686,12.696,12.6938,12.689,12.7031,12.7083,12.7083,12.7124,12.7124,12.7124,12.7124,12.7124,12.7124,12.7124,12.7124,12.7124,12.7124,12.7124,12.7124,12.7124,12.7124,12.7124,12.7124,12.7124,12.7124,12.7124,12.7124,12.7124,12.7124,12.7124,12.7124,10.268,10.2685,10.2685,10.301,10.3732,10.4337,10.4599,10.4625,10.5569,10.5961,10.6033,10.6327,10.5826,10.4738,10.6584,10.6941,10.6142,10.7658,10.839,10.8565,11.0077,11.0809,11.0912,11.1815,11.2568,11.3115,11.32,11.3565,11.4389,11.5513,11.6323,11.6755,11.7627,11.8143,11.8134,11.8175,11.8148,11.8102,11.8143,11.8148,11.8025,11.7258,11.6784,11.6852,11.766,11.7664,11.6957,11.7623,11.8499,11.9203,11.95,11.9671,11.9705,12.0579,12.0773,12.0123,12.0836,12.1327,12.1327,12.1327,12.1327,12.1327,12.1327,12.132,12.1356,12.1369,12.0761,11.981,11.961,11.9695,11.9721,12.0321,12.076,12.0794,12.1294,12.1719,12.1672,12.2665,12.3269,12.3356,12.4354,12.5031,12.5127,12.5639,12.6344,12.7005,12.7046,12.7005,12.7116,12.7124,12.7124,12.7124,12.7124,12.7124,12.7124,12.7124,12.7124,12.7124,12.7124,12.7124,12.7124,12.7124,12.7124,12.7124,12.7124,12.7124,12.7124,12.7124,12.7124,12.7124,12.7124,12.7124,12.7124,12.7124,12.7124,10.0008,9.9931,10.0022,10.0735,10.2143,10.3484,10.4021,10.4048,10.4115,10.417,10.3972,10.2712,10.2816,10.3804,10.4039,10.4008,10.394,10.557,10.6297,10.6608,10.8269,10.909,10.9184,10.9442,11.0195,11.1437,11.1657,11.2417,11.3662,11.4196,11.4546,11.4771,11.5092,11.5402,11.5338,11.5347,11.5324,11.5251,11.5251,11.5251,11.5251,11.5251,11.5251,11.5255,11.531,11.5237,11.5068,11.5091,11.5792,11.7146,11.7467,11.7684,11.8,11.9571,11.9821,11.8258,11.9756,12.0628,12.0333,12.0403,12.03,12.0812,12.0521,12.0447,12.0837,12.0671,11.9331,11.7203,11.6452,11.6467,11.6538,11.7707,11.8493,11.87,11.987,12.1132,12.1083,12.1425,12.1507,12.151,12.2134,12.214,12.263,12.3668,12.5012,12.6003,12.6307,12.6619,12.6671,12.6857,12.7046,12.66,12.6597,12.6522,12.6793,12.6905,12.6834,12.7087,12.7124,12.7124,12.7124,12.7124,12.7124,12.7124,12.7124,12.7124,12.7124,12.7124,12.7124,12.7124,12.7124,12.7124,12.7124,12.7124,12.7124,10.007,10.0044,9.9967,10.0122,10.0455,10.0848,10.0952,10.0952,10.0956,10.1023,10.1062,10.0777,10.0024,9.9236,10.0503,10.046,9.9654,10.105,10.2437,10.3535,10.519,10.6531,10.7497,10.8864,10.9617,10.9952,11.0022,11.0186,11.0721,11.1918,11.2618,11.2849,11.4315,11.5119,11.516,11.522,11.5251,11.5251,11.5251,11.5251,11.5251,11.5251,11.5255,11.526,11.5426,11.4887,11.3572,11.3567,11.3232,11.2498,11.2557,11.2742,11.3022,11.4737,11.4979,11.3686,11.5937,11.6452,11.4083,11.3755,11.4861,11.7263,11.6416,11.6298,11.7313,11.5613,11.4004,11.3627,11.3641,11.359,11.3704,11.4022,11.4585,11.5755,11.6241,11.7029,11.8276,11.9494,12.0158,12.033,12.1414,12.2111,12.2246,12.2598,12.3048,12.3543,12.4519,12.5246,12.5486,12.6418,12.5891,12.4328,12.3362,12.3926,12.511,12.5317,12.5793,12.7016,12.7009,12.6816,12.6857,12.7009,12.7083,12.6857,12.6972,12.6823,12.7009,12.705,12.7009,12.6972,12.7083,12.7124,12.7124,12.7124,12.7124,9.7887,9.7946,9.7902,9.8313,9.9005,9.9005,9.9439,9.9918,9.7908,9.7439,9.8234,9.8896,9.8977,9.8824,9.975,9.9705,9.886,9.9795,10.0577,10.1383,10.297,10.4113,10.4888,10.6435,10.7638,10.842,10.8361,10.8722,10.9545,11.0401,11.094,11.1157,11.2223,11.3261,11.4076,11.4905,11.5251,11.5214,11.3836,11.2768,11.2112,11.2777,11.2804,11.212,11.2905,11.2881,11.1974,11.2049,11.1737,11.1092,11.1115,11.0953,11.0491,11.2019,11.222,11.0742,11.2846,11.3432,11.1659,11.1582,11.2359,11.4025,11.3464,11.3493,11.4523,11.3098,11.2282,11.2516,11.2555,11.2526,11.2541,11.2523,11.2895,11.3739,11.3799,11.4216,11.5129,11.6028,11.6731,11.7495,11.8363,11.9218,11.9931,12.0672,12.1097,12.1233,12.2551,12.3579,12.3659,12.4353,12.4208,12.2657,12.2278,12.2734,12.3421,12.3665,12.4003,12.4702,12.4926,12.4893,12.49,12.4867,12.4867,12.4911,12.4877,12.4881,12.4844,12.5482,12.5973,12.6117,12.653,12.7083,12.7124,12.7124,12.6662,9.5343,9.5467,9.5482,9.6209,9.7338,9.7334,9.7972,9.8744,9.5393,9.4678,9.6054,9.716,9.8416,9.9654,9.9674,9.9636,9.9516,9.9533,9.9605,9.9735,10.1041,10.1737,10.2031,10.3308,10.4876,10.6461,10.638,10.7189,10.8819,10.9191,10.9448,10.9678,11.0032,11.1003,11.2557,11.3924,11.463,11.4525,11.1971,10.9922,10.8664,10.989,10.9748,10.8144,10.975,11.0408,10.9815,11.0255,11.0375,11.0038,11.0004,10.9471,10.8333,10.9375,10.9707,10.8749,11.0031,11.0702,11.0186,11.0849,11.1085,11.0669,11.1134,11.1226,11.085,11.0793,11.0881,11.1055,11.0844,11.1259,11.151,11.1327,11.1419,11.2081,11.2191,11.2304,11.268,11.2808,11.3337,11.4545,11.454,11.5259,11.6597,11.8041,11.8921,11.9241,12.0253,12.1617,12.1675,12.1402,12.0913,12.0915,12.1086,12.1346,12.1398,12.1695,12.2145,12.2187,12.2483,12.2659,12.2699,12.2672,12.2683,12.2386,12.2612,12.2535,12.2538,12.3514,12.4264,12.4483,12.5223,12.614,12.6147,12.6176,12.556,9.5726,9.5782,9.5627,9.5096,9.4278,9.4286,9.3861,9.3219,9.4979,0.0,0.0,9.6082,9.6283,9.6459,9.6578,9.6622,9.6594,9.6836,9.7501,9.8461,9.8649,9.9369,10.0432,10.0698,10.1588,10.3096,10.3105,10.4018,10.5774,10.7105,10.7817,10.8081,10.9388,11.0269,11.0671,11.1162,11.1423,11.1423,11.0876,11.0459,11.0234,11.0496,10.9265,10.6421,10.9197,10.89,10.5105,10.7534,10.7242,10.346,10.3333,10.3288,10.3199,10.3423,10.4093,10.5205,10.6719,10.6414,10.3835,10.7338,10.855,10.5986,10.8422,10.8311,10.4254,10.4202,10.434,10.4351,10.4376,10.4999,10.6304,10.6466,10.7537,11.0206,11.0457,11.101,11.2276,11.253,11.2452,11.2887,11.2944,11.3133,11.3568,11.4919,11.5743,11.5959,11.7258,11.8673,11.9353,11.7059,11.4878,11.5013,11.6043,11.6823,11.8028,11.918,12.0735,12.1523,12.1952,12.2283,12.2276,12.2269,12.2276,12.1988,12.2241,12.213,12.2245,12.243,12.269,12.2687,12.2966,12.3178,12.3385,12.3421,12.2756,9.5773,9.5799,9.5761,9.5429,0.0,9.4893,9.3716,9.1973,9.3464,9.443,9.4994,9.571,9.5964,9.5939,9.6016,9.5968,9.5818,9.5964,9.6297,9.6814,9.7592,9.8328,9.8968,9.9678,10.0442,10.1253,10.1122,10.1574,10.2556,10.4072,10.4931,10.5175,10.6871,10.7816,10.7989,10.8845,10.897,10.8139,10.8143,10.7824,10.7124,10.7783,10.7046,10.4926,10.708,0.0,0.0,0.0,0.0,0.0,0.0,0.0,0.0,0.0,0.0,9.696,9.5431,9.3463,9.1315,9.4727,9.7434,9.8416,10.0726,10.0443,9.6576,10.0197,10.1646,9.9284,10.1263,10.2969,10.3784,10.3888,10.4559,10.6029,10.6261,10.6933,10.8507,10.8819,10.9435,11.0848,11.1254,11.1655,11.243,11.3288,11.3685,11.3769,11.443,11.5513,11.6624,11.4557,11.2562,11.2562,11.3295,11.4028,11.4838,11.5695,11.6451,11.7232,11.7975,11.8457,11.8534,11.9244,11.9798,11.9815,11.9841,11.9838,11.9878,12.0506,12.0986,12.1056,12.1657,12.1579,11.8511,11.8027,11.7828,9.5785,9.593,9.5897,9.5862,9.5768,9.5453,9.4058,9.2014,9.2311,9.2851,9.3656,9.514,9.5941,9.6237,9.6237,9.6096,9.5897,9.5893,9.5778,9.5632,9.6967,9.7524,9.7484,9.8699,9.9509,9.986,9.9703,9.982,10.0268,10.1458,10.2139,10.2432,10.4141,10.5099,10.5295,0.0,0.0,0.0,10.5225,10.4655,10.3599,10.4688,10.4359,10.242,10.4387,0.0,10.4609,10.524,10.4767,10.3056,10.2981,0.0,0.0,0.0,0.0,0.0,0.0,0.0,0.0,0.0,0.0,0.0,9.0184,9.0495,8.9347,9.568,9.796,9.3801,9.8371,10.1592,10.1294,10.1775,10.229,10.2571,10.2657,10.3133,10.4495,10.4712,10.5624,10.8289,10.8871,10.963,11.0783,11.1735,11.2051,11.2076,11.2379,11.2971,11.3879,11.2535,11.1745,11.2005,11.1634,11.1652,11.2021,11.2485,11.3013,11.2688,11.3704,11.4447,11.469,11.5709,11.6469,11.6469,11.6465,11.6506,11.6506,11.7509,11.8214,11.8356,11.9468,11.8819,11.3307,11.2576,11.2996,9.6148,9.6163,9.6163,9.5491,9.4234,9.2652,9.1813,9.1556,9.2882,9.286,9.1828,9.3336,9.4821,9.6204,9.6237,9.6222,9.6207,9.6163,9.6144,9.6135,9.6085,9.6088,9.6072,9.6282,9.7098,9.8408,9.8404,9.916,10.059,10.0554,10.0666,10.0838,10.2372,10.3256,10.3375,10.3557,10.3518,10.3212,10.3197,10.3149,10.3113,10.3479,10.1711,9.7941,10.176,10.2209,9.8322,10.0782,10.091,9.8013,9.7895,9.7858,9.756,9.557,9.2331,0.0,8.4461,0.0,0.0,0.0,0.0,0.0,0.0,0.0,0.0,8.757,8.8324,8.5024,9.3084,9.7856,9.6451,9.8931,10.1125,10.243,10.2636,10.2704,10.291,10.2956,10.3154,10.3523,10.487,10.5844,10.629,10.866,11.0312,11.0332,11.1208,11.1516,11.0752,10.9291,10.8805,11.0195,10.9217,10.891,11.0031,11.142,11.219,11.2332,11.2425,11.2847,11.2656,11.2996,11.3153,11.3157,11.3204,11.3207,11.316,11.3427,11.3672,11.3759,11.4017,11.2692,10.8591,10.9108,11.0723,9.3602,9.3529,9.3533,9.3175,9.2514,9.1722,9.134,9.1409,9.2069,9.2,9.1416,9.2117,9.2803,9.3525,9.3525,9.4007,9.4814,9.4814,9.5236,9.5991,9.6043,9.5972,9.5818,9.5818,9.6211,9.6858,9.6804,9.7176,9.8007,9.8772,9.9144,9.9237,10.0895,9.9571,9.5597,9.9688,10.1979,10.2043,10.1951,10.1907,10.1938,10.2192,10.1395,9.9425,10.1483,10.1607,9.9569,10.0974,10.0722,9.847,9.8354,9.7955,9.686,8.7894,8.356,0.0,0.0,0.0,0.0,0.0,0.0,0.0,0.0,0.0,0.0,0.0,8.0332,8.1742,9.0723,9.3946,8.7827,9.1006,9.3777,9.4459,9.2931,9.4388,10.0684,9.975,9.9658,10.2295,10.3299,10.3745,10.3784,10.5058,10.6272,10.7244,10.718,10.6778,10.5986,10.5336,10.5432,10.7026,10.6744,10.6586,10.7192,10.7205,10.7054,10.7119,10.7861,10.8427,10.8486,10.9203,10.9848,10.9858,10.9918,10.9967,10.998,11.013,11.025,11.005,10.9115,10.736,10.5268,10.5996,10.6994,9.1432,9.1077,8.8124,8.7544,8.8563,8.8572,8.9202,9.0284,9.0627,9.0533,9.0241,9.0673,8.9986,8.8475,8.7381,8.833,9.0866,9.0896,9.2274,9.4754,9.5345,9.5516,9.533,9.5772,9.5941,9.5958,9.5487,9.5427,9.5934,9.6698,9.6477,9.5448,9.6797,9.4646,8.9446,9.5048,9.9162,10.13,10.1096,10.0835,10.0443,10.0696,10.0676,10.0382,10.0875,10.096,10.0562,10.0625,10.0097,9.8879,9.7025,9.527,9.3479,7.9726,0.0,0.0,0.0,0.0,0.0,0.0,0.0,0.0,0.0,6.4245,5.407,0.0,7.2638,0.0,8.7349,9.0357,8.3669,8.6049,0.0,0.0,8.4428,8.5516,9.4035,9.428,9.5127,9.8756,10.0908,10.2078,10.206,10.2408,10.3009,10.3825,10.2909,10.2212,10.257,10.2614,10.3128,10.4312,10.4596,10.4575,10.452,10.3426,10.2804,10.2639,10.3729,10.4558,10.4672,10.5736,10.6607,10.663,10.6702,10.6761,10.6775,10.6998,10.6923,10.6033,10.4336,10.2764,10.2799,10.3157,10.3433,9.1343,9.0372,7.8875,7.656,8.0524,8.0516,8.2953,8.7105,8.8442,8.8238,8.7044,8.8665,8.6058,8.0203,7.5931,0.0,8.2771,8.2774,8.5969,9.176,9.3244,9.3905,9.3938,9.5586,9.6394,9.6321,9.4785,9.4731,9.5923,9.4722,9.1694,8.7208,8.7592,8.8185,8.8828,8.9298,9.3374,10.0743,10.0749,10.0041,9.8626,9.893,9.8547,9.7263,9.8801,9.8926,9.7433,9.7272,9.7154,9.6793,8.9895,8.518,8.3417,0.0,0.0,0.0,0.0,0.0,0.0,0.0,0.0,0.0,0.0,0.0,0.0,0.0,0.0,7.1175,8.0611,0.0,8.9402,8.8688,0.0,0.0,0.0,7.9074,7.9949,8.5176,8.8803,8.9166,0.0,0.0,10.0474,10.1748,10.2166,10.0844,10.0576,10.1005,10.247,10.2507,10.269,10.2801,10.2798,10.2818,10.2813,10.2503,10.224,10.2338,10.2761,10.2846,10.3087,10.3343,10.3374,10.3564,10.3588,10.3571,10.3606,10.3792,10.3127,10.0469,9.9674,9.9438,9.9643,10.0717,10.1695,8.0037,7.5109,6.9137,6.8871,7.2265,7.1369,7.4852,8.1161,8.0715,7.9611,7.8187,7.7829,7.411,6.7822,6.4992,0.0,0.0,0.0,7.6303,8.4254,8.5829,8.859,9.227,9.3982,9.4778,9.4778,9.5132,9.5666,9.6379,9.5677,8.656,6.9926,0.0,0.0,7.2217,8.0646,8.7593,9.2677,9.642,9.8092,9.7552,9.7627,9.7375,9.6836,9.745,9.7436,9.6785,9.668,9.446,8.9723,8.5564,8.043,0.0,0.0,0.0,0.0,0.0,0.0,0.0,0.0,0.0,0.0,0.0,4.7009,4.1528,0.0,0.0,0.0,6.3541,6.7763,7.1067,7.6153,0.0,0.0,0.0,0.0,0.0,0.0,0.0,8.1751,8.7732,9.2336,9.4223,9.668,9.8464,9.8973,9.8865,9.9087,9.9844,0.0,10.0044,10.1081,10.123,10.1239,10.1191,9.9633,9.8773,9.9747,9.9982,10.0099,10.019,10.0187,10.0211,10.0295,10.0407,10.0518,10.0523,10.0722,10.0415,9.931,9.913,9.916,9.916,9.9732,10.0196,6.7194,0.0,0.0,0.0,0.0,6.2222,6.6029,7.2648,7.1372,7.0231,6.9058,6.6992,0.0,0.0,0.0,0.0,0.0,0.0,6.9238,7.7495,8.1929,8.6301,9.0706,9.2327,9.3087,9.3124,9.3774,9.3481,9.2265,8.9061,7.7087,5.7268,0.0,0.0,0.0,0.0,8.1533,8.6738,9.3337,9.6773,9.6848,9.6776,9.6751,9.6748,9.6654,9.6638,9.6601,9.4378,9.0332,8.4209,7.8107,0.0,0.0,0.0,0.0,0.0,0.0,0.0,0.0,0.0,0.0,0.0,0.0,0.0,0.0,0.0,0.0,0.0,0.0,0.0,5.8536,6.6013,6.8773,0.0,0.0,0.0,0.0,0.0,0.0,0.0,0.0,0.0,8.6387,9.0136,9.3736,0.0,0.0,9.7192,9.7367,9.7242,9.7505,9.8699,9.8584,0.0,9.7644,9.6533,9.5932,9.6668,9.7697,9.774,9.5927,9.717,9.7783,9.5956,9.7385,9.8645,9.8249,9.7266,9.6491,9.6841,9.6689,9.6545,9.7166,9.8466,9.9308,0.0,0.0,0.0,0.0,0.0,0.0,0.0,0.0,6.0966,6.0803,0.0,5.7444,0.0,0.0,0.0,0.0,4.7327,5.7511,0.0,0.0,8.3227,8.8865,8.9008,9.06,9.1511,9.1471,8.9635,8.648,8.1657,7.1345,0.0,0.0,0.0,0.0,0.0,0.0,7.5116,8.4591,9.2571,9.6652,9.6629,9.6655,9.6648,9.6648,9.6638,9.6528,9.6234,8.9048,8.4064,8.1909,6.5893,0.0,0.0,0.0,0.0,0.0,0.0,0.0,0.0,0.0,0.0,0.0,0.0,0.0,0.0,0.0,0.0,0.0,0.0,0.0,0.0,6.2122,0.0,0.0,0.0,0.0,0.0,0.0,0.0,0.0,0.0,7.9845,7.7217,8.2466,8.8121,9.2656,0.0,0.0,0.0,0.0,9.5509,9.561,9.4453,9.3038,9.1496,9.3704,9.515,9.366,0.0,0.0,9.0185,9.4183,9.6269,9.0664,9.475,9.8496,9.6762,9.2373,8.9969,9.1393,9.0465,9.0115,9.1765,9.4926,9.818,0.0,0.0,0.0,0.0,0.0,0.0,0.0,0.0,0.0,4.9116,4.7903,4.4752,0.0,0.0,0.0,0.0,0.0,0.0,0.0,0.0,6.7242,7.3037,7.5282,8.0987,8.1029,0.0,7.6351,7.0858,0.0,0.0,0.0,0.0,0.0,0.0,0.0,0.0,7.0947,7.8778,9.0679,9.6857,9.6857,9.6792,9.6692,9.6605,9.6516,9.3492,8.7184,8.3272,7.8609,0.0,0.0,0.0,0.0,0.0,0.0,0.0,0.0,0.0,0.0,0.0,0.0,0.0,0.0,0.0,0.0,0.0,0.0,0.0,0.0,0.0,0.0,0.0,5.9762,0.0,0.0,0.0,0.0,0.0,0.0,0.0,0.0,0.0,6.8504,7.6917,8.438,8.8163,9.1765,9.4054,9.407,0.0,0.0,0.0,0.0,0.0,0.0,0.0,8.8124,8.8681,8.6341,8.3999,8.2805,8.7191,9.0188,8.8094,0.0,0.0,8.4075,8.0771,8.0098,8.1768,8.1705,8.1878,8.356,8.444,8.5181,0.0,0.0,0.0,0.0,0.0,0.0,0.0,0.0,0.0,3.8157,3.649,0.0,0.0,0.0,0.0,0.0,0.0,0.0,0.0,0.0,0.0,0.0,6.4675,7.0467,0.0,0.0,0.0,0.0,0.0,0.0,0.0,0.0,0.0,0.0,0.0,0.0,6.7494,7.4728,8.8716,9.5974,9.5886,9.581,9.5485,9.4877,9.4781,9.043,8.1349,0.0,0.0,0.0,0.0,0.0,0.0,0.0,0.0,0.0,0.0,0.0,0.0,0.0,0.0,0.0,0.0,0.0,0.0,0.0,0.0,0.0,0.0,0.0,0.0,0.0,5.2679,0.0,0.0,0.0,0.0,0.0,0.0,0.0,0.0,0.0,0.0,0.0,7.6807,8.2337,8.7101,9.0681,9.2381,9.2438,9.2436,0.0,0.0,0.0,0.0,0.0,0.0,0.0,0.0,0.0,0.0,0.0,0.0,0.0,0.0,8.4623,7.4728,7.1075,7.0019,7.1692,0.0,0.0,0.0,0.0,0.0,0.0,0.0,0.0,0.0,0.0,0.0,0.0,0.0,0.0,0.0,2.6905,0.0,0.0,2.2025,0.0,0.0,0.0,0.0,0.0,0.0,0.0,0.0,0.0,0.0,0.0,0.0,0.0,0.0,0.0,0.0,0.0,0.0,0.0,0.0,0.0,0.0,6.4753,7.2503,8.6746,9.3928,9.3712,9.3672,9.2945,9.1544,9.1376,8.7665,7.9764,0.0,0.0,0.0,0.0,0.0,0.0,0.0,0.0,0.0,0.0,0.0,0.0,0.0,0.0,0.0,0.0,0.0,0.0,0.0,0.0,0.0,0.0,0.0,0.0,0.0,0.0,4.5397,4.9466,5.1288,0.0,0.0,0.0,0.0,0.0,0.0,0.0,0.0,0.0,7.5161,8.0518,8.5338,9.0245,9.0837,9.072,9.1053,8.9625,8.7986,8.6685,8.8938,8.8939,0.0,0.0,0.0,0.0,0.0,0.0,0.0,0.0,0.0,0.0,0.0,0.0,0.0,0.0,0.0,0.0,0.0,0.0,0.0,0.0,0.0,0.0,0.0,0.0,0.0,0.0,0.0,0.0,0.0,0.0,0.0,0.0,0.0,0.0,0.0,0.0,0.0,0.0,0.0,0.0,0.0,0.0,0.0,0.0,0.0,0.0,0.0,0.0,0.0,0.0,0.0,0.0,0.0,0.0,6.4216,7.1095,8.5286,9.253,9.2447,9.2293,9.1965,9.1523,9.14,8.7596,0.0,0.0,0.0,0.0,0.0,0.0,0.0,0.0,0.0,0.0,0.0,0.0,0.0,0.0,0.0,0.0,0.0,0.0,0.0,0.0,0.0,0.0,0.0,0.0,0.0,0.0,0.0,0.0,5.4169,5.4502,5.1194,0.0,0.0,0.0,0.0,0.0,0.0,0.0,0.0,0.0,0.0,8.1925,8.5563,8.5066,8.4717,8.5985,8.4716,8.43,8.6181,8.5433,8.4019,8.2021,0.0,0.0,0.0,0.0,0.0,0.0,0.0,0.0,0.0,0.0,0.0,0.0,0.0,0.0,0.0,0.0,0.0,0.0,0.0,0.0,0.0,0.0,0.0,0.0,0.0,0.0,0.0,0.0,0.0,0.0,0.0,0.0,0.0,0.0,0.0,0.0,0.0,0.0,0.0,0.0,0.0,0.0,0.0,0.0,0.0,0.0,0.0,0.0,0.0,0.0,0.0,0.0,0.0,6.3347,7.0522,8.4063,9.1033,9.0974,9.0813,9.0409,8.9726,8.9577,8.4354,0.0,0.0,0.0,0.0,0.0,0.0,0.0,0.0,0.0,0.0,0.0,0.0,0.0,0.0,0.0,0.0,0.0,0.0,0.0,0.0,0.0,0.0,0.0,0.0,0.0,0.0,0.0,0.0,4.878,5.0537,5.0438,0.0,0.0,0.0,0.0,0.0,0.0,0.0,0.0,0.0,0.0,7.6987,8.0758,8.0348,0.0,0.0,8.1601,8.1056,8.5054,8.4053,8.152,7.7668,7.4107,0.0,0.0,0.0,0.0,0.0,0.0,0.0,0.0,0.0,0.0,0.0,0.0,0.0,0.0,0.0,0.0,0.0,0.0,0.0,0.0,0.0,0.0,0.0,0.0,0.0,0.0,0.0,0.0,0.0,0.0,0.0,0.0,0.0,0.0,0.0,0.0,0.0,0.0,0.0,0.0,0.0,0.0,0.0,0.0,0.0,0.0,0.0,0.0,0.0,0.0,0.0,0.0,6.1973,7.0004,8.253,8.8994,8.8859,8.8917,8.8072,8.642,8.6381,7.8964,0.0,0.0,0.0,0.0,0.0,0.0,0.0,0.0,0.0,0.0,0.0,0.0,0.0,0.0,0.0,0.0,0.0,0.0,0.0,0.0,0.0,0.0,0.0,0.0,0.0,0.0,0.0,0.0,0.0,0.0,0.0,0.0,0.0,0.0,0.0,0.0,0.0,0.0,0.0,0.0,0.0,7.1277,7.6275,7.6591,7.8012,0.0,7.9427,7.7924,8.2649,8.3502,8.0482,7.1161,0.0,0.0,0.0,0.0,0.0,0.0,0.0,0.0,0.0,0.0,0.0,0.0,0.0,0.0,0.0,0.0,0.0,0.0,0.0,0.0,0.0,0.0,0.0,0.0,0.0,0.0,0.0,0.0,0.0,0.0,0.0,0.0,0.0,0.0,0.0,0.0,0.0,0.0,0.0,0.0,0.0,0.0,0.0,0.0,0.0,0.0,0.0,0.0,0.0,0.0,0.0,0.0,0.0,0.0,6.4941,7.7458,8.386,8.372,8.3652,8.3359,8.2952,8.2909,0.0,0.0,0.0,0.0,0.0,0.0,0.0,0.0,0.0,0.0,0.0,0.0,0.0,0.0,0.0,0.0,0.0,0.0,0.0,0.0,0.0,0.0,0.0,0.0,0.0,0.0,0.0,2.5946,0.0,0.0,0.0,0.0,0.0,0.0,0.0,0.0,0.0,0.0,0.0,0.0,0.0,0.0,7.0089,7.6265,7.3845,7.2314,0.0,0.0,7.1867,7.3252,7.5499,7.5834,0.0,0.0,0.0,0.0,0.0,0.0,0.0,0.0,0.0,0.0,0.0,0.0,0.0,0.0,0.0,0.0,0.0,0.0,0.0,0.0,0.0,0.0,0.0,0.0,0.0,0.0,0.0,0.0,0.0,0.0,0.0,0.0,0.0,0.0,0.0,0.0,0.0,0.0,0.0,0.0,0.0,0.0,0.0,0.0,0.0,0.0,0.0,0.0,0.0,0.0,0.0,0.0,0.0,0.0,5.55,6.3084,7.2933,7.9388,8.197,8.2005,8.1908,8.1809,8.1794,7.5486,0.0,0.0,0.0,0.0,0.0,0.0,0.0,0.0,0.0,0.0,0.0,0.0,0.0,0.0,0.0,0.0,0.0,0.0,0.0,0.0,0.0,0.0,0.0,0.0,0.0,0.0,0.0,0.0,0.0,0.0,0.0,0.0,0.0,0.0,0.0,0.0,0.0,0.0,0.0,0.0,0.0,0.0,7.0358,6.7632,0.0,0.0,0.0,6.7458,7.0353,0.0,0.0,0.0,0.0,0.0,0.0,0.0,0.0,0.0,0.0,0.0,0.0,0.0,0.0,0.0,0.0,0.0,0.0,0.0,0.0,0.0,0.0,0.0,0.0,0.0,0.0,0.0,0.0,0.0,0.0,0.0,0.0,0.0,0.0,0.0,0.0,0.0,0.0,0.0,0.0,0.0,0.0,0.0,0.0,0.0,0.0,0.0,0.0,0.0,0.0,0.0,0.0,0.0,0.0,0.0,0.0,0.0,6.2179,6.9667,7.6195,8.1514,8.165,8.1563,8.1536,8.1346,7.48,0.0,0.0,0.0,0.0,0.0,0.0,0.0,0.0,0.0,0.0,0.0,0.0,0.0,0.0,0.0,0.0,0.0,0.0,0.0,0.0,0.0,0.0,0.0,0.0,0.0,0.0,0.0,0.0,0.0,0.0,0.0,0.0,0.0,0.0,0.0,0.0,0.0,0.0,0.0,0.0,0.0,6.5442,6.2846,6.0973,6.0715,0.0,0.0,6.3405,6.9221,6.8677,0.0,0.0,0.0,0.0,0.0,0.0,0.0,0.0,0.0,0.0,0.0,0.0,0.0,0.0,0.0,0.0,0.0,0.0,0.0,0.0,0.0,0.0,0.0,0.0,0.0,0.0,0.0,0.0,0.0,0.0,0.0,0.0,0.0,0.0,0.0,0.0,0.0,0.0,0.0,0.0,0.0,0.0,0.0,0.0,0.0,0.0,0.0,0.0,0.0,0.0,0.0,0.0,0.0,0.0,0.0,0.0,5.7676,7.0181,7.7345,7.8375,7.7296,7.7244,7.841,7.7227,7.2217,0.0,0.0,0.0,0.0,0.0,0.0,0.0,0.0,0.0,0.0,0.0,0.0,0.0,0.0,0.0,0.0,0.0,0.0,0.0,0.0,0.0,0.0,0.0,0.0,0.0,0.0,0.0,0.0,0.0,0.0,0.0,0.0,0.0,0.0,0.0,0.0,0.0,0.0,0.0,0.0,0.0,6.2065,6.3898,6.1731,0.0,0.0,0.0,0.0,5.812,5.6882,0.0,0.0,0.0,0.0,0.0,0.0,0.0,0.0,0.0,0.0,0.0,0.0,0.0,0.0,0.0,0.0,0.0,0.0,0.0,0.0,0.0,0.0,0.0,0.0,0.0,0.0,0.0,0.0,0.0,0.0,0.0,0.0,0.0,0.0,0.0,0.0,0.0,0.0,0.0,0.0,0.0,0.0,0.0,0.0,0.0,0.0,0.0,0.0,0.0,0.0,0.0,0.0,0.0,0.0,0.0,0.0,6.0531,6.8199,7.3489,7.639,7.5762,7.5669,7.6344,7.478,7.0118,0.0,0.0,0.0,0.0,0.0,0.0,0.0,0.0,0.0,0.0,0.0,0.0,0.0,0.0,0.0,0.0,0.0,0.0,0.0,0.0,0.0,0.0,0.0,0.0,0.0,0.0,0.0,0.0,0.0,0.0,0.0,0.0,0.0,0.0,0.0,0.0,0.0,0.0,0.0,0.0,5.5445,5.926,6.0935,0.0,0.0,0.0,0.0,0.0,0.0,5.315,5.0765,0.0,0.0,0.0,0.0,0.0,0.0,0.0,0.0,0.0,0.0,0.0,0.0,0.0,0.0,0.0,0.0,0.0,0.0,0.0,0.0,0.0,0.0,0.0,0.0,0.0,0.0,0.0,0.0,0.0,0.0,0.0,0.0,0.0,0.0,0.0,0.0,0.0,0.0,0.0,0.0,0.0,0.0,0.0,0.0,0.0,0.0,0.0,0.0,0.0,0.0,0.0,0.0,0.0,0.0,0.0,6.3224,6.5378,6.9155,7.4903,7.4835,7.4749,7.4867,7.3187,6.8509,6.0684,0.0,0.0,0.0,0.0,0.0,0.0,0.0,0.0,0.0,0.0,0.0,0.0,0.0,0.0,0.0,0.0,0.0,0.0,0.0,0.0,0.0,0.0,0.0,0.0,0.0,0.0,0.0,0.0,0.0,0.0,0.0,0.0,0.0,0.0,0.0,0.0,0.0,0.0,0.0,5.2259,5.6128,0.0,0.0,0.0,0.0,0.0,0.0,0.0,0.0,4.852,0.0,0.0,0.0,0.0,0.0,0.0,0.0,0.0,0.0,0.0,0.0,0.0,0.0,0.0,0.0,0.0,0.0,0.0,0.0,0.0,0.0,0.0,0.0,0.0,0.0,0.0,0.0,0.0,0.0,0.0,0.0,0.0,0.0,0.0,0.0,0.0,0.0,0.0,0.0,0.0,0.0,0.0,0.0,0.0,0.0,0.0,0.0,0.0,0.0,0.0,0.0,0.0,0.0,0.0,0.0,0.0,6.3115,6.982,7.3375,7.2308,7.2262,7.348,7.2047,6.7326,5.914,0.0,0.0,0.0,0.0,0.0,0.0,0.0,0.0,0.0,0.0,0.0,0.0,0.0,0.0,0.0,0.0,0.0,0.0,0.0,0.0,0.0,0.0,0.0,0.0,0.0,0.0,0.0,0.0,0.0,0.0,0.0,0.0,0.0,0.0,0.0,0.0,0.0,0.0,3.5165,4.4335,0.0,0.0,0.0,0.0,0.0,0.0,0.0,0.0,4.6133,0.0,0.0,0.0,0.0,0.0,0.0,0.0,0.0,0.0,0.0,0.0,0.0,0.0,0.0,0.0,0.0,0.0,0.0,0.0,0.0,0.0,0.0,0.0,0.0,0.0,0.0,0.0,0.0,0.0,0.0,0.0,0.0,0.0,0.0,0.0,0.0,0.0,0.0,0.0,0.0,0.0,0.0,0.0,0.0,0.0,0.0,0.0,0.0,0.0,0.0,0.0,0.0,0.0,0.0,0.0,0.0,0.0,0.0,6.7861,7.185,7.1245,7.1185,7.178,6.8779,6.3946,0.0,0.0,0.0,0.0,0.0,0.0,0.0,0.0,0.0,0.0,0.0,0.0,0.0,0.0,0.0,0.0,0.0,0.0,0.0,0.0,0.0,0.0,0.0,0.0,0.0,0.0,0.0,0.0,0.0,0.0,0.0,0.0,0.0,0.0,0.0,0.0,0.0,0.0,0.0,0.0,0.0,0.0,0.0,0.0,0.0,0.0,0.0,0.0,0.0,0.0,0.0,0.0,0.0,0.0,0.0,0.0,0.0,0.0,0.0,0.0,0.0,0.0,0.0,0.0,0.0,0.0,0.0,0.0,0.0,0.0,0.0,0.0,0.0,0.0,0.0,0.0,0.0,0.0,0.0,0.0,0.0,0.0,0.0,0.0,0.0,0.0,0.0,0.0,0.0,0.0,0.0,0.0,0.0,0.0,0.0,0.0,0.0,0.0,0.0,0.0,0.0,0.0,0.0,0.0,0.0,0.0,0.0,0.0,6.5064,7.021,7.0288,7.0256,7.0217,6.5569,6.044,0.0,0.0,0.0,0.0,0.0,0.0,0.0,0.0,0.0,0.0,0.0,0.0,0.0,0.0,0.0,0.0,0.0,0.0,0.0,0.0,0.0,0.0,0.0,0.0,0.0,0.0,0.0,0.0,0.0,0.0,0.0,0.0,0.0,0.0,0.0,0.0,0.0,0.0,0.0,0.0,0.0,0.0,0.0,0.0,0.0,0.0,0.0,0.0,4.2567,0.0,0.0,0.0,0.0,0.0,0.0,0.0,0.0,0.0,0.0,0.0,0.0,0.0,0.0,0.0,0.0,0.0,0.0,0.0,0.0,0.0,0.0,0.0,0.0,0.0,0.0,0.0,0.0,0.0,0.0,0.0,0.0,0.0,0.0,0.0,0.0,0.0,0.0,0.0,0.0,0.0,0.0,0.0,0.0,0.0,0.0,0.0,0.0,0.0,0.0,0.0,0.0,0.0,0.0,0.0,0.0,0.0,0.0,0.0,6.2258,6.851,6.8648,6.868,6.8537,6.4011,5.7824,0.0,0.0,0.0,0.0,0.0,0.0,0.0,0.0,0.0,0.0,0.0,0.0,0.0,0.0,0.0,0.0,0.0,0.0,0.0,0.0,0.0,0.0,0.0,0.0,0.0,0.0,0.0,0.0,0.0,0.0,0.0,0.0,0.0,0.0,0.0,0.0,0.0,0.0,0.0,0.0,0.0,0.0,0.0,0.0,0.0,0.0,0.0,0.0,0.0,0.0,0.0,0.0,0.0,0.0,0.0,0.0,0.0,0.0,0.0,0.0,0.0,0.0,0.0,0.0,0.0,0.0,0.0,0.0,0.0,0.0,0.0,0.0,0.0,0.0,0.0,0.0,0.0,0.0,0.0,0.0,0.0,0.0,0.0,0.0,0.0,0.0,0.0,0.0,0.0,0.0,0.0,0.0,0.0,0.0,0.0,0.0,0.0,0.0,0.0,0.0,0.0,0.0,0.0,0.0,0.0,0.0,0.0,0.0,5.7686,6.4135,6.6999,6.7075,6.4288,5.864,5.303,0.0,0.0,0.0,0.0,0.0,0.0,0.0,0.0,0.0,0.0,0.0,0.0,0.0,0.0,0.0,0.0,0.0,0.0,0.0,0.0,0.0,0.0,0.0,0.0,0.0,0.0,0.0,0.0,0.0,0.0,0.0,0.0,0.0,0.0,0.0,0.0,0.0,0.0,0.0,0.0,0.0,0.0,0.0,0.0,0.0,0.0,0.0,0.0,0.0,0.0,0.0,0.0,0.0,0.0,0.0,0.0,0.0,0.0,0.0,0.0,0.0,0.0,0.0,0.0,0.0,0.0,0.0,0.0,0.0,0.0,0.0,0.0,0.0,0.0,0.0,0.0,0.0,0.0,0.0,0.0,0.0,0.0,0.0,0.0,0.0,0.0,0.0,0.0,0.0,0.0,0.0,0.0,0.0,0.0,0.0,0.0,0.0,0.0,0.0,0.0,0.0,0.0,0.0,0.0,0.0,0.0,0.0,0.0,0.0,5.9215,6.4461,6.4409,5.8729,5.3137,4.7818,0.0,0.0,0.0,0.0,0.0,0.0,0.0,0.0,0.0,0.0,0.0,0.0,0.0,0.0,0.0,0.0,0.0,0.0,0.0,0.0,0.0,0.0,0.0,0.0,0.0,0.0,0.0,0.0,0.0,0.0,0.0,0.0,0.0,0.0,0.0,0.0,0.0,0.0,0.0,0.0,0.0,0.0,0.0,0.0,0.0,0.0,0.0,0.0,0.0,0.0,0.0,0.0,0.0,0.0,0.0,0.0,0.0,0.0,0.0,0.0,0.0,0.0,0.0,0.0,0.0,0.0,0.0,0.0,0.0,0.0,0.0,0.0,0.0,0.0,0.0,0.0,0.0,0.0,0.0,0.0,0.0,0.0,0.0,0.0,0.0,0.0,0.0,0.0,0.0,0.0,0.0,0.0,0.0,0.0,0.0,0.0,0.0,0.0,0.0,0.0,0.0,0.0,0.0,0.0,0.0,0.0,0.0,0.0,0.0,5.4217,6.0531,5.9893,5.2111,4.8459,4.2334,0.0,0.0,0.0,0.0,0.0,0.0,0.0,0.0,0.0,0.0,0.0,0.0,0.0,0.0,0.0,0.0,0.0,0.0,0.0,0.0,0.0,0.0,0.0,0.0,0.0,0.0,0.0,0.0,0.0,0.0,0.0,0.0,0.0,0.0,0.0,0.0,0.0,0.0,0.0,0.0,0.0,0.0,0.0,0.0,0.0,0.0,0.0,0.0,0.0,0.0,0.0,0.0,0.0,0.0,0.0,0.0,0.0,0.0,0.0,0.0,0.0,0.0,0.0,0.0,0.0,0.0,0.0,0.0,0.0,0.0,0.0,0.0,0.0,0.0,0.0,0.0,0.0,0.0,0.0,0.0,0.0,0.0,0.0,0.0,0.0,0.0,0.0,0.0,0.0,0.0,0.0,0.0,0.0,0.0,0.0,0.0,0.0,0.0,0.0,0.0,0.0,0.0,0.0,0.0,0.0,0.0,0.0,0.0,0.0,3.9092,4.4936,4.7779,4.6807,4.0642,3.6552,3.487,0.0,0.0,0.0,0.0,0.0,0.0,0.0,0.0,0.0,0.0,0.0,0.0,0.0,0.0,0.0,0.0,0.0,0.0,0.0,0.0,0.0,0.0,0.0,0.0,0.0,0.0,0.0,0.0,0.0,0.0,0.0,0.0,0.0,0.0,0.0,0.0,0.0,0.0,0.0,0.0,0.0,0.0,0.0,0.0,0.0,0.0,0.0,0.0,0.0,0.0,0.0,0.0,0.0,0.0,0.0,0.0,0.0,0.0,0.0,0.0,0.0,0.0,0.0,0.0,0.0,0.0,0.0,0.0,0.0,0.0,0.0,0.0,0.0,0.0,0.0,0.0,0.0,0.0,0.0,0.0,0.0,0.0,0.0,0.0,0.0,0.0,0.0,0.0,0.0,0.0,0.0,0.0,0.0,0.0,0.0,0.0,0.0,0.0,0.0,0.0,0.0,0.0,0.0,0.0,0.0,0.0,0.0,0.0,3.1972,3.8177,4.1669,4.1621,3.6306,3.2767,0.0,0.0,0.0,0.0,0.0,0.0,0.0,0.0,0.0,0.0,0.0,0.0,0.0,0.0,0.0,0.0,0.0,0.0,0.0,0.0,0.0,0.0,0.0,0.0,0.0,0.0,0.0,0.0,0.0,0.0,0.0,0.0,0.0,0.0,0.0,0.0,0.0,0.0,0.0,0.0,0.0,0.0,0.0,0.0,0.0,0.0,0.0,0.0,0.0,0.0,0.0,0.0,0.0,0.0,0.0,0.0,0.0,0.0,0.0,0.0,0.0,0.0,0.0,0.0,0.0,0.0,0.0,0.0,0.0,0.0,0.0,0.0,0.0,0.0,0.0,0.0,0.0,0.0,0.0,0.0,0.0,0.0,0.0,0.0,0.0,0.0,0.0,0.0,0.0,0.0,0.0,0.0,0.0,0.0,0.0,0.0,0.0,0.0,0.0,0.0,0.0,0.0,0.0,0.0,0.0,0.0,0.0,0.0,2.5424,3.6064,4.262,4.2868,3.715,3.6541,3.1331,0.0,0.0,0.0,0.0,0.0,0.0,0.0,0.0,0.0,0.0,0.0,0.0,0.0,0.0,0.0,0.0,0.0,0.0,0.0,0.0,0.0,0.0,0.0,0.0,0.0,0.0,0.0,0.0,0.0,0.0,0.0,0.0,0.0,0.0,0.0,0.0,0.0,0.0,0.0,0.0,0.0,0.0,0.0,0.0,0.0,0.0,0.0,0.0,0.0,0.0,0.0,0.0,0.0,0.0,0.0,0.0,0.0,0.0,0.0,0.0,0.0,0.0,0.0,0.0,0.0,0.0,0.0,0.0,0.0,0.0,0.0,0.0,0.0,0.0,0.0,0.0,0.0,0.0,0.0,0.0,0.0,0.0,0.0,0.0,0.0,0.0,0.0,0.0,0.0,0.0,0.0,0.0,0.0,0.0,0.0,0.0,0.0,0.0,0.0,0.0,0.0,0.0,0.0,0.0,0.0,0.0,0.0,0.0,0.0,2.5131,0.0,3.5604,3.9629,3.3682,3.0033,0.0,0.0,0.0,0.0,0.0,0.0,0.0,0.0,0.0,0.0,0.0,0.0,0.0,0.0,0.0,0.0,0.0,0.0,0.0,0.0,0.0,0.0,0.0,0.0,0.0,0.0,0.0,0.0,0.0,0.0,0.0,0.0,0.0,0.0,0.0,0.0,0.0,0.0,0.0,0.0,0.0,0.0,0.0,0.0,0.0,0.0,0.0,0.0,0.0,0.0,0.0,0.0,0.0,0.0,0.0,0.0,0.0,0.0,0.0,0.0,0.0,0.0,0.0,0.0,0.0,0.0,0.0,0.0,0.0,0.0,0.0,0.0,0.0,0.0,0.0,0.0,0.0,0.0,0.0,0.0,0.0,0.0,0.0,0.0,0.0,0.0,0.0,0.0,0.0,0.0,0.0,0.0,0.0,0.0,0.0,0.0,0.0,0.0,0.0,0.0,0.0,0.0,0.0,0.0,0.0,0.0,0.0,0.0,0.0,2.4853,2.691,3.1927,3.9479,3.3473,3.0712,0.0,0.0,0.0,0.0,0.0,0.0,0.0,0.0,0.0,0.0,0.0,0.0,0.0,0.0,0.0,0.0,0.0,0.0,0.0,0.0,0.0,0.0,0.0,0.0,0.0,0.0,0.0,0.0,0.0,0.0,0.0,0.0,0.0,0.0,0.0,0.0,0.0,0.0,0.0,0.0,0.0,0.0,0.0,0.0,0.0,0.0,0.0,0.0,0.0,0.0,0.0,0.0,0.0,0.0,0.0,0.0,0.0,0.0,0.0,0.0,0.0,0.0,0.0,0.0,0.0,0.0,0.0,0.0,0.0,0.0,0.0,0.0,0.0,0.0,0.0,0.0,0.0,0.0,0.0,0.0,0.0,0.0,0.0,0.0,0.0,0.0,0.0,0.0,0.0,0.0,0.0,0.0,0.0,0.0,0.0,0.0,0.0,0.0,0.0,0.0,0.0,0.0,0.0,0.0,0.0,0.0,0.0,0.0,0.0,3.312,3.1064,3.1954,3.6377,3.5228,3.2984,0.0,0.0,0.0,0.0,0.0,0.0,0.0,0.0,0.0,0.0,0.0,0.0,0.0,0.0,0.0,0.0,0.0,0.0,0.0,0.0,0.0,0.0,0.0,0.0,0.0,0.0,0.0,0.0,0.0,0.0,0.0,0.0,0.0,0.0,0.0,0.0,0.0,0.0,0.0,0.0,0.0,0.0,0.0,0.0,0.0,0.0,0.0,0.0,0.0,0.0,0.0,0.0,0.0,0.0,0.0,0.0,0.0,0.0,0.0,0.0,0.0,0.0,0.0,0.0,0.0,0.0,0.0,0.0,0.0,0.0,0.0,0.0,0.0,0.0,0.0,0.0,0.0,0.0,0.0,0.0,0.0,0.0,0.0,0.0,0.0,0.0,0.0,0.0,0.0,0.0,0.0,0.0,0.0,0.0,0.0,0.0,0.0,0.0,0.0,0.0,0.0,0.0,0.0,0.0,0.0,0.0,0.0,0.0,0.0,0.0,2.7756,2.9824,2.9923,2.9431,2.9321,2.959,0.0,0.0,0.0,0.0,0.0,0.0,0.0,0.0,0.0,0.0,0.0,0.0,0.0,0.0,0.0,0.0,0.0,0.0,0.0,0.0,0.0,0.0,0.0,0.0,0.0,0.0,0.0,0.0,0.0,0.0,0.0,0.0,0.0,0.0,0.0,0.0,0.0,0.0,0.0,0.0,0.0,0.0,0.0,0.0,0.0,0.0,0.0,0.0,0.0,0.0,0.0,0.0,0.0,0.0,0.0,0.0,0.0,0.0,0.0,0.0,0.0,0.0,0.0,0.0,0.0,0.0,0.0,0.0,0.0,0.0,0.0,0.0,0.0,0.0,0.0,0.0,0.0,0.0,0.0,0.0,0.0,0.0,0.0,0.0,0.0,0.0,0.0,0.0,0.0,0.0,0.0,0.0,0.0,0.0,0.0,0.0,0.0,0.0,0.0,0.0,0.0,0.0,0.0,0.0,0.0,0.0,0.0,0.0,0.0,0.0,2.787,2.8263,2.8823,2.964,0.0,0.0,0.0,0.0,0.0,0.0,0.0,0.0,0.0,0.0,0.0,0.0,0.0,0.0,0.0,0.0,0.0,0.0,0.0,0.0,0.0,0.0,0.0,0.0,0.0,0.0,0.0,0.0,0.0,0.0,0.0,0.0,0.0,0.0,0.0,0.0,0.0,0.0,0.0,0.0,0.0,0.0,0.0,0.0,0.0,0.0,0.0,0.0,0.0,0.0,0.0,0.0,0.0,0.0,0.0,0.0,0.0,0.0,0.0,0.0,0.0,0.0,0.0,0.0,0.0,0.0,0.0,0.0,0.0,0.0,0.0,0.0,0.0,0.0,0.0,0.0,0.0,0.0,0.0,0.0,0.0,0.0,0.0,0.0,0.0,0.0,0.0,0.0,0.0,0.0,0.0,0.0,0.0,0.0,0.0,0.0,0.0,0.0,0.0,0.0,0.0,0.0,0.0,0.0,0.0,0.0,0.0,0.0,0.0,0.0,0.0,2.6519,2.9006,3.1415,0.0,3.1222,0.0,0.0,0.0,0.0,0.0,0.0,0.0,0.0,0.0,0.0,0.0,0.0,0.0,0.0,0.0,0.0,0.0,0.0,0.0,0.0,0.0,0.0,0.0,0.0,0.0,0.0,0.0,0.0,0.0,0.0,0.0,0.0,0.0,0.0,0.0,0.0,0.0,0.0,0.0,0.0,0.0,0.0,0.0,0.0,0.0,0.0,0.0,0.0,0.0,0.0,0.0,0.0,0.0,0.0,0.0,0.0,0.0,0.0,0.0,0.0,0.0,0.0,0.0,0.0,0.0,0.0,0.0,0.0,0.0,0.0,0.0,0.0,0.0,0.0,0.0,0.0,0.0,0.0,0.0,0.0,0.0,0.0,0.0,0.0,0.0,0.0,0.0,0.0,0.0,0.0,0.0,0.0,0.0,0.0,0.0,0.0,0.0,0.0,0.0,0.0,0.0,0.0,0.0,0.0,0.0,0.0,0.0,0.0,0.0,0.0,0.0,0.0,3.1738,3.1834,2.3107,0.0,0.0,0.0,0.0,0.0,0.0,0.0,0.0,0.0,0.0,0.0,0.0,0.0,0.0,0.0,0.0,0.0,0.0,0.0,0.0,0.0,0.0,0.0,0.0,0.0,0.0,0.0,0.0,0.0,0.0,0.0,0.0,0.0,0.0,0.0,0.0,0.0,0.0,0.0,0.0,0.0,0.0,0.0,0.0,0.0,0.0,0.0,0.0,0.0,0.0,0.0,0.0,0.0,0.0,0.0,0.0,0.0,0.0,0.0,0.0,0.0,0.0,0.0,0.0,0.0,0.0,0.0,0.0,0.0,0.0,0.0,0.0,0.0,0.0,0.0,0.0,0.0,0.0,0.0,0.0,0.0,0.0,0.0,0.0,0.0,0.0,0.0,0.0,0.0,0.0,0.0,0.0,0.0,0.0,0.0,0.0,0.0,0.0,0.0,0.0,0.0,0.0,0.0,0.0,0.0,0.0,0.0,0.0,0.0,0.0,2.935,2.3684,3.0047,2.9263,2.0189,0.0,0.0,0.0,0.0,0.0,0.0,0.0,0.0,0.0,0.0,0.0,0.0,0.0,0.0,0.0,0.0,0.0,0.0,0.0,0.0,0.0,0.0,0.0,0.0,0.0,0.0,0.0,0.0,0.0,0.0,0.0,0.0,0.0,0.0,0.0,0.0,0.0,0.0,0.0,0.0,0.0,0.0,0.0,0.0,0.0,0.0,0.0,0.0,0.0,0.0,0.0,0.0,0.0,0.0,0.0,0.0,0.0,0.0,0.0,0.0,0.0,0.0,0.0,0.0,0.0,0.0,0.0,0.0,0.0,0.0,0.0,0.0,0.0,0.0,0.0,0.0,0.0,0.0,0.0,0.0,0.0,0.0,0.0,0.0,0.0,0.0,0.0,0.0,0.0,0.0,0.0,0.0,0.0,0.0,0.0,0.0,0.0,0.0,0.0,0.0,0.0,0.0,0.0,0.0,0.0,0.0,0.0,0.0,0.0,0.0,0.0,0.0,0.0,0.0,2.113,0.0,0.0,0.0,0.0,0.0,0.0,0.0,0.0,0.0,0.0,0.0,0.0,0.0,0.0,0.0,0.0,0.0,0.0,0.0,0.0,0.0,0.0,0.0,0.0,0.0,0.0,0.0,0.0,0.0,0.0,0.0,0.0,0.0,0.0,0.0,0.0,0.0,0.0,0.0,0.0,0.0,0.0,0.0,0.0,0.0,0.0,0.0,0.0,0.0,0.0,0.0,0.0,0.0,0.0,0.0,0.0,0.0,0.0,0.0,0.0,0.0,0.0,0.0,0.0,0.0,0.0,0.0,0.0,0.0,0.0,0.0,0.0,0.0,0.0,0.0,0.0,0.0,0.0,0.0,0.0,0.0,0.0,0.0,0.0,0.0,0.0,0.0,0.0,0.0,0.0,0.0,0.0,0.0,0.0,0.0,0.0,0.0,0.0,0.0,0.0,0.0,0.0,0.0,0.0,0.0,0.0,0.0,0.0,0.0,0.0,0.0,0.0,0.0,0.0,0.0,0.0,0.0,0.0,0.0,0.0,0.0,0.0,0.0,0.0,0.0,0.0,0.0,0.0,0.0,0.0,0.0,0.0,0.0,0.0,0.0,0.0,0.0,0.0,0.0,0.0,0.0,0.0,0.0,0.0,0.0,0.0,0.0,0.0,0.0,0.0,0.0,0.0,0.0,0.0,0.0,0.0,0.0,0.0,0.0,0.0,0.0,0.0,0.0,0.0,0.0,0.0,0.0,0.0,0.0,0.0,0.0,0.0,0.0,0.0,0.0,0.0,0.0,0.0,0.0,0.0,0.0,0.0,0.0,0.0,0.0,0.0,0.0,0.0,0.0,0.0,0.0,0.0,0.0,0.0,0.0,0.0,0.0,0.0,0.0,0.0,0.0,0.0,0.0,0.0,0.0,0.0,0.0,0.0,0.0,0.0,0.0,0.0,0.0,0.0,0.0,0.0,0.0,0.0,0.0,0.0,0.0,0.0,0.0,0.0,0.0,0.0,0.0,0.0,0.0,0.0,0.0,0.0,0.0,0.0,0.0,0.0,0.0,0.0,0.0,0.0,0.0,0.0,0.0,0.0,0.0,0.0,0.0,0.0,0.0,0.0,0.0,0.0,0.0,0.0,0.0,0.0,0.0,0.0,0.0,0.0,0.0,0.0,0.0,0.0,0.0,0.0,0.0,0.0,0.0,0.0,0.0,0.0,0.0,0.0,0.0,0.0,0.0,0.0,0.0,0.0,0.0,0.0,0.0,0.0,0.0,0.0,0.0,0.0,0.0,0.0,0.0,0.0,0.0,0.0,0.0,0.0,0.0,0.0,0.0,0.0,0.0,0.0,0.0,0.0,0.0,0.0,0.0,0.0,0.0,0.0,0.0,0.0,0.0,0.0,0.0,0.0,0.0,0.0,0.0,0.0,0.0,0.0,0.0,0.0,0.0,0.0,0.0,0.0,0.0,0.0,0.0,0.0,0.0,0.0,0.0,0.0,0.0,0.0,0.0,0.0,0.0,0.0,0.0,0.0,0.0,0.0,0.0,0.0,0.0,0.0,0.0,0.0,0.0,0.0,0.0,0.0,0.0,0.0,0.0,0.0,0.0,0.0,0.0,0.0,0.0,0.0,0.0,0.0,0.0,0.0,0.0,0.0,0.0,0.0,0.0,0.0,0.0,0.0,0.0,0.0,0.0,0.0,0.0,0.0,0.0,0.0,0.0,0.0,0.0,0.0,0.0,0.0,0.0,0.0,0.0,0.0,0.0,0.0,0.0,0.0,0.0,0.0,0.0,0.0,0.0,0.0,0.0,0.0,0.0,0.0,0.0,0.0,0.0,0.0,0.0,0.0,0.0,0.0,0.0,0.0,0.0,0.0,0.0,0.0,0.0,0.0,0.0,0.0,0.0,0.0,0.0,0.0,0.0,0.0,0.0,0.0,0.0,0.0,0.0,0.0,0.0,0.0,0.0,0.0,0.0,0.0,0.0,0.0,0.0,0.0,0.0,0.0,0.0,0.0,0.0,0.0,0.0,0.0,0.0,0.0,0.0,0.0,0.0,0.0,0.0,0.0,0.0,0.0,0.0,0.0,0.0,0.0,0.0,0.0,0.0,0.0,0.0,0.0,0.0,0.0,0.0,0.0,0.0,0.0,0.0,0.0,0.0,0.0,0.0,0.0,0.0,0.0,0.0,0.0,0.0,0.0,0.0,0.0,0.0,0.0,0.0,0.0,0.0,0.0,0.0,0.0,0.0,0.0,0.0,0.0,0.0,0.0,0.0,0.0,0.0,0.0,0.0,0.0,0.0,0.0,0.0,0.0,0.0,0.0,0.0,0.0,0.0,0.0,0.0,0.0,0.0,0.0,0.0,0.0,0.0,0.0,0.0,0.0,0.0,0.0,0.0,0.0,0.0,0.0,0.0,0.0,0.0,0.0,0.0,0.0,0.0,0.0,0.0,0.0,0.0,0.0,0.0,0.0,0.0,0.0,0.0,0.0,0.0,0.0,0.0,0.0,0.0,0.0,0.0,0.0,0.0,0.0,0.0,0.0,0.0,0.0,0.0,0.0,0.0,0.0,0.0,0.0,0.0,0.0,0.0,0.0,0.0,0.0,0.0,0.0,0.0,0.0,0.0,0.0,0.0,0.0,0.0,0.0,0.0,0.0,0.0,0.0,0.0,0.0,0.0,0.0,0.0,0.0,0.0,0.0,0.0,0.0,0.0,0.0,0.0,0.0,0.0,0.0,0.0,0.0,0.0,0.0,0.0,0.0,0.0,0.0,0.0,0.0,0.0,0.0,0.0,0.0,0.0,0.0,0.0,0.0,0.0,0.0,0.0,0.0,0.0,0.0,0.0,0.0,0.0,0.0,0.0,0.0,0.0,0.0,0.0,0.0,0.0,0.0,0.0,0.0,0.0,0.0,0.0,0.0,0.0,0.0,0.0,0.0,0.0,0.0,0.0,0.0,0.0,0.0,0.0,0.0,0.0,0.0,0.0,0.0,0.0,0.0,0.0,0.0,0.0,0.0,0.0,0.0,0.0,0.0,0.0,0.0,0.0,0.0,0.0,0.0,0.0,0.0,0.0,0.0,0.0,0.0,0.0,0.0,0.0,0.0,0.0,0.0,0.0,0.0,0.0,0.0,0.0,0.0,0.0,0.0,0.0,0.0,0.0,0.0,0.0,0.0,0.0,0.0,0.0,0.0,0.0,0.0,0.0,0.0,0.0,0.0,0.0,0.0,0.0,0.0,0.0,0.0,0.0,0.0,0.0,0.0,0.0,0.0,0.0,0.0,0.0,0.0,0.0,0.0,0.0,0.0,0.0,0.0,0.0,0.0,0.0,0.0,0.0,0.0,0.0,0.0,0.0,0.0,0.0,0.0,0.0,0.0,0.0,0.0,0.0,0.0,0.0,0.0,0.0,0.0,0.0,0.0,0.0,0.0,0.0,0.0,0.0,0.0,0.0,0.0,0.0,0.0,0.0,0.0,0.0,0.0,0.0,0.0,0.0,0.0,0.0,0.0,0.0,0.0,0.0,0.0,0.0,0.0,0.0,0.0,0.0,0.0,0.0,0.0,0.0,0.0,0.0,0.0,0.0,0.0,0.0,0.0,0.0,0.0,0.0,0.0,0.0,0.0,0.0,0.0,0.0,0.0,0.0,0.0,0.0,0.0,0.0,0.0,0.0,0.0,0.0,0.0,0.0,0.0,0.0,0.0,0.0,0.0,0.0,0.0,0.0,0.0,0.0,0.0,0.0,0.0,0.0,0.0,0.0,0.0,0.0,0.0,0.0,0.0,0.0,0.0,0.0,0.0,0.0,0.0,0.0,0.0,0.0,0.0,0.0,0.0,0.0,0.0,0.0,0.0,0.0,0.0,0.0,0.0,0.0,0.0,0.0,0.0,0.0,0.0,0.0,0.0,0.0,0.0,0.0,0.0,0.0,0.0,0.0,0.0,0.0,0.0,0.0,0.0,0.0,0.0,0.0,0.0,0.0,0.0,0.0,0.0,0.0,0.0,0.0,0.0,0.0,0.0,0.0,0.0,0.0,0.0,0.0,0.0,0.0,0.0,0.0,0.0,0.0,0.0,0.0,0.0,0.0,0.0,0.0,0.0,0.0,0.0,0.0,0.0,0.0,0.0,0.0,0.0,0.0,0.0,0.0,0.0,0.0,0.0,0.0,0.0,0.0,0.0,0.0,0.0,0.0,0.0,0.0,0.0,0.0,0.0,0.0,0.0,0.0,0.0,0.0,0.0,0.0,0.0,0.0,0.0,0.0,0.0,0.0,0.0,0.0,0.0,0.0,0.0,0.0,0.0,0.0,0.0,0.0,0.0,0.0,0.0,0.0,0.0,0.0,0.0,0.0,0.0,0.0,0.0]}],[{"header":{"parameterUnit":"kt","parameterCategory":2,"dx":1,"dy":1,"la1":29.587661999999998,"la2":31.0,"lo1":-88.76705300000003,"lo2":-86.6583820000003,"nx":115,"ny":88,"refTime":"2022-10-11T00:00:00:Z","depth":0,"parameterNumber":2,"parameterNumberName":"V-component_of_WINDS"},"data":[3.5763,3.5763,3.5763,3.5763,3.5763,3.5763,3.5763,3.5763,3.5763,3.5763,3.5763,3.5763,3.5763,3.5763,3.5763,3.5763,3.5763,3.5774,3.6348,3.6923,3.6999,3.7603,3.8138,3.8366,3.805,3.799,3.8012,3.7991,3.8088,3.87,3.8899,3.8349,3.8775,3.8332,3.7329,3.7208,3.7309,3.733,3.7309,3.7309,3.7257,3.7006,3.6929,3.6856,3.6866,3.6926,3.7006,3.6992,3.7062,3.7119,3.7104,3.6432,3.579,3.5287,3.4916,3.4339,3.4022,3.3818,3.3726,3.3744,3.3808,3.3808,3.3808,3.3808,3.3808,3.3808,3.3808,3.3808,3.3808,3.3808,3.3808,3.3808,3.3808,3.3808,3.3808,3.3808,3.3808,3.3808,3.3808,3.3808,3.3808,3.3808,3.3808,3.3808,3.3808,3.3808,3.3808,3.3808,3.3808,3.3808,3.3808,3.3818,3.3818,3.3808,3.3799,3.361,3.1294,2.3592,1.7009,1.31,1.089,1.1045,1.1582,1.2054,1.2228,1.2399,1.1015,0.9724,0.9797,0.9988,0.9892,0.9781,0.9724,0.9724,0.9724,3.5763,3.5763,3.5763,3.5763,3.5763,3.5763,3.5763,3.5763,3.5763,3.5763,3.5831,3.5797,3.5763,3.5763,3.5763,3.5763,3.5763,3.5763,3.5805,3.6275,3.6818,3.7441,3.7906,3.8248,3.8538,3.8667,3.8588,3.8489,3.843,3.8834,3.8963,3.8458,3.821,3.7998,3.7403,3.7114,3.6999,3.6947,3.6936,3.7041,3.6769,3.6393,3.617,3.5997,3.5955,3.6177,3.6491,3.6679,3.6808,3.6654,3.6198,3.6061,3.585,3.5078,3.4662,3.4422,3.4111,3.3699,3.3524,3.3653,3.3763,3.3808,3.3808,3.3808,3.3808,3.3808,3.3808,3.3808,3.3808,3.3808,3.3808,3.3808,3.3808,3.3808,3.3808,3.3808,3.3808,3.3808,3.3808,3.3808,3.3808,3.3808,3.3808,3.3808,3.3808,3.3808,3.3808,3.3808,3.3808,3.3808,3.3808,3.3808,3.3808,3.3818,3.3827,3.2925,3.1415,2.4316,1.8998,1.3933,1.0928,1.3258,1.4369,1.3804,1.3098,1.3159,1.2057,1.0898,1.033,1.0365,1.0254,1.0121,1.0219,1.0694,1.0295,3.5763,3.5763,3.5763,3.5763,3.5763,3.5763,3.5763,3.5763,3.5763,3.6002,3.6342,3.5968,3.5763,3.5763,3.5763,3.5763,3.5763,3.578,3.5953,3.6194,3.6745,3.7373,3.7805,3.8279,3.8905,3.9454,3.9224,3.8878,3.8849,3.9084,3.9092,3.877,3.8118,3.7672,3.7075,3.656,3.632,3.64,3.632,3.631,3.6226,3.6038,3.5815,3.5763,3.5794,3.5868,3.6097,3.6132,3.624,3.6005,3.5816,3.6044,3.5805,3.5059,3.4627,3.4444,3.4116,3.3634,3.3488,3.3561,3.3799,3.3808,3.3808,3.3808,3.3808,3.3808,3.3808,3.3808,3.3808,3.3808,3.3808,3.3808,3.3808,3.3808,3.3808,3.3808,3.3808,3.3808,3.3808,3.3808,3.3808,3.3808,3.3808,3.3808,3.3808,3.3808,3.3808,3.3808,3.3808,3.3808,3.3808,3.3808,3.3808,3.3818,3.3808,3.2658,3.1326,2.695,2.1624,1.5828,1.076,1.4366,1.7462,1.7599,1.7116,1.5621,1.4009,1.3041,1.2396,1.2396,1.1734,1.092,1.1436,1.2143,1.1155,3.5763,3.5763,3.5763,3.591,3.6019,3.5848,3.5968,3.6297,3.6325,3.6604,3.6767,3.6325,3.5985,3.5814,3.5763,3.5763,3.5865,3.604,3.6319,3.6563,3.7337,3.8244,3.8832,3.9098,3.9676,4.0121,3.9898,3.9236,3.9471,3.9313,3.9154,3.8972,3.8312,3.7581,3.6952,3.6207,3.5926,3.5951,3.593,3.593,3.5892,3.5815,3.5763,3.5763,3.5763,3.5812,3.5822,3.5822,3.5784,3.5763,3.5763,3.5739,3.5686,3.5179,3.4689,3.422,3.3703,3.3349,3.3212,3.3359,3.357,3.3644,3.3744,3.3781,3.3808,3.3808,3.3808,3.3808,3.3808,3.3808,3.3808,3.3808,3.3808,3.3808,3.3808,3.3808,3.3808,3.3808,3.3808,3.3808,3.3808,3.3808,3.3808,3.3808,3.3808,3.3808,3.3808,3.3808,3.3808,3.3808,3.3808,3.3808,3.3808,3.3818,3.3817,3.3177,3.284,2.9271,2.3109,1.6867,1.0668,1.261,1.4764,1.7679,2.0207,1.8162,1.6321,1.5336,1.5086,1.5275,1.4783,1.4028,1.4225,1.4927,1.3092,3.5763,3.5763,3.5763,3.6121,3.6655,3.6114,3.6614,3.786,3.7809,3.7527,3.7029,3.6859,3.6376,3.5831,3.5763,3.5763,3.5899,3.641,3.6751,3.6906,3.7894,3.8911,3.9612,4.0281,4.0543,4.071,4.0555,4.0116,4.0325,3.9924,3.9397,3.9051,3.8327,3.7721,3.7022,3.6268,3.5808,3.5763,3.5763,3.5763,3.5763,3.5763,3.5763,3.5763,3.5763,3.5763,3.5763,3.5763,3.5763,3.5763,3.5695,3.549,3.5023,3.4421,3.3925,3.3474,3.3182,3.2914,3.2863,3.3047,3.323,3.3414,3.3579,3.3653,3.3643,3.3625,3.3597,3.3588,3.3561,3.3561,3.3616,3.3643,3.3736,3.3791,3.3653,3.3524,3.3616,3.3754,3.3745,3.3708,3.3717,3.3808,3.3808,3.3808,3.3808,3.3808,3.3808,3.3808,3.3808,3.3808,3.3808,3.3808,3.3808,3.3818,3.3808,3.3808,3.3806,3.0614,2.4154,1.7885,1.186,1.132,1.2338,1.6577,2.0747,1.9363,1.8974,1.7949,1.749,1.7906,1.7887,1.7116,1.7343,1.8138,1.7273,3.5763,3.5763,3.5763,3.5916,3.624,3.641,3.7623,3.9011,3.8487,3.7968,3.7589,3.7137,3.6495,3.5848,3.5763,3.5791,3.5859,3.6604,3.7029,3.7264,3.7963,3.9171,3.9758,4.018,4.1093,4.1548,4.1481,4.0971,4.0927,4.0398,3.9828,3.949,3.7962,3.764,3.7198,3.6427,3.5865,3.5763,3.5763,3.5763,3.5763,3.5763,3.5763,3.5763,3.5763,3.5763,3.5763,3.5763,3.5763,3.5763,3.5763,3.5627,3.5375,3.5291,3.5041,3.3756,3.3145,3.2574,3.2458,3.2688,3.2955,3.3176,3.3377,3.3359,3.3295,3.3332,3.3295,3.324,3.3231,3.3285,3.3368,3.3469,3.3588,3.3689,3.345,3.3184,3.3402,3.362,3.3623,3.357,3.3607,3.3707,3.3808,3.3808,3.3808,3.3808,3.3808,3.3808,3.3808,3.3808,3.3808,3.3808,3.3808,3.3808,3.3818,3.3817,3.3816,3.1722,2.4365,1.7324,1.3065,1.2061,1.5437,1.845,2.1041,2.2124,2.262,2.1296,2.021,2.0738,2.0958,2.1381,2.2109,2.2166,2.1718,3.5934,3.5763,3.5763,3.5899,3.6172,3.6916,3.8379,3.9985,3.9208,3.8391,3.8069,3.7459,3.6689,3.5825,3.5763,3.5763,3.6172,3.6689,3.7096,3.7835,3.8767,3.9808,4.0455,4.0882,4.1713,4.2227,4.2107,4.1455,4.138,4.0566,4.0094,3.9806,3.8481,3.7781,3.7232,3.6417,3.6002,3.5763,3.5763,3.5763,3.5763,3.5763,3.5763,3.5763,3.5763,3.5763,3.5763,3.5763,3.5763,3.5763,3.5763,3.5763,3.5729,3.5856,3.5597,3.425,3.3161,3.2356,3.2199,3.2356,3.2578,3.278,3.2854,3.2707,3.2817,3.2864,3.2839,3.2694,3.2594,3.2892,3.3074,3.2966,3.292,3.282,3.254,3.2566,3.298,3.3198,3.3346,3.3276,3.3222,3.3377,3.3772,3.3808,3.3808,3.3808,3.3808,3.3808,3.3808,3.3808,3.3808,3.3808,3.3808,3.3808,3.3808,3.3808,3.3807,3.2143,2.2224,1.4266,1.3507,1.549,1.8615,2.0543,2.1343,2.2978,2.492,2.4902,2.3536,2.3886,2.3886,2.5511,2.6637,2.5807,2.5205,3.6434,3.5831,3.5763,3.6206,3.6944,3.7629,3.8814,4.0154,4.012,3.9327,3.8131,3.7906,3.7018,3.5968,3.5814,3.5865,3.6138,3.7419,3.7877,3.8509,3.954,4.0602,4.1421,4.1859,4.2326,4.2774,4.2693,4.1953,4.1678,4.0878,4.0035,3.943,3.8803,3.8012,3.7164,3.641,3.6002,3.5797,3.5763,3.5763,3.5763,3.5763,3.5763,3.5763,3.5763,3.5763,3.5763,3.5763,3.5763,3.5763,3.5763,3.5763,3.5593,3.5211,3.4503,3.3616,3.2555,3.2213,3.2108,3.2146,3.2295,3.22,3.2192,3.2349,3.2477,3.2578,3.2366,3.2133,3.2113,3.2445,3.2688,3.2499,3.2319,3.2097,3.1784,3.2033,3.2478,3.2686,3.2851,3.2964,3.2885,3.3213,3.3652,3.3808,3.3808,3.3808,3.3808,3.3808,3.3808,3.3808,3.3808,3.3808,3.3808,3.3808,3.3808,3.3808,3.3808,3.3788,2.3145,1.6024,1.7498,1.9149,2.0706,2.1602,2.196,2.2909,2.4668,2.5531,2.5917,2.625,2.5959,2.7082,2.7365,2.7232,2.7387,3.6451,3.5808,3.5763,3.6223,3.6995,3.7764,3.891,4.0069,4.017,3.9416,3.8306,3.8018,3.717,3.628,3.6246,3.6519,3.6689,3.8024,3.8735,3.8938,4.0037,4.0741,4.1343,4.1766,4.2347,4.2653,4.26,4.2341,4.1825,4.1266,4.0591,3.9776,3.8876,3.8029,3.7266,3.6621,3.6212,3.5831,3.5763,3.5763,3.5763,3.5763,3.5763,3.5763,3.5763,3.5763,3.5763,3.5763,3.5763,3.5763,3.5763,3.5763,3.5729,3.5422,3.4842,3.4175,3.3354,3.3223,3.2529,3.2327,3.206,3.1792,3.1969,3.2007,3.1943,3.2191,3.1902,3.1742,3.1744,3.2113,3.245,3.1962,3.1831,3.1785,3.159,3.16,3.1914,3.1951,3.208,3.2429,3.2553,3.314,3.3616,3.368,3.3754,3.3781,3.3808,3.3808,3.3808,3.3808,3.3808,3.3808,3.3808,3.3808,3.3808,3.3808,3.379,3.3752,2.7432,1.9793,2.0572,2.139,2.2151,2.294,2.3586,2.4319,2.5236,2.5875,2.6552,2.7046,2.7343,2.7613,2.7915,2.8082,2.8272,3.6706,3.5763,3.5763,3.6376,3.7317,3.7849,3.8881,4.0086,4.0137,3.9433,3.8323,3.8086,3.7232,3.641,3.6461,3.691,3.7164,3.8374,3.9096,3.9169,3.9902,4.0465,4.0955,4.1477,4.193,4.24,4.2565,4.2359,4.2024,4.1589,4.1054,4.0311,3.925,3.8074,3.7436,3.6638,3.6366,3.5865,3.5763,3.5763,3.5763,3.5763,3.5763,3.5763,3.5763,3.5763,3.5763,3.5763,3.5763,3.5763,3.5763,3.5763,3.5746,3.5746,3.5183,3.4517,3.3919,3.3875,3.3214,3.2485,3.2169,3.1815,3.1721,3.1722,3.1583,3.1768,3.1701,3.1579,3.1581,3.1754,3.2128,3.1695,3.1569,3.1508,3.1498,3.1487,3.1501,3.1501,3.1585,3.1971,3.2078,3.2565,3.3221,3.3422,3.357,3.3644,3.3754,3.3781,3.3808,3.3808,3.3808,3.3808,3.3808,3.3808,3.3808,3.3808,3.3799,3.378,2.9423,2.4181,2.3295,2.3689,2.4141,2.3881,2.4902,2.5884,2.6013,2.6286,2.706,2.7657,2.7876,2.813,2.8307,2.8541,2.8721,3.7181,3.5831,3.5763,3.6638,3.7832,3.7956,3.8763,3.9997,4.0182,3.9433,3.8205,3.8086,3.7232,3.6229,3.6774,3.7147,3.7453,3.8549,3.9237,3.9406,3.9975,4.044,4.0843,4.116,4.1613,4.2371,4.2576,4.2565,4.2494,4.193,4.143,4.0686,3.9737,3.8724,3.7951,3.657,3.5831,3.5763,3.5763,3.5763,3.5763,3.5763,3.5763,3.5763,3.5763,3.5763,3.5763,3.5763,3.5763,3.5763,3.5763,3.5763,3.5763,3.5763,3.5422,3.4781,3.421,3.3833,3.3542,3.2906,3.2323,3.1811,3.159,3.1592,3.152,3.152,3.1523,3.1526,3.1494,3.1547,3.1529,3.1501,3.151,3.1487,3.1506,3.1501,3.1501,3.1501,3.1612,3.1852,3.179,3.1814,3.2571,3.3153,3.332,3.3432,3.3625,3.3781,3.3799,3.3808,3.3808,3.3808,3.3808,3.3808,3.3808,3.3808,3.3818,3.3808,3.2188,2.9854,2.8551,2.722,2.5852,2.4888,2.5671,2.6833,2.6882,2.6788,2.7544,2.8321,2.8472,2.8528,2.866,2.8734,2.8592,3.7198,3.5842,3.5763,3.6359,3.7289,3.7832,3.8571,3.9411,3.998,3.9445,3.812,3.8035,3.7232,3.6512,3.7062,3.7707,3.8063,3.9062,3.9664,3.9917,4.0047,4.0264,4.0555,4.089,4.1319,4.1936,4.233,4.2594,4.2571,4.2059,4.1577,4.0985,4.0231,3.9085,3.7979,3.657,3.578,3.5763,3.5763,3.5763,3.5763,3.5763,3.5763,3.5763,3.5763,3.5763,3.5763,3.5763,3.5763,3.5763,3.5763,3.5763,3.5763,3.5678,3.5412,3.5139,3.4876,3.462,3.3919,3.3327,3.2967,3.2144,3.1775,3.1526,3.1501,3.1501,3.1501,3.1501,3.1501,3.1501,3.151,3.1501,3.1501,3.1501,3.1501,3.1501,3.1501,3.1501,3.163,3.1705,3.1626,3.1607,3.2261,3.2649,3.2643,3.251,3.292,3.3341,3.3589,3.3818,3.3809,3.3808,3.3808,3.3808,3.3808,3.3808,3.3818,3.3818,3.354,3.2464,3.1637,3.0488,2.8952,2.7518,2.7163,2.7817,2.8098,2.8154,2.8551,2.893,2.8917,2.8912,2.9,2.8912,2.8685,3.7374,3.6178,3.5865,3.6393,3.7453,3.7917,3.8639,3.9524,4.0002,3.9698,3.8926,3.8272,3.7334,3.6825,3.7555,3.8086,3.8289,3.9568,4.0036,4.0221,4.0221,4.0221,4.0292,4.0597,4.0985,4.149,4.2007,4.2312,4.2494,4.2048,4.1589,4.1122,4.0426,3.9285,3.8119,3.691,3.6155,3.5916,3.5763,3.5763,3.5763,3.5763,3.5763,3.5763,3.5763,3.5763,3.5763,3.5763,3.5763,3.5763,3.5763,3.5763,3.5763,3.5763,3.5576,3.5327,3.5156,3.5013,3.4534,3.4234,3.3567,3.27,3.192,3.1501,3.1501,3.1501,3.1501,3.1501,3.1501,3.1501,3.1501,3.1501,3.1501,3.1501,3.1501,3.1501,3.1501,3.1501,3.1566,3.1602,3.1532,3.1512,3.1816,3.2175,3.1908,3.1723,3.2363,3.2964,3.3478,3.3818,3.3827,3.3808,3.3808,3.3808,3.3808,3.3808,3.3808,3.3808,3.3799,3.2937,3.2112,3.137,3.0626,2.9945,2.9245,2.8871,2.8845,2.9301,2.9351,2.9117,2.9104,2.9189,2.9189,2.9163,2.9033,3.7673,3.6944,3.6172,3.6631,3.7798,3.8018,3.8831,3.9749,4.0103,4.0187,3.9833,3.8746,3.7696,3.7266,3.7629,3.8086,3.8137,3.9529,4.0047,4.0199,4.0221,4.0221,4.0245,4.0355,4.0596,4.1096,4.149,4.2042,4.2312,4.1936,4.1614,4.1462,4.0171,3.9119,3.8004,3.7062,3.6451,3.5882,3.5763,3.5763,3.5763,3.5763,3.5763,3.5763,3.5763,3.5763,3.5763,3.5763,3.5763,3.5763,3.5763,3.5763,3.5763,3.5763,3.5763,3.5542,3.5371,3.532,3.532,3.4979,3.408,3.2992,3.2281,3.2084,3.1775,3.163,3.1501,3.1501,3.1501,3.1501,3.1501,3.1501,3.1501,3.1501,3.1501,3.1501,3.1501,3.1501,3.1501,3.1501,3.1504,3.1491,3.1741,3.1949,3.1809,3.1609,3.2141,3.2416,3.301,3.3524,3.3598,3.368,3.3708,3.379,3.3799,3.3808,3.3808,3.3808,3.3808,3.3225,3.2511,3.1806,3.1035,3.0438,3.0055,2.957,2.9282,2.9636,2.9748,2.9413,2.9189,2.9189,2.9189,2.9189,2.9189,3.7984,3.773,3.695,3.6495,3.6434,3.7645,3.8272,3.8695,3.9703,4.0221,3.9951,3.9231,3.8063,3.7334,3.7713,3.8063,3.8131,3.8972,3.9642,4.0081,4.0221,4.0221,4.0221,4.0273,4.0525,4.1013,4.1196,4.1695,4.1936,4.1595,4.0828,4.0268,3.9555,3.8456,3.7516,3.6944,3.6519,3.5831,3.5763,3.5763,3.5763,3.5763,3.5763,3.5763,3.5763,3.5763,3.5763,3.5763,3.5763,3.5763,3.5763,3.5763,3.5763,3.5763,3.5763,3.5712,3.561,3.5576,3.5593,3.5542,3.5098,3.449,3.3943,3.3207,3.2487,3.1741,3.1501,3.1501,3.1501,3.1501,3.1501,3.1501,3.1501,3.1501,3.1501,3.1501,3.1501,3.1501,3.1501,3.1501,3.1501,3.1501,3.159,3.1768,3.1736,3.1547,3.1651,3.1898,3.2425,3.3018,3.3175,3.3332,3.3478,3.3735,3.3772,3.3818,3.3808,3.3808,3.3808,3.3438,3.2771,3.2084,3.1546,3.122,3.0864,3.0361,2.9767,3.0017,3.0204,2.985,2.9525,2.9375,2.9357,2.9189,2.9189,3.8317,3.7956,3.7238,3.6672,3.641,3.7164,3.7883,3.8537,3.936,3.9929,4.0086,3.971,3.8955,3.8108,3.7928,3.7962,3.786,3.865,3.9338,3.9659,4.0064,4.0221,4.0221,4.0273,4.0332,4.0673,4.0972,4.1442,4.1479,4.1095,4.0447,3.9895,3.9062,3.8037,3.7106,3.6631,3.6206,3.5934,3.5763,3.5763,3.5763,3.5763,3.5763,3.5763,3.5763,3.5763,3.5763,3.5763,3.5763,3.5763,3.5763,3.5763,3.5763,3.5763,3.5763,3.5763,3.5763,3.5763,3.5763,3.5763,3.5354,3.4951,3.4651,3.4268,3.3214,3.2384,3.1895,3.1561,3.1509,3.1501,3.1501,3.1501,3.1501,3.1501,3.1501,3.1501,3.1501,3.1501,3.1501,3.1501,3.1501,3.1501,3.1537,3.1635,3.1601,3.1507,3.16,3.1802,3.2166,3.2585,3.2787,3.2973,3.3286,3.3616,3.3671,3.379,3.3781,3.368,3.368,3.3605,3.2994,3.2623,3.2252,3.1897,3.1497,3.1013,3.0483,3.0558,3.0893,3.0465,2.9924,3.0204,3.0454,3.0129,2.9562,3.869,3.7889,3.7334,3.6944,3.6774,3.6876,3.7724,3.8848,3.9034,3.9524,4.0221,4.0137,3.9783,3.9124,3.8571,3.7877,3.7775,3.8458,3.9068,3.9575,3.9997,4.0221,4.0221,4.0221,4.028,4.0379,4.0725,4.0867,4.0681,4.0619,4.0182,3.9339,3.8451,3.7842,3.6657,3.62,3.578,3.578,3.5763,3.5763,3.5763,3.5763,3.5763,3.5763,3.5763,3.5763,3.5763,3.5763,3.5763,3.5763,3.5763,3.5763,3.5763,3.5763,3.5763,3.5763,3.5763,3.5763,3.5763,3.5763,3.5524,3.5173,3.502,3.4534,3.3892,3.319,3.2641,3.1827,3.1517,3.1509,3.1501,3.1501,3.1501,3.1501,3.1501,3.1501,3.1501,3.1501,3.1501,3.1501,3.1501,3.1501,3.1501,3.1501,3.1501,3.1501,3.1538,3.1705,3.1942,3.2191,3.241,3.2649,3.2946,3.3295,3.3442,3.3689,3.3662,3.3514,3.3643,3.3753,3.3419,3.3151,3.2826,3.2317,3.2028,3.1553,3.1563,3.16,3.159,3.1274,3.0734,3.092,3.1375,3.0827,3.0129,3.9259,3.8052,3.79,3.7147,3.6212,3.6648,3.7436,3.8284,3.8819,3.949,4.0165,4.0204,4.012,3.9816,3.9254,3.8752,3.8667,3.8284,3.9022,3.9698,4.012,4.0221,4.0221,4.0221,4.0233,4.0261,4.0421,4.0064,3.9721,3.9495,3.8605,3.7928,3.7291,3.6592,3.6188,3.5893,3.5831,3.5763,3.5763,3.5763,3.5763,3.5763,3.5763,3.5763,3.5763,3.5763,3.5763,3.5763,3.5763,3.5763,3.5763,3.5763,3.5763,3.5763,3.5763,3.5763,3.5763,3.5763,3.5763,3.5763,3.5695,3.548,3.5542,3.5183,3.4627,3.4131,3.3823,3.3168,3.2275,3.1492,3.1501,3.1501,3.1501,3.1501,3.1501,3.1501,3.1501,3.1501,3.1501,3.1501,3.1501,3.1501,3.1501,3.1501,3.1501,3.1501,3.1501,3.1667,3.1702,3.1913,3.2042,3.2309,3.2568,3.2891,3.3148,3.3341,3.3149,3.314,3.3442,3.3754,3.3717,3.341,3.2985,3.2376,3.2115,3.1931,3.2734,3.2974,3.2418,3.1897,3.146,3.1487,3.1979,3.1719,3.1032,3.9416,3.812,3.8086,3.7215,3.5985,3.6189,3.7012,3.8046,3.847,3.9197,3.9968,4.0221,4.0221,4.003,3.944,3.887,3.8701,3.8504,3.8994,3.9597,4.0052,4.0221,4.0221,4.0221,4.0221,4.0204,4.017,3.984,3.9136,3.891,3.8252,3.7205,3.6828,3.6398,3.5918,3.5763,3.5763,3.5763,3.5763,3.5763,3.5763,3.5763,3.5763,3.5763,3.5763,3.5763,3.5763,3.5763,3.5763,3.5763,3.5763,3.5763,3.5688,3.5524,3.5286,3.5337,3.5593,3.5763,3.5763,3.5763,3.5763,3.5763,3.5746,3.5456,3.4924,3.4378,3.3755,3.3038,3.2025,3.1501,3.1501,3.1501,3.1501,3.1501,3.1501,3.1501,3.1501,3.1501,3.1501,3.1501,3.1501,3.1501,3.1501,3.1501,3.1501,3.1501,3.1501,3.152,3.1529,3.1608,3.1671,3.1842,3.1944,3.2248,3.2496,3.2494,3.2296,3.2776,3.3194,3.3643,3.3598,3.2718,3.2301,3.2004,3.1967,3.1654,3.225,3.2567,3.2604,3.2409,3.1972,3.1813,3.2444,3.2657,3.2045,3.9445,3.8238,3.812,3.7283,3.607,3.5797,3.6699,3.7934,3.8103,3.8881,4.0103,4.0221,4.0221,4.0103,3.9524,3.8904,3.8622,3.8803,3.9158,3.9558,3.9934,4.0221,4.0221,4.0204,4.0019,4.0002,3.9749,3.9259,3.8746,3.8667,3.7745,3.6931,3.6646,3.6402,3.5893,3.5763,3.5763,3.5763,3.5763,3.5763,3.5763,3.5763,3.5763,3.5763,3.5763,3.5763,3.5763,3.5763,3.5763,3.5763,3.5661,3.561,3.5507,3.5258,3.5037,3.5054,3.5412,3.5763,3.5763,3.5763,3.5763,3.5729,3.5593,3.5241,3.4781,3.4124,3.3464,3.2693,3.2102,3.1681,3.1526,3.1501,3.1501,3.1501,3.1501,3.1501,3.1501,3.1501,3.1501,3.1501,3.1501,3.1501,3.1501,3.1501,3.1501,3.1501,3.1501,3.1501,3.1501,3.1501,3.151,3.1501,3.151,3.1751,3.1954,3.1907,3.1463,3.1937,3.1892,3.2313,3.2638,3.1897,3.1352,3.0947,3.0797,3.1035,3.1315,3.1606,3.1797,3.2112,3.2139,3.2065,3.2538,3.2918,3.2482,3.9732,3.8898,3.8317,3.7561,3.674,3.607,3.6621,3.7917,3.8001,3.878,4.0019,4.0221,4.0221,4.0204,4.0019,3.9608,3.9124,3.9152,3.9507,3.9862,4.0103,4.0069,4.0103,4.0002,3.9664,3.8487,3.856,3.8114,3.7572,3.7181,3.7022,3.6172,3.5968,3.5934,3.5831,3.5763,3.5763,3.5763,3.5763,3.5763,3.5763,3.5763,3.5763,3.5763,3.5763,3.5763,3.5763,3.5763,3.5763,3.5712,3.5241,3.5002,3.5071,3.5241,3.5439,3.4805,3.5388,3.5678,3.5678,3.5678,3.5678,3.5729,3.5275,3.489,3.4627,3.3943,3.319,3.2683,3.235,3.2136,3.1595,3.1501,3.1501,3.1501,3.1501,3.1501,3.1501,3.1501,3.1501,3.1501,3.1501,3.1501,3.1501,3.1501,3.1501,3.1501,3.1501,3.1501,3.1501,3.1501,3.1501,3.1501,3.163,3.1833,3.1899,3.1797,3.0481,3.0381,2.9845,3.0622,3.1406,3.0773,3.0252,2.9878,2.9811,3.0256,3.0569,3.0855,3.1229,3.161,3.1767,3.187,3.2353,3.3003,3.2586,3.9794,3.9017,3.8351,3.7645,3.6903,3.6155,3.6427,3.7391,3.7821,3.8639,3.9546,4.0103,4.0221,4.0221,4.0204,4.0069,3.976,3.971,3.9901,4.0081,3.9811,3.9642,3.9631,3.9496,3.936,3.8724,3.8267,3.7673,3.7113,3.6927,3.6512,3.5825,3.578,3.5763,3.5763,3.5763,3.5763,3.5763,3.5763,3.5763,3.5763,3.5763,3.5763,3.5763,3.5763,3.5763,3.5746,3.5746,3.5746,3.5405,3.4378,3.3547,3.3642,3.4217,3.4466,3.4439,3.5115,3.561,3.5354,3.5235,3.5122,3.462,3.4353,3.3985,3.354,3.3266,3.2649,3.2178,3.2033,3.2008,3.1561,3.1501,3.1501,3.1501,3.1501,3.1501,3.1501,3.1501,3.1501,3.1501,3.1501,3.1501,3.1501,3.1501,3.1501,3.1501,3.1501,3.1501,3.1501,3.1501,3.1501,3.1538,3.1704,3.1735,3.1755,3.1235,3.0019,2.9562,2.9153,2.965,3.0231,2.9738,2.9238,2.8858,2.8579,2.9108,2.9729,3.0195,3.0546,3.0934,3.1284,3.1573,3.1843,3.2112,3.1946,3.9757,3.9271,3.8605,3.7945,3.7283,3.6417,3.6485,3.7266,3.769,3.8267,3.9073,3.9698,4.0036,4.0221,4.0221,4.0221,4.0154,4.0137,4.0221,4.0165,3.9541,3.9304,3.9056,3.8662,3.8599,3.8329,3.786,3.7249,3.6818,3.6563,3.6325,3.5825,3.5763,3.5763,3.5763,3.5763,3.5763,3.5763,3.5763,3.5763,3.5763,3.5763,3.5763,3.5763,3.5763,3.5763,3.5729,3.5473,3.532,3.4927,3.3762,3.2879,3.2889,3.355,3.3936,3.4107,3.4944,3.5559,3.5139,3.4951,3.4559,3.408,3.3704,3.3121,3.2485,3.2392,3.2006,3.1638,3.1501,3.1578,3.1501,3.1501,3.1501,3.1501,3.1501,3.1501,3.1501,3.1501,3.1501,3.1501,3.1501,3.1501,3.1501,3.1501,3.1501,3.1501,3.1501,3.1501,3.1501,3.1501,3.1501,3.1501,3.1499,3.1258,3.139,3.1374,3.0481,3.003,2.9227,2.9161,2.9092,2.8746,2.8719,2.8312,2.7773,2.8023,2.8687,2.918,2.9829,3.0234,3.0614,3.069,3.0794,3.1118,3.1211,3.9743,4.0036,3.9304,3.8932,3.8588,3.7413,3.7232,3.7747,3.7487,3.7928,3.8904,3.9169,3.9732,4.0204,4.0221,4.0221,4.0221,4.0221,4.0221,4.0182,4.0064,3.976,3.9118,3.8227,3.7651,3.7368,3.64,3.6121,3.607,3.5985,3.5842,3.5808,3.5763,3.5763,3.5763,3.5763,3.5763,3.5763,3.5763,3.5763,3.5763,3.5763,3.5763,3.5763,3.5763,3.5746,3.5422,3.4664,3.3953,3.3902,3.3679,3.3019,3.2666,3.3882,3.4183,3.3936,3.4722,3.5507,3.5456,3.4798,3.4593,3.4183,3.3146,3.2529,3.2323,3.1955,3.1664,3.1509,3.1501,3.1501,3.1501,3.1501,3.1501,3.1501,3.1501,3.1501,3.1501,3.1501,3.1501,3.1501,3.1501,3.1501,3.1501,3.1501,3.1501,3.1501,3.1501,3.1501,3.1501,3.1501,3.1501,3.1467,3.1173,3.0872,3.1139,3.1372,3.0665,3.0424,2.9561,2.9343,2.9292,2.8771,2.8496,2.8145,2.7882,2.791,2.8151,2.8479,2.9033,2.9473,2.9687,2.9711,2.9707,2.9989,3.0794,3.9152,3.9281,3.8803,3.8617,3.8518,3.7901,3.7781,3.8035,3.8142,3.8532,3.9039,3.9524,3.9946,4.0221,4.0221,4.0221,4.0221,4.0221,4.0221,4.0221,4.0209,4.0052,3.9592,3.8746,3.7956,3.7589,3.6842,3.6257,3.5859,3.5763,3.5763,3.5763,3.5763,3.5763,3.5763,3.5763,3.5763,3.5763,3.5763,3.5763,3.5763,3.5763,3.5763,3.5763,3.5763,3.5542,3.5122,3.421,3.3405,3.3053,3.294,3.2641,3.2075,3.294,3.3266,3.3077,3.3936,3.4353,3.3916,3.3625,3.3266,3.283,3.2401,3.1955,3.1844,3.1681,3.1501,3.1501,3.1501,3.1501,3.1501,3.1501,3.1501,3.1501,3.1501,3.1501,3.1501,3.1501,3.1501,3.1501,3.1501,3.1501,3.1501,3.1501,3.1501,3.1501,3.1501,3.1501,3.1458,3.1501,3.1476,3.1286,3.1053,3.0898,3.1045,3.0493,2.9752,3.0693,3.0437,3.0653,3.0246,2.9432,2.8878,2.8218,2.7978,2.7881,2.8041,2.8287,2.8588,2.869,2.8715,2.8766,2.8688,2.881,2.9947,3.856,3.866,3.8482,3.838,3.8355,3.8041,3.8004,3.8183,3.8469,3.8638,3.9152,3.9664,3.9997,4.0221,4.0221,4.0221,4.0221,4.0221,4.0221,4.0226,4.0132,4.0097,4.0058,3.9406,3.8786,3.825,3.7368,3.6621,3.6087,3.5865,3.5763,3.5763,3.5763,3.5763,3.5763,3.5763,3.5763,3.5763,3.5763,3.5763,3.5763,3.5763,3.5763,3.5763,3.5763,3.5371,3.4507,3.4097,3.3464,3.2357,3.2203,3.1955,3.1672,3.2436,3.2838,3.2786,3.3395,3.3652,3.3009,3.2674,3.2289,3.18,3.1724,3.1509,3.1501,3.1501,3.1501,3.1501,3.1501,3.1501,3.1501,3.1501,3.1501,3.1501,3.1501,3.1501,3.1501,3.1501,3.1501,3.1501,3.1501,3.1501,3.1501,3.1501,3.1501,3.1501,3.1501,3.1501,3.1311,3.1251,3.0906,3.0854,3.0881,3.0829,3.0502,2.9657,2.9683,3.0712,3.0694,3.0556,2.9726,2.9268,2.8844,2.8264,2.8016,2.7886,2.7993,2.8038,2.8051,2.817,2.8182,2.8147,2.7972,2.822,2.9389,3.824,3.8662,3.8648,3.856,3.8509,3.7916,3.7923,3.8177,3.779,3.8159,3.8914,3.9218,3.9601,4.0096,4.0156,4.0139,4.0198,4.0127,4.0052,3.9974,3.9739,3.9692,3.9937,3.9425,3.905,3.874,3.7673,3.6961,3.6689,3.6172,3.5763,3.5791,3.5763,3.5763,3.5763,3.5763,3.5763,3.5763,3.5763,3.5763,3.5763,3.5763,3.5763,3.5763,3.5746,3.5166,3.4107,3.4217,3.3618,3.1878,3.1638,3.1612,3.1767,3.284,3.306,3.2443,3.3848,3.3926,3.3508,3.271,3.2306,3.2169,3.1758,3.1501,3.1501,3.1501,3.1501,3.1501,3.1501,3.1501,3.1501,3.1501,3.1501,3.1501,3.1501,3.1501,3.1501,3.1501,3.1501,3.1501,3.1501,3.1501,3.1501,3.1501,3.1458,3.1406,3.145,3.1346,3.1148,3.0743,3.0346,3.032,3.0467,3.032,2.9958,2.926,2.9415,2.9881,2.9208,2.8759,2.8008,2.8456,2.8524,2.8278,2.8061,2.7977,2.7937,2.7866,2.7839,2.7765,2.767,2.7593,2.7767,2.8166,2.8872,3.6752,3.7218,3.7578,3.7883,3.818,3.829,3.8344,3.8474,3.8273,3.8409,3.8833,3.9162,3.949,3.9701,3.9751,3.9751,3.9699,3.9415,3.9253,3.9223,3.9035,3.9065,3.9159,3.9238,3.924,3.896,3.8532,3.7843,3.6961,3.6621,3.624,3.5842,3.5763,3.5763,3.5763,3.5763,3.5763,3.5763,3.5763,3.5763,3.5763,3.5763,3.5763,3.5763,3.5763,3.5047,3.3765,3.3909,3.3447,3.2315,3.1672,3.1509,3.1561,3.2333,3.2563,3.2195,3.2683,3.3043,3.2359,3.2067,3.1844,3.181,3.163,3.1501,3.1501,3.1501,3.1501,3.1501,3.1501,3.1501,3.1501,3.1501,3.1501,3.1501,3.1501,3.1501,3.1501,3.1501,3.1501,3.1501,3.1501,3.1501,3.1501,3.1484,3.1312,3.0907,3.115,3.1324,3.033,3.0348,3.0037,2.9872,2.9941,2.9717,2.9312,2.9286,2.9355,2.8699,2.831,2.8413,2.7783,2.836,2.81,2.7811,2.7713,2.7568,2.7784,2.769,2.7523,2.7397,2.7283,2.7268,2.7364,2.787,2.8472,3.5774,3.6138,3.6478,3.6928,3.7453,3.7801,3.8173,3.8419,3.8463,3.8569,3.8736,3.9053,3.9223,3.9206,3.919,3.919,3.9159,3.8529,3.8306,3.8431,3.8443,3.8541,3.8732,3.9021,3.9195,3.9202,3.9123,3.8549,3.7673,3.7164,3.6716,3.6155,3.591,3.5791,3.5763,3.5763,3.5763,3.5763,3.5763,3.5763,3.5763,3.5763,3.5763,3.5763,3.5763,3.5235,3.4063,3.3977,3.3618,3.2864,3.2178,3.1706,3.1655,3.21,3.2152,3.1655,3.21,3.2169,3.1586,3.1509,3.1509,3.1492,3.1492,3.1501,3.1501,3.1501,3.1501,3.1501,3.1501,3.1501,3.1501,3.1501,3.1501,3.1501,3.1501,3.1501,3.1501,3.1501,3.1501,3.1501,3.1501,3.1501,3.1501,3.1501,3.1312,3.0941,3.0183,3.014,2.97,3.0201,3.0149,2.9449,2.9346,2.9242,2.9208,2.9251,2.8837,2.8008,2.925,3.0211,2.9086,2.8636,2.7651,2.7139,2.7122,2.7188,2.7493,2.7489,2.7241,2.7081,2.7097,2.709,2.706,2.755,2.8316,3.5551,3.559,3.5586,3.5927,3.6412,3.6478,3.6975,3.7723,3.7841,3.8076,3.8389,3.8654,3.8689,3.8662,3.8689,3.865,3.8466,3.7703,3.7535,3.7872,3.7911,3.8154,3.8537,3.8631,3.8899,3.925,3.9168,3.8982,3.8605,3.7535,3.6862,3.6673,3.6011,3.5763,3.5763,3.5763,3.5763,3.5763,3.5763,3.5763,3.5763,3.5763,3.5763,3.5763,3.5763,3.5419,3.475,3.4692,3.4336,3.3584,3.2872,3.2195,3.1844,3.2203,3.223,3.1706,3.2075,3.2092,3.1595,3.1501,3.1501,3.1501,3.1501,3.1501,3.1501,3.1501,3.1501,3.1501,3.1501,3.1501,3.1501,3.1501,3.1501,3.1501,3.1501,3.1501,3.1501,3.1501,3.1501,3.1406,3.1268,3.144,3.1484,3.1493,3.1226,3.0665,2.9432,2.8537,2.945,2.9338,2.9217,2.9027,2.8957,2.8793,2.8966,2.9061,2.8189,2.7784,2.9665,3.0462,2.8887,2.8196,2.7211,2.6994,2.6985,2.7002,2.7314,2.7279,2.7019,2.6985,2.6985,2.7018,2.7106,2.7357,2.8091,3.4721,3.5029,3.5052,3.5343,3.5798,3.5809,3.6024,3.6314,3.6678,3.6971,3.7237,3.786,3.817,3.8142,3.8154,3.7989,3.7586,3.7296,3.7214,3.7351,3.7367,3.7461,3.7688,3.8005,3.8236,3.8411,3.8663,3.8283,3.7415,3.7235,3.6676,3.5833,3.5808,3.5763,3.5763,3.5763,3.5763,3.5763,3.5763,3.5763,3.5763,3.5763,3.5763,3.5763,3.5763,3.5305,3.4327,3.4601,3.4439,3.3731,3.3405,3.3156,3.296,3.3139,3.2737,3.1741,3.21,3.2169,3.162,3.1501,3.1501,3.1501,3.1501,3.1501,3.1501,3.1501,3.1501,3.1501,3.1501,3.1501,3.1501,3.1492,3.1501,3.1501,3.1501,3.1501,3.1501,3.1493,3.1269,3.0855,3.0381,3.0537,3.1247,3.142,3.0737,2.9372,2.9925,2.9165,2.843,2.786,2.7687,2.7772,2.8196,2.8257,2.8041,2.7988,2.735,2.7213,2.8541,2.8325,2.7548,2.7367,2.703,2.6994,2.6985,2.6985,2.7002,2.7002,2.6985,2.6985,2.6985,2.6985,2.7106,2.7305,2.7443,3.4204,3.45,3.4498,3.4803,3.5299,3.5296,3.541,3.5595,3.5912,3.6086,3.6193,3.6952,3.7347,3.7347,3.7155,3.6885,3.663,3.6767,3.685,3.6873,3.7034,3.7135,3.714,3.7464,3.7684,3.7863,3.8011,3.7537,3.6661,3.6595,3.6215,3.5461,3.5304,3.5262,3.5289,3.5272,3.5272,3.5295,3.5289,3.5373,3.5542,3.5557,3.5446,3.5299,3.5289,3.4925,3.4202,3.4475,3.4536,3.4201,3.3657,3.3488,3.3557,3.3148,3.2411,3.1647,3.1878,3.1938,3.1578,3.1501,3.1501,3.1501,3.1501,3.1501,3.1501,3.1501,3.1501,3.1501,3.1501,3.1506,3.147,3.1334,3.1228,3.1161,3.1305,3.1501,3.1501,3.1484,3.1304,3.0743,2.9777,2.9519,3.0244,3.0167,2.9544,2.8801,2.925,2.9008,2.7781,2.7167,2.7081,2.7106,2.7409,2.7582,2.7056,2.7012,2.7002,2.6996,2.7013,2.7142,2.7177,2.7056,2.7038,2.7002,2.6985,2.6985,2.6985,2.6985,2.6985,2.6985,2.6985,2.6985,2.6985,2.7106,2.7071,3.4002,3.4002,3.4045,3.4336,3.4747,3.4773,3.5011,3.5399,3.5516,3.5525,3.5625,3.6103,3.6325,3.6188,3.5865,3.5571,3.5607,3.6095,3.6348,3.6349,3.6823,3.71,3.7112,3.712,3.739,3.7734,3.7352,3.6928,3.6576,3.5987,3.5552,3.5416,3.482,3.4449,3.448,3.4511,3.4454,3.4522,3.4495,3.4685,3.5111,3.5143,3.4869,3.448,3.4428,3.4426,3.4353,3.439,3.4637,3.5086,3.3818,3.3255,3.3466,3.2308,3.1536,3.146,3.1434,3.1409,3.1399,3.139,3.1373,3.1408,3.1336,3.14,3.1317,3.1317,3.1344,3.1409,3.1182,3.1206,3.1283,3.0826,3.0493,3.0249,3.0838,3.1286,3.1444,3.1338,3.1396,3.0895,2.9898,2.9243,2.9009,2.7845,2.7905,2.8353,2.7887,2.7361,2.767,2.7402,2.7048,2.7012,2.7037,2.7037,2.7002,2.6985,2.6985,2.6994,2.6994,2.7019,2.7002,2.6985,2.7002,2.6985,2.6985,2.6985,2.6985,2.6985,2.6985,2.6985,2.6985,2.6985,2.6985,2.6985,2.6985,3.4002,3.4002,3.4002,3.4098,3.4216,3.4216,3.4324,3.4489,3.4867,3.5005,3.5035,3.5536,3.5363,3.4815,3.5316,3.5337,3.5082,3.5539,3.5786,3.5833,3.6329,3.6583,3.6599,3.6932,3.7233,3.732,3.714,3.7037,3.6873,3.6123,3.5232,3.4447,3.4397,3.4407,3.4407,3.4407,3.4407,3.4407,3.4407,3.448,3.4549,3.4341,3.4137,3.401,3.4245,3.4277,3.4006,3.4272,3.448,3.4605,3.3791,3.3383,3.3437,3.2119,3.1333,3.1342,3.0918,3.0635,3.0635,3.066,3.0669,3.0626,3.0626,3.0643,3.066,3.066,3.0643,3.0509,2.9697,2.9644,3.0295,2.9591,2.8935,2.8802,2.8947,2.9841,3.1117,3.0409,2.9599,2.8994,2.9012,2.8801,2.7824,2.7334,2.7128,2.7566,2.7307,2.717,2.7237,2.7175,2.6994,2.6985,2.6985,2.6985,2.6985,2.6985,2.6985,2.6985,2.6985,2.6985,2.6985,2.6985,2.6985,2.6985,2.6985,2.6985,2.6985,2.6985,2.6985,2.6985,2.6985,2.6985,2.6985,2.6985,2.6985,3.3394,3.338,3.338,3.3486,3.372,3.3948,3.4002,3.4042,3.4333,3.4477,3.45,3.458,3.4401,3.4063,3.4647,3.4779,3.4536,3.5029,3.5234,3.5308,3.5816,3.6021,3.6071,3.6365,3.6626,3.6787,3.6525,3.6506,3.6547,3.5885,3.4923,3.3996,3.3851,3.3842,3.3874,3.3869,3.3826,3.3848,3.3842,3.3826,3.3843,3.3623,3.3487,3.3524,3.3738,3.3722,3.3571,3.3728,3.3839,3.3724,3.3088,3.2608,3.2337,3.1412,3.0813,3.0595,3.0408,3.0321,3.0321,3.0321,3.0321,3.0321,3.0321,3.0196,2.9889,2.9839,2.9288,2.8367,2.7889,2.8029,2.8742,2.8349,2.7637,2.6969,2.6821,2.7699,2.9878,2.9325,2.8583,2.8036,2.7925,2.7504,2.6882,2.6849,2.6999,2.6996,2.6986,2.6996,2.7019,2.6985,2.6985,2.6985,2.6985,2.6985,2.6985,2.6985,2.6985,2.6985,2.6985,2.6985,2.6985,2.6985,2.6985,2.6985,2.6985,2.6985,2.6985,2.6985,2.6985,2.6985,2.6985,2.6985,2.6985,2.6985,2.6985,3.2404,3.2394,3.2484,3.2746,3.3204,3.3624,3.3814,3.3854,3.3892,3.3847,3.372,3.3296,3.3345,3.3744,3.3757,3.3732,3.3694,3.4206,3.4426,3.4575,3.5114,3.5413,3.5493,3.556,3.5821,3.6175,3.5742,3.5732,3.6076,3.539,3.4764,3.415,3.3461,3.321,3.3158,3.3126,3.3069,3.3048,3.3048,3.3048,3.3048,3.3048,3.3048,3.3032,3.298,3.2959,3.2995,3.2917,3.281,3.2625,3.1887,3.1224,3.062,3.0298,2.9927,2.9451,2.9876,3.0146,3.0072,3.0107,3.0046,3.0192,3.0102,2.9769,2.9132,2.8849,2.7584,2.5799,2.6033,2.6654,2.6855,2.7023,2.6473,2.5163,2.495,2.5592,2.7416,2.7963,2.7947,2.7931,2.671,2.5962,2.6031,2.6445,2.6875,2.6962,2.6991,2.6986,2.6925,2.6964,2.6986,2.6892,2.6909,2.6893,2.6897,2.692,2.6887,2.6977,2.6985,2.6985,2.6985,2.6985,2.6985,2.6985,2.6985,2.6985,2.6985,2.6985,2.6985,2.6985,2.6985,2.6985,2.6985,2.6985,2.6985,3.1837,3.1919,3.2285,3.2547,3.2625,3.2768,3.2817,3.2817,3.2803,3.2596,3.2229,3.2123,3.2108,3.2199,3.2232,3.1991,3.1645,3.1634,3.216,3.2971,3.3529,3.4197,3.4912,3.5372,3.5633,3.5709,3.5616,3.5602,3.5675,3.5422,3.5221,3.499,3.4218,3.3776,3.3771,3.3294,3.3048,3.3048,3.3048,3.3048,3.3048,3.3048,3.3032,3.3016,3.2571,3.2385,3.2566,3.2029,3.1535,3.1199,3.0555,2.9863,2.9246,2.8973,2.8634,2.8329,2.8873,2.9001,2.8461,2.8362,2.8638,2.9203,2.8992,2.8677,2.8198,2.6808,2.5323,2.4379,2.4495,2.4906,2.5273,2.5066,2.4617,2.4225,2.4128,2.4625,2.5511,2.6167,2.6329,2.5714,2.5358,2.5173,2.5271,2.5815,2.6435,2.6842,2.7,2.6872,2.6655,2.6835,2.6759,2.6444,2.6239,2.6324,2.6415,2.6351,2.6487,2.6944,2.6978,2.6974,2.6964,2.6978,2.6994,2.6964,2.6971,2.6939,2.6978,2.6969,2.6978,2.6971,2.6994,2.6985,2.6985,2.6985,2.6985,3.1187,3.1,3.1265,3.1352,3.1305,3.1305,3.1442,3.1564,3.0489,2.995,2.9945,3.0634,3.1014,3.1248,3.1212,3.1228,3.1259,3.1196,3.1621,3.2468,3.2992,3.353,3.4096,3.4615,3.4844,3.4771,3.5078,3.5195,3.5115,3.5058,3.4863,3.4549,3.3792,3.3365,3.3284,3.3152,3.3048,3.3037,3.2608,3.2203,3.1734,3.2172,3.2213,3.1704,3.1859,3.1803,3.1662,3.1255,3.0676,2.9864,2.9481,2.8904,2.8109,2.8108,2.7931,2.7579,2.8087,2.8249,2.7824,2.7821,2.7998,2.838,2.7961,2.7362,2.6637,2.5543,2.4491,2.3579,2.3764,2.4079,2.4371,2.4094,2.3804,2.348,2.3751,2.4163,2.48,2.5308,2.5295,2.4807,2.4552,2.4543,2.4843,2.5564,2.612,2.6028,2.6399,2.6497,2.6302,2.6326,2.6277,2.6089,2.6043,2.6088,2.6146,2.6092,2.6146,2.6328,2.6732,2.6885,2.6673,2.6648,2.6648,2.6622,2.6597,2.658,2.6572,2.6672,2.674,2.6789,2.6859,2.6994,2.6985,2.6985,2.6598,3.0291,2.99,2.9977,2.9816,2.9498,2.9512,2.9632,2.9704,2.7917,2.7386,2.7955,2.917,3.0001,3.0497,3.0429,3.0685,3.1198,3.1144,3.142,3.2015,3.2541,3.2857,3.306,3.3551,3.376,3.3791,3.4293,3.4505,3.4392,3.4477,3.4165,3.3548,3.3034,3.27,3.2524,3.2718,3.287,3.2823,3.2091,3.1244,3.0391,3.1219,3.1162,3.0134,3.1017,3.1203,3.0503,3.0479,2.9898,2.865,2.8481,2.7961,2.7042,2.7255,2.7337,2.7098,2.745,2.7585,2.7456,2.7622,2.7616,2.7401,2.6938,2.6062,2.4813,2.4546,2.3964,2.2957,2.3229,2.3649,2.375,2.3695,2.3445,2.3058,2.3463,2.4031,2.4626,2.4751,2.464,2.4445,2.4101,2.4187,2.4651,2.5343,2.5583,2.5176,2.5526,2.5868,2.5776,2.5597,2.5528,2.5701,2.5807,2.5862,2.5804,2.5867,2.5754,2.5554,2.6174,2.6439,2.6255,2.6197,2.6147,2.6084,2.6114,2.6115,2.6099,2.6254,2.6378,2.6442,2.6617,2.6866,2.6831,2.6694,2.5742,2.8796,2.8742,2.9122,2.8649,2.7535,2.751,2.6928,2.5989,2.7025,0.0,0.0,2.8532,2.8921,2.939,2.8995,2.885,2.8942,2.8526,2.8823,2.9721,3.0278,3.1033,3.1952,3.2491,3.2947,3.3343,3.3439,3.3453,3.3319,3.377,3.3655,3.306,3.3329,3.3171,3.2618,3.2154,3.1934,3.1934,3.1777,3.1576,3.1398,3.1586,3.1057,2.967,3.0459,3.0393,2.9303,2.9349,2.8829,2.7541,2.698,2.6397,2.582,2.5861,2.5999,2.6246,2.6608,2.6578,2.5934,2.6794,2.6797,2.5613,2.5546,2.5021,2.3859,2.2877,2.2238,2.2002,2.2067,2.2423,2.3035,2.2827,2.272,2.2939,2.3038,2.3359,2.3977,2.4063,2.4063,2.4027,2.3943,2.3966,2.4107,2.4689,2.5015,2.4912,2.5008,2.5106,2.5012,2.4665,2.4336,2.443,2.4699,2.4865,2.5037,2.5095,2.5079,2.5018,2.5193,2.547,2.5869,2.5902,2.5869,2.5947,2.6035,2.6012,2.6019,2.6058,2.6114,2.613,2.6277,2.6375,2.6314,2.5777,2.3688,2.8639,2.842,2.8679,2.8197,0.0,2.7322,2.6045,2.4054,2.4948,2.5883,2.6833,2.7642,2.8127,2.8347,2.8086,2.8114,2.8354,2.8127,2.861,2.9657,2.9837,3.0414,3.1294,3.1817,3.2046,3.2001,3.2537,3.2621,3.229,3.2783,3.2708,3.2045,3.2339,3.2097,3.1508,3.142,3.1263,3.0992,3.0978,3.0711,3.0259,3.0716,3.0395,2.9237,2.9712,0.0,0.0,0.0,0.0,0.0,0.0,0.0,0.0,0.0,0.0,2.4006,2.3545,2.2965,2.2318,2.307,2.3504,2.3316,2.3776,2.3319,2.1493,2.164,2.1215,1.9876,2.1005,2.1931,2.2297,2.2171,2.212,2.2326,2.2329,2.2638,2.3265,2.3441,2.3464,2.3577,2.3489,2.3431,2.3433,2.3967,2.4472,2.4799,2.4617,2.4454,2.4523,2.4203,2.391,2.391,2.4114,2.4319,2.4524,2.4509,2.4421,2.4584,2.474,2.5027,2.5398,2.5346,2.5293,2.5399,2.5456,2.5472,2.5464,2.5614,2.5734,2.5766,2.5859,2.5496,2.3439,2.1509,1.9322,2.86,2.8245,2.8221,2.78,2.7164,2.73,2.5947,2.3743,2.3806,2.4446,2.5547,2.6874,2.7525,2.7596,2.7596,2.7811,2.8221,2.8234,2.8755,2.9623,2.9675,2.9932,3.0445,3.0883,3.0839,3.0471,3.1362,3.1623,3.1209,3.1731,3.1715,3.1149,3.1266,3.0976,3.0442,0.0,0.0,0.0,3.0546,3.0056,2.9188,2.9803,2.9571,2.8328,2.8765,0.0,2.7801,2.7493,2.6896,2.5919,2.5751,0.0,0.0,0.0,0.0,0.0,0.0,0.0,0.0,0.0,0.0,0.0,2.1339,2.1009,1.9182,2.0433,2.0292,1.7848,1.9986,2.1652,2.1776,2.1705,2.1655,2.1612,2.1572,2.1892,2.2599,2.2855,2.2948,2.3017,2.2831,2.2725,2.2775,2.3416,2.4121,2.4542,2.4223,2.3997,2.4108,2.3856,2.3736,2.3792,2.3713,2.3812,2.4082,2.3909,2.3796,2.4049,2.4379,2.4718,2.4853,2.4809,2.4706,2.4706,2.4722,2.4714,2.4714,2.4743,2.4706,2.477,2.4459,2.3248,1.9868,1.7044,1.5457,2.7769,2.7716,2.7716,2.6889,2.5594,2.6185,2.6219,2.5875,2.6209,2.6285,2.6169,2.6695,2.7162,2.7572,2.7596,2.7648,2.77,2.7716,2.7782,2.795,2.839,2.8648,2.87,2.8792,2.8978,2.9369,2.9514,2.977,3.0155,3.0668,3.0822,3.0649,3.1085,3.1046,3.0514,3.0568,3.0832,3.1324,3.1243,3.0876,3.0329,2.9886,2.8611,2.6573,2.743,2.7223,2.5585,2.6079,2.6038,2.5262,2.4649,2.4328,2.4268,2.3773,2.2954,0.0,2.0777,0.0,0.0,0.0,0.0,0.0,0.0,0.0,0.0,1.9138,1.9064,1.7033,1.9309,2.1149,2.17,2.1565,2.1293,2.0985,2.0925,2.1158,2.1845,2.253,2.2692,2.2064,2.1932,2.191,2.2003,2.3096,2.3904,2.3987,2.3892,2.3719,2.3478,2.3231,2.3143,2.336,2.3215,2.3196,2.3403,2.3255,2.3096,2.3157,2.3641,2.4212,2.4734,2.4421,2.4051,2.4036,2.3998,2.3982,2.4021,2.3109,2.2466,2.2419,2.0859,1.8732,1.6229,1.5031,1.4992,2.6591,2.6847,2.6834,2.6429,2.5833,2.6125,2.6218,2.6252,2.6428,2.6394,2.6227,2.64,2.6625,2.6859,2.6859,2.697,2.7187,2.7187,2.7505,2.8036,2.7994,2.8101,2.8354,2.8354,2.8499,2.8719,2.9034,2.9117,2.9118,2.961,2.9824,2.9778,2.9931,2.9184,2.7624,2.8644,2.9197,2.911,2.943,2.9447,2.92,2.8581,2.7762,2.6757,2.6851,2.6529,2.5765,2.5791,2.5551,2.5008,2.4693,2.4409,2.4094,2.1762,2.0628,0.0,0.0,0.0,0.0,0.0,0.0,0.0,0.0,0.0,0.0,0.0,1.7224,1.6979,1.9103,2.0371,2.0075,1.9954,1.9519,1.8642,1.8538,1.9378,2.1544,2.2085,2.2151,2.1816,2.1471,2.1373,2.1749,2.269,2.3362,2.3361,2.3118,2.2818,2.2528,2.248,2.2576,2.2749,2.2613,2.2625,2.306,2.3001,2.2801,2.2494,2.3203,2.3991,2.4252,2.382,2.3349,2.3304,2.2832,2.2404,2.2344,2.1392,2.0558,2.0179,1.826,1.5985,1.4531,1.4249,1.4517,2.5894,2.617,2.5035,2.4716,2.5017,2.5123,2.5407,2.5769,2.5947,2.6,2.5916,2.5786,2.5564,2.5187,2.4734,2.5003,2.5801,2.5836,2.6541,2.7801,2.7537,2.7629,2.7998,2.7972,2.7936,2.8012,2.827,2.8338,2.8232,2.8457,2.8535,2.84,2.7985,2.6944,2.5384,2.6918,2.7718,2.7677,2.8274,2.8498,2.821,2.7438,2.6932,2.6707,2.6176,2.5846,2.5715,2.5468,2.5233,2.494,2.4374,2.3878,2.3375,1.9682,0.0,0.0,0.0,0.0,0.0,0.0,0.0,0.0,0.0,1.3656,1.1493,0.0,1.544,0.0,1.8542,1.9541,1.9016,1.8806,0.0,0.0,1.6722,1.7848,2.0672,2.132,2.1361,2.0935,2.0845,2.1,2.1461,2.2191,2.2645,2.2646,2.2212,2.1842,2.1802,2.1958,2.2097,2.2187,2.2128,2.2228,2.2664,2.2692,2.2336,2.1656,2.2551,2.3374,2.3385,2.2791,2.2159,2.1861,2.1118,2.0616,2.0544,1.9559,1.8688,1.8041,1.6175,1.4343,1.409,1.3996,1.422,2.6206,2.5874,2.1596,2.0413,2.1459,2.1928,2.2944,2.431,2.5165,2.5328,2.4947,2.4511,2.3538,2.2207,2.0412,0.0,2.2894,2.2882,2.4145,2.6406,2.6737,2.6913,2.6936,2.6831,2.6761,2.674,2.6453,2.6787,2.759,2.7231,2.6767,2.6273,2.4962,2.4819,2.5747,2.6306,2.7382,2.8962,2.9485,2.9337,2.8353,2.7131,2.6074,2.5281,2.5092,2.4751,2.4307,2.4789,2.5097,2.4976,2.2987,2.1658,2.1197,0.0,0.0,0.0,0.0,0.0,0.0,0.0,0.0,0.0,0.0,0.0,0.0,0.0,0.0,1.52,1.7192,0.0,1.982,1.918,0.0,0.0,0.0,1.7293,1.8756,2.0081,2.0234,1.8572,0.0,0.0,2.0884,2.1468,2.1876,2.1881,2.1321,2.1124,2.1722,2.173,2.1784,2.1807,2.1821,2.1913,2.2117,2.1934,2.1528,2.1054,2.1447,2.1963,2.1926,2.1069,1.9933,1.9136,1.879,1.867,1.8691,1.7631,1.629,1.4833,1.423,1.4003,1.3907,1.3903,1.4038,2.1809,2.0543,1.8485,1.8152,1.8984,1.8956,1.9892,2.1427,2.1628,2.1495,2.1087,2.0661,1.9728,1.8401,1.7377,0.0,0.0,0.0,2.0926,2.3651,2.408,2.5063,2.6417,2.6644,2.6758,2.6758,2.69,2.6826,2.653,2.6646,2.4285,1.9628,0.0,0.0,1.9013,2.1444,2.324,2.4359,2.609,2.6599,2.5826,2.5689,2.5452,2.5114,2.5316,2.5369,2.5157,2.5411,2.4745,2.3047,2.1842,2.031,0.0,0.0,0.0,0.0,0.0,0.0,0.0,0.0,0.0,0.0,0.0,1.0019,0.878,0.0,0.0,0.0,1.3316,1.4085,1.4792,1.5883,0.0,0.0,0.0,0.0,0.0,0.0,0.0,1.7668,1.7625,1.8419,2.0525,2.1019,2.121,2.1193,2.0972,2.0652,2.0172,0.0,2.1265,2.15,2.1531,2.149,2.135,2.1192,2.1037,2.0833,2.101,2.1191,2.1125,1.9616,1.8262,1.7798,1.7154,1.6722,1.6695,1.5446,1.414,1.3543,1.3174,1.2945,1.2945,1.2964,1.3219,1.7055,0.0,0.0,0.0,0.0,1.5965,1.6865,1.8408,1.8344,1.8204,1.789,1.7082,0.0,0.0,0.0,0.0,0.0,0.0,1.8694,2.1457,2.2661,2.4085,2.5809,2.6216,2.6459,2.6469,2.682,2.6323,2.5019,2.4359,2.0791,1.4652,0.0,0.0,0.0,0.0,2.0281,2.1375,2.3935,2.5055,2.461,2.5042,2.5289,2.5302,2.5658,2.5866,2.5856,2.5206,2.3875,2.1778,1.9893,0.0,0.0,0.0,0.0,0.0,0.0,0.0,0.0,0.0,0.0,0.0,0.0,0.0,0.0,0.0,0.0,0.0,0.0,0.0,1.1444,1.2972,1.3096,0.0,0.0,0.0,0.0,0.0,0.0,0.0,0.0,0.0,1.956,2.0538,2.062,0.0,0.0,1.9498,1.9395,2.0199,2.0795,2.0838,2.0646,0.0,2.013,2.0065,1.9599,1.8216,1.8493,1.8874,1.885,1.8009,1.6953,1.5923,1.5411,1.4963,1.4533,1.3359,1.2569,1.2521,1.222,1.1841,1.1447,1.1763,1.2386,0.0,0.0,0.0,0.0,0.0,0.0,0.0,0.0,1.5971,1.6141,0.0,1.4264,0.0,0.0,0.0,0.0,1.1841,1.4924,0.0,0.0,2.3093,2.4644,2.4697,2.5205,2.5472,2.5475,2.5412,2.4568,2.2789,1.9482,0.0,0.0,0.0,0.0,0.0,0.0,1.9634,2.1508,2.4318,2.5813,2.5751,2.58,2.5826,2.5826,2.5866,2.5836,2.5758,2.3678,2.2329,2.1864,1.6782,0.0,0.0,0.0,0.0,0.0,0.0,0.0,0.0,0.0,0.0,0.0,0.0,0.0,0.0,0.0,0.0,0.0,0.0,0.0,0.0,1.1277,0.0,0.0,0.0,0.0,0.0,0.0,0.0,0.0,0.0,1.1011,1.7594,1.9822,2.0155,1.8365,0.0,0.0,0.0,0.0,2.0505,1.9656,1.8868,1.8388,1.8355,1.8347,1.6804,1.2253,0.0,0.0,1.4271,1.5933,1.6123,1.2868,1.3263,1.361,1.2243,1.1547,1.1184,1.1424,1.1195,1.0616,0.9506,1.0304,1.1593,0.0,0.0,0.0,0.0,0.0,0.0,0.0,0.0,0.0,1.1551,1.1238,1.0203,0.0,0.0,0.0,0.0,0.0,0.0,0.0,0.0,1.7929,1.9624,2.0194,2.2222,2.221,0.0,2.0749,1.9246,0.0,0.0,0.0,0.0,0.0,0.0,0.0,0.0,1.7545,1.9243,2.2832,2.4725,2.4725,2.5131,2.5513,2.5843,2.6172,2.5571,2.3884,2.2788,2.127,0.0,0.0,0.0,0.0,0.0,0.0,0.0,0.0,0.0,0.0,0.0,0.0,0.0,0.0,0.0,0.0,0.0,0.0,0.0,0.0,0.0,0.0,0.0,0.8782,0.0,0.0,0.0,0.0,0.0,0.0,0.0,0.0,0.0,1.0133,1.6492,1.9311,1.5323,1.6542,1.7937,1.8259,0.0,0.0,0.0,0.0,0.0,0.0,0.0,1.5328,1.3315,1.3542,1.3998,1.3996,1.3517,1.2713,1.1488,0.0,0.0,1.0591,0.9772,0.9325,0.9429,0.8971,0.8414,0.8,0.7968,0.8589,0.0,0.0,0.0,0.0,0.0,0.0,0.0,0.0,0.0,0.8018,0.7647,0.0,0.0,0.0,0.0,0.0,0.0,0.0,0.0,0.0,0.0,0.0,1.6792,1.8799,0.0,0.0,0.0,0.0,0.0,0.0,0.0,0.0,0.0,0.0,0.0,0.0,1.6321,1.8383,2.2389,2.4653,2.4993,2.5434,2.5767,2.5978,2.6327,2.5251,2.262,0.0,0.0,0.0,0.0,0.0,0.0,0.0,0.0,0.0,0.0,0.0,0.0,0.0,0.0,0.0,0.0,0.0,0.0,0.0,0.0,0.0,0.0,0.0,0.0,0.0,0.7352,0.0,0.0,0.0,0.0,0.0,0.0,0.0,0.0,0.0,0.0,0.0,1.8185,1.3098,1.5444,1.7383,1.6757,1.8295,1.9069,0.0,0.0,0.0,0.0,0.0,0.0,0.0,0.0,0.0,0.0,0.0,0.0,0.0,0.0,0.9525,0.8504,0.7686,0.7205,0.7259,0.0,0.0,0.0,0.0,0.0,0.0,0.0,0.0,0.0,0.0,0.0,0.0,0.0,0.0,0.0,0.5627,0.0,0.0,0.4666,0.0,0.0,0.0,0.0,0.0,0.0,0.0,0.0,0.0,0.0,0.0,0.0,0.0,0.0,0.0,0.0,0.0,0.0,0.0,0.0,0.0,0.0,1.6023,1.8972,2.3028,2.5704,2.6623,2.6763,2.6542,2.6196,2.6229,2.4982,2.2226,0.0,0.0,0.0,0.0,0.0,0.0,0.0,0.0,0.0,0.0,0.0,0.0,0.0,0.0,0.0,0.0,0.0,0.0,0.0,0.0,0.0,0.0,0.0,0.0,0.0,0.0,0.4653,0.392,0.3467,0.0,0.0,0.0,0.0,0.0,0.0,0.0,0.0,0.0,1.181,1.3632,1.5384,1.5317,1.6337,1.6558,1.4854,1.5111,1.4785,1.2798,1.4136,1.3639,0.0,0.0,0.0,0.0,0.0,0.0,0.0,0.0,0.0,0.0,0.0,0.0,0.0,0.0,0.0,0.0,0.0,0.0,0.0,0.0,0.0,0.0,0.0,0.0,0.0,0.0,0.0,0.0,0.0,0.0,0.0,0.0,0.0,0.0,0.0,0.0,0.0,0.0,0.0,0.0,0.0,0.0,0.0,0.0,0.0,0.0,0.0,0.0,0.0,0.0,0.0,0.0,0.0,0.0,1.55,1.7417,2.1858,2.4321,2.4636,2.5351,2.568,2.557,2.6006,2.495,0.0,0.0,0.0,0.0,0.0,0.0,0.0,0.0,0.0,0.0,0.0,0.0,0.0,0.0,0.0,0.0,0.0,0.0,0.0,0.0,0.0,0.0,0.0,0.0,0.0,0.0,0.0,0.0,0.3632,0.2432,0.3727,0.0,0.0,0.0,0.0,0.0,0.0,0.0,0.0,0.0,0.0,1.1764,1.3361,1.4964,1.5403,1.3607,1.337,1.3081,1.2304,1.2697,1.2135,0.922,0.0,0.0,0.0,0.0,0.0,0.0,0.0,0.0,0.0,0.0,0.0,0.0,0.0,0.0,0.0,0.0,0.0,0.0,0.0,0.0,0.0,0.0,0.0,0.0,0.0,0.0,0.0,0.0,0.0,0.0,0.0,0.0,0.0,0.0,0.0,0.0,0.0,0.0,0.0,0.0,0.0,0.0,0.0,0.0,0.0,0.0,0.0,0.0,0.0,0.0,0.0,0.0,0.0,1.5217,1.7043,2.1276,2.3596,2.3819,2.4426,2.4754,2.4804,2.5197,2.3716,0.0,0.0,0.0,0.0,0.0,0.0,0.0,0.0,0.0,0.0,0.0,0.0,0.0,0.0,0.0,0.0,0.0,0.0,0.0,0.0,0.0,0.0,0.0,0.0,0.0,0.0,0.0,0.0,0.3418,0.269,0.3658,0.0,0.0,0.0,0.0,0.0,0.0,0.0,0.0,0.0,0.0,0.9442,1.0778,1.2793,0.0,0.0,1.1616,1.1403,1.0714,1.0763,1.0518,0.9504,0.8249,0.0,0.0,0.0,0.0,0.0,0.0,0.0,0.0,0.0,0.0,0.0,0.0,0.0,0.0,0.0,0.0,0.0,0.0,0.0,0.0,0.0,0.0,0.0,0.0,0.0,0.0,0.0,0.0,0.0,0.0,0.0,0.0,0.0,0.0,0.0,0.0,0.0,0.0,0.0,0.0,0.0,0.0,0.0,0.0,0.0,0.0,0.0,0.0,0.0,0.0,0.0,0.0,1.5084,1.7403,2.114,2.3288,2.3797,2.3877,2.3947,2.4081,2.4082,2.1702,0.0,0.0,0.0,0.0,0.0,0.0,0.0,0.0,0.0,0.0,0.0,0.0,0.0,0.0,0.0,0.0,0.0,0.0,0.0,0.0,0.0,0.0,0.0,0.0,0.0,0.0,0.0,0.0,0.0,0.0,0.0,0.0,0.0,0.0,0.0,0.0,0.0,0.0,0.0,0.0,0.0,0.7934,0.7975,1.0147,1.1235,0.0,0.9818,0.96,0.8345,0.8581,0.897,0.9211,0.0,0.0,0.0,0.0,0.0,0.0,0.0,0.0,0.0,0.0,0.0,0.0,0.0,0.0,0.0,0.0,0.0,0.0,0.0,0.0,0.0,0.0,0.0,0.0,0.0,0.0,0.0,0.0,0.0,0.0,0.0,0.0,0.0,0.0,0.0,0.0,0.0,0.0,0.0,0.0,0.0,0.0,0.0,0.0,0.0,0.0,0.0,0.0,0.0,0.0,0.0,0.0,0.0,0.0,1.6051,2.0133,2.2507,2.3021,2.3408,2.3608,2.3652,2.3664,0.0,0.0,0.0,0.0,0.0,0.0,0.0,0.0,0.0,0.0,0.0,0.0,0.0,0.0,0.0,0.0,0.0,0.0,0.0,0.0,0.0,0.0,0.0,0.0,0.0,0.0,0.0,0.2259,0.0,0.0,0.0,0.0,0.0,0.0,0.0,0.0,0.0,0.0,0.0,0.0,0.0,0.0,0.4555,0.77,0.8536,0.8549,0.0,0.0,0.7039,0.6047,0.7342,0.8515,0.0,0.0,0.0,0.0,0.0,0.0,0.0,0.0,0.0,0.0,0.0,0.0,0.0,0.0,0.0,0.0,0.0,0.0,0.0,0.0,0.0,0.0,0.0,0.0,0.0,0.0,0.0,0.0,0.0,0.0,0.0,0.0,0.0,0.0,0.0,0.0,0.0,0.0,0.0,0.0,0.0,0.0,0.0,0.0,0.0,0.0,0.0,0.0,0.0,0.0,0.0,0.0,0.0,0.0,1.326,1.5336,1.8523,2.0705,2.1784,2.2093,2.2451,2.2808,2.2864,2.0746,0.0,0.0,0.0,0.0,0.0,0.0,0.0,0.0,0.0,0.0,0.0,0.0,0.0,0.0,0.0,0.0,0.0,0.0,0.0,0.0,0.0,0.0,0.0,0.0,0.0,0.0,0.0,0.0,0.0,0.0,0.0,0.0,0.0,0.0,0.0,0.0,0.0,0.0,0.0,0.0,0.0,0.0,0.6465,0.6652,0.0,0.0,0.0,0.5633,0.5141,0.0,0.0,0.0,0.0,0.0,0.0,0.0,0.0,0.0,0.0,0.0,0.0,0.0,0.0,0.0,0.0,0.0,0.0,0.0,0.0,0.0,0.0,0.0,0.0,0.0,0.0,0.0,0.0,0.0,0.0,0.0,0.0,0.0,0.0,0.0,0.0,0.0,0.0,0.0,0.0,0.0,0.0,0.0,0.0,0.0,0.0,0.0,0.0,0.0,0.0,0.0,0.0,0.0,0.0,0.0,0.0,0.0,1.4713,1.6866,1.8777,2.0359,2.044,2.0785,2.1645,2.1618,1.9791,0.0,0.0,0.0,0.0,0.0,0.0,0.0,0.0,0.0,0.0,0.0,0.0,0.0,0.0,0.0,0.0,0.0,0.0,0.0,0.0,0.0,0.0,0.0,0.0,0.0,0.0,0.0,0.0,0.0,0.0,0.0,0.0,0.0,0.0,0.0,0.0,0.0,0.0,0.0,0.0,0.0,0.6797,0.5205,0.4815,0.4703,0.0,0.0,0.4877,0.5002,0.5141,0.0,0.0,0.0,0.0,0.0,0.0,0.0,0.0,0.0,0.0,0.0,0.0,0.0,0.0,0.0,0.0,0.0,0.0,0.0,0.0,0.0,0.0,0.0,0.0,0.0,0.0,0.0,0.0,0.0,0.0,0.0,0.0,0.0,0.0,0.0,0.0,0.0,0.0,0.0,0.0,0.0,0.0,0.0,0.0,0.0,0.0,0.0,0.0,0.0,0.0,0.0,0.0,0.0,0.0,0.0,0.0,1.3631,1.6839,1.887,1.9609,1.9384,1.9438,1.9936,1.9658,1.81,0.0,0.0,0.0,0.0,0.0,0.0,0.0,0.0,0.0,0.0,0.0,0.0,0.0,0.0,0.0,0.0,0.0,0.0,0.0,0.0,0.0,0.0,0.0,0.0,0.0,0.0,0.0,0.0,0.0,0.0,0.0,0.0,0.0,0.0,0.0,0.0,0.0,0.0,0.0,0.0,0.0,0.6951,0.581,0.3776,0.0,0.0,0.0,0.0,0.4766,0.4992,0.0,0.0,0.0,0.0,0.0,0.0,0.0,0.0,0.0,0.0,0.0,0.0,0.0,0.0,0.0,0.0,0.0,0.0,0.0,0.0,0.0,0.0,0.0,0.0,0.0,0.0,0.0,0.0,0.0,0.0,0.0,0.0,0.0,0.0,0.0,0.0,0.0,0.0,0.0,0.0,0.0,0.0,0.0,0.0,0.0,0.0,0.0,0.0,0.0,0.0,0.0,0.0,0.0,0.0,0.0,0.0,1.3923,1.5814,1.7368,1.8461,1.8473,1.8691,1.9123,1.8959,1.7574,0.0,0.0,0.0,0.0,0.0,0.0,0.0,0.0,0.0,0.0,0.0,0.0,0.0,0.0,0.0,0.0,0.0,0.0,0.0,0.0,0.0,0.0,0.0,0.0,0.0,0.0,0.0,0.0,0.0,0.0,0.0,0.0,0.0,0.0,0.0,0.0,0.0,0.0,0.0,0.0,0.5659,0.6416,0.5273,0.0,0.0,0.0,0.0,0.0,0.0,0.4044,0.387,0.0,0.0,0.0,0.0,0.0,0.0,0.0,0.0,0.0,0.0,0.0,0.0,0.0,0.0,0.0,0.0,0.0,0.0,0.0,0.0,0.0,0.0,0.0,0.0,0.0,0.0,0.0,0.0,0.0,0.0,0.0,0.0,0.0,0.0,0.0,0.0,0.0,0.0,0.0,0.0,0.0,0.0,0.0,0.0,0.0,0.0,0.0,0.0,0.0,0.0,0.0,0.0,0.0,0.0,0.0,1.4062,1.4522,1.5549,1.7153,1.7449,1.7816,1.8298,1.829,1.7121,1.4762,0.0,0.0,0.0,0.0,0.0,0.0,0.0,0.0,0.0,0.0,0.0,0.0,0.0,0.0,0.0,0.0,0.0,0.0,0.0,0.0,0.0,0.0,0.0,0.0,0.0,0.0,0.0,0.0,0.0,0.0,0.0,0.0,0.0,0.0,0.0,0.0,0.0,0.0,0.0,0.509,0.5698,0.0,0.0,0.0,0.0,0.0,0.0,0.0,0.0,0.3845,0.0,0.0,0.0,0.0,0.0,0.0,0.0,0.0,0.0,0.0,0.0,0.0,0.0,0.0,0.0,0.0,0.0,0.0,0.0,0.0,0.0,0.0,0.0,0.0,0.0,0.0,0.0,0.0,0.0,0.0,0.0,0.0,0.0,0.0,0.0,0.0,0.0,0.0,0.0,0.0,0.0,0.0,0.0,0.0,0.0,0.0,0.0,0.0,0.0,0.0,0.0,0.0,0.0,0.0,0.0,0.0,1.3496,1.5,1.5806,1.571,1.5741,1.6038,1.5838,1.5032,1.3535,0.0,0.0,0.0,0.0,0.0,0.0,0.0,0.0,0.0,0.0,0.0,0.0,0.0,0.0,0.0,0.0,0.0,0.0,0.0,0.0,0.0,0.0,0.0,0.0,0.0,0.0,0.0,0.0,0.0,0.0,0.0,0.0,0.0,0.0,0.0,0.0,0.0,0.0,0.1425,0.4202,0.0,0.0,0.0,0.0,0.0,0.0,0.0,0.0,0.4131,0.0,0.0,0.0,0.0,0.0,0.0,0.0,0.0,0.0,0.0,0.0,0.0,0.0,0.0,0.0,0.0,0.0,0.0,0.0,0.0,0.0,0.0,0.0,0.0,0.0,0.0,0.0,0.0,0.0,0.0,0.0,0.0,0.0,0.0,0.0,0.0,0.0,0.0,0.0,0.0,0.0,0.0,0.0,0.0,0.0,0.0,0.0,0.0,0.0,0.0,0.0,0.0,0.0,0.0,0.0,0.0,0.0,0.0,1.4357,1.5313,1.5418,1.5517,1.5636,1.4786,1.3784,0.0,0.0,0.0,0.0,0.0,0.0,0.0,0.0,0.0,0.0,0.0,0.0,0.0,0.0,0.0,0.0,0.0,0.0,0.0,0.0,0.0,0.0,0.0,0.0,0.0,0.0,0.0,0.0,0.0,0.0,0.0,0.0,0.0,0.0,0.0,0.0,0.0,0.0,0.0,0.0,0.0,0.0,0.0,0.0,0.0,0.0,0.0,0.0,0.0,0.0,0.0,0.0,0.0,0.0,0.0,0.0,0.0,0.0,0.0,0.0,0.0,0.0,0.0,0.0,0.0,0.0,0.0,0.0,0.0,0.0,0.0,0.0,0.0,0.0,0.0,0.0,0.0,0.0,0.0,0.0,0.0,0.0,0.0,0.0,0.0,0.0,0.0,0.0,0.0,0.0,0.0,0.0,0.0,0.0,0.0,0.0,0.0,0.0,0.0,0.0,0.0,0.0,0.0,0.0,0.0,0.0,0.0,0.0,1.3635,1.4994,1.5351,1.5495,1.5496,1.418,1.2933,0.0,0.0,0.0,0.0,0.0,0.0,0.0,0.0,0.0,0.0,0.0,0.0,0.0,0.0,0.0,0.0,0.0,0.0,0.0,0.0,0.0,0.0,0.0,0.0,0.0,0.0,0.0,0.0,0.0,0.0,0.0,0.0,0.0,0.0,0.0,0.0,0.0,0.0,0.0,0.0,0.0,0.0,0.0,0.0,0.0,0.0,0.0,0.0,0.3012,0.0,0.0,0.0,0.0,0.0,0.0,0.0,0.0,0.0,0.0,0.0,0.0,0.0,0.0,0.0,0.0,0.0,0.0,0.0,0.0,0.0,0.0,0.0,0.0,0.0,0.0,0.0,0.0,0.0,0.0,0.0,0.0,0.0,0.0,0.0,0.0,0.0,0.0,0.0,0.0,0.0,0.0,0.0,0.0,0.0,0.0,0.0,0.0,0.0,0.0,0.0,0.0,0.0,0.0,0.0,0.0,0.0,0.0,0.0,1.2959,1.4592,1.467,1.4706,1.4646,1.3661,1.2274,0.0,0.0,0.0,0.0,0.0,0.0,0.0,0.0,0.0,0.0,0.0,0.0,0.0,0.0,0.0,0.0,0.0,0.0,0.0,0.0,0.0,0.0,0.0,0.0,0.0,0.0,0.0,0.0,0.0,0.0,0.0,0.0,0.0,0.0,0.0,0.0,0.0,0.0,0.0,0.0,0.0,0.0,0.0,0.0,0.0,0.0,0.0,0.0,0.0,0.0,0.0,0.0,0.0,0.0,0.0,0.0,0.0,0.0,0.0,0.0,0.0,0.0,0.0,0.0,0.0,0.0,0.0,0.0,0.0,0.0,0.0,0.0,0.0,0.0,0.0,0.0,0.0,0.0,0.0,0.0,0.0,0.0,0.0,0.0,0.0,0.0,0.0,0.0,0.0,0.0,0.0,0.0,0.0,0.0,0.0,0.0,0.0,0.0,0.0,0.0,0.0,0.0,0.0,0.0,0.0,0.0,0.0,0.0,1.1818,1.3441,1.4212,1.4219,1.3454,1.208,1.0902,0.0,0.0,0.0,0.0,0.0,0.0,0.0,0.0,0.0,0.0,0.0,0.0,0.0,0.0,0.0,0.0,0.0,0.0,0.0,0.0,0.0,0.0,0.0,0.0,0.0,0.0,0.0,0.0,0.0,0.0,0.0,0.0,0.0,0.0,0.0,0.0,0.0,0.0,0.0,0.0,0.0,0.0,0.0,0.0,0.0,0.0,0.0,0.0,0.0,0.0,0.0,0.0,0.0,0.0,0.0,0.0,0.0,0.0,0.0,0.0,0.0,0.0,0.0,0.0,0.0,0.0,0.0,0.0,0.0,0.0,0.0,0.0,0.0,0.0,0.0,0.0,0.0,0.0,0.0,0.0,0.0,0.0,0.0,0.0,0.0,0.0,0.0,0.0,0.0,0.0,0.0,0.0,0.0,0.0,0.0,0.0,0.0,0.0,0.0,0.0,0.0,0.0,0.0,0.0,0.0,0.0,0.0,0.0,0.0,1.2115,1.3555,1.3617,1.2216,1.0758,0.9668,0.0,0.0,0.0,0.0,0.0,0.0,0.0,0.0,0.0,0.0,0.0,0.0,0.0,0.0,0.0,0.0,0.0,0.0,0.0,0.0,0.0,0.0,0.0,0.0,0.0,0.0,0.0,0.0,0.0,0.0,0.0,0.0,0.0,0.0,0.0,0.0,0.0,0.0,0.0,0.0,0.0,0.0,0.0,0.0,0.0,0.0,0.0,0.0,0.0,0.0,0.0,0.0,0.0,0.0,0.0,0.0,0.0,0.0,0.0,0.0,0.0,0.0,0.0,0.0,0.0,0.0,0.0,0.0,0.0,0.0,0.0,0.0,0.0,0.0,0.0,0.0,0.0,0.0,0.0,0.0,0.0,0.0,0.0,0.0,0.0,0.0,0.0,0.0,0.0,0.0,0.0,0.0,0.0,0.0,0.0,0.0,0.0,0.0,0.0,0.0,0.0,0.0,0.0,0.0,0.0,0.0,0.0,0.0,0.0,1.0777,1.2685,1.2765,1.1032,1.0135,0.8818,0.0,0.0,0.0,0.0,0.0,0.0,0.0,0.0,0.0,0.0,0.0,0.0,0.0,0.0,0.0,0.0,0.0,0.0,0.0,0.0,0.0,0.0,0.0,0.0,0.0,0.0,0.0,0.0,0.0,0.0,0.0,0.0,0.0,0.0,0.0,0.0,0.0,0.0,0.0,0.0,0.0,0.0,0.0,0.0,0.0,0.0,0.0,0.0,0.0,0.0,0.0,0.0,0.0,0.0,0.0,0.0,0.0,0.0,0.0,0.0,0.0,0.0,0.0,0.0,0.0,0.0,0.0,0.0,0.0,0.0,0.0,0.0,0.0,0.0,0.0,0.0,0.0,0.0,0.0,0.0,0.0,0.0,0.0,0.0,0.0,0.0,0.0,0.0,0.0,0.0,0.0,0.0,0.0,0.0,0.0,0.0,0.0,0.0,0.0,0.0,0.0,0.0,0.0,0.0,0.0,0.0,0.0,0.0,0.0,0.7411,0.8786,0.9477,0.9304,0.7992,0.7146,0.6847,0.0,0.0,0.0,0.0,0.0,0.0,0.0,0.0,0.0,0.0,0.0,0.0,0.0,0.0,0.0,0.0,0.0,0.0,0.0,0.0,0.0,0.0,0.0,0.0,0.0,0.0,0.0,0.0,0.0,0.0,0.0,0.0,0.0,0.0,0.0,0.0,0.0,0.0,0.0,0.0,0.0,0.0,0.0,0.0,0.0,0.0,0.0,0.0,0.0,0.0,0.0,0.0,0.0,0.0,0.0,0.0,0.0,0.0,0.0,0.0,0.0,0.0,0.0,0.0,0.0,0.0,0.0,0.0,0.0,0.0,0.0,0.0,0.0,0.0,0.0,0.0,0.0,0.0,0.0,0.0,0.0,0.0,0.0,0.0,0.0,0.0,0.0,0.0,0.0,0.0,0.0,0.0,0.0,0.0,0.0,0.0,0.0,0.0,0.0,0.0,0.0,0.0,0.0,0.0,0.0,0.0,0.0,0.0,0.5827,0.714,0.7882,0.7931,0.6816,0.6119,0.0,0.0,0.0,0.0,0.0,0.0,0.0,0.0,0.0,0.0,0.0,0.0,0.0,0.0,0.0,0.0,0.0,0.0,0.0,0.0,0.0,0.0,0.0,0.0,0.0,0.0,0.0,0.0,0.0,0.0,0.0,0.0,0.0,0.0,0.0,0.0,0.0,0.0,0.0,0.0,0.0,0.0,0.0,0.0,0.0,0.0,0.0,0.0,0.0,0.0,0.0,0.0,0.0,0.0,0.0,0.0,0.0,0.0,0.0,0.0,0.0,0.0,0.0,0.0,0.0,0.0,0.0,0.0,0.0,0.0,0.0,0.0,0.0,0.0,0.0,0.0,0.0,0.0,0.0,0.0,0.0,0.0,0.0,0.0,0.0,0.0,0.0,0.0,0.0,0.0,0.0,0.0,0.0,0.0,0.0,0.0,0.0,0.0,0.0,0.0,0.0,0.0,0.0,0.0,0.0,0.0,0.0,0.0,0.4698,0.6872,0.8363,0.8478,0.7253,0.7005,0.5948,0.0,0.0,0.0,0.0,0.0,0.0,0.0,0.0,0.0,0.0,0.0,0.0,0.0,0.0,0.0,0.0,0.0,0.0,0.0,0.0,0.0,0.0,0.0,0.0,0.0,0.0,0.0,0.0,0.0,0.0,0.0,0.0,0.0,0.0,0.0,0.0,0.0,0.0,0.0,0.0,0.0,0.0,0.0,0.0,0.0,0.0,0.0,0.0,0.0,0.0,0.0,0.0,0.0,0.0,0.0,0.0,0.0,0.0,0.0,0.0,0.0,0.0,0.0,0.0,0.0,0.0,0.0,0.0,0.0,0.0,0.0,0.0,0.0,0.0,0.0,0.0,0.0,0.0,0.0,0.0,0.0,0.0,0.0,0.0,0.0,0.0,0.0,0.0,0.0,0.0,0.0,0.0,0.0,0.0,0.0,0.0,0.0,0.0,0.0,0.0,0.0,0.0,0.0,0.0,0.0,0.0,0.0,0.0,0.0,0.4612,0.0,0.6649,0.7222,0.6186,0.5456,0.0,0.0,0.0,0.0,0.0,0.0,0.0,0.0,0.0,0.0,0.0,0.0,0.0,0.0,0.0,0.0,0.0,0.0,0.0,0.0,0.0,0.0,0.0,0.0,0.0,0.0,0.0,0.0,0.0,0.0,0.0,0.0,0.0,0.0,0.0,0.0,0.0,0.0,0.0,0.0,0.0,0.0,0.0,0.0,0.0,0.0,0.0,0.0,0.0,0.0,0.0,0.0,0.0,0.0,0.0,0.0,0.0,0.0,0.0,0.0,0.0,0.0,0.0,0.0,0.0,0.0,0.0,0.0,0.0,0.0,0.0,0.0,0.0,0.0,0.0,0.0,0.0,0.0,0.0,0.0,0.0,0.0,0.0,0.0,0.0,0.0,0.0,0.0,0.0,0.0,0.0,0.0,0.0,0.0,0.0,0.0,0.0,0.0,0.0,0.0,0.0,0.0,0.0,0.0,0.0,0.0,0.0,0.0,0.0,0.3988,0.4352,0.5195,0.6297,0.5138,0.4607,0.0,0.0,0.0,0.0,0.0,0.0,0.0,0.0,0.0,0.0,0.0,0.0,0.0,0.0,0.0,0.0,0.0,0.0,0.0,0.0,0.0,0.0,0.0,0.0,0.0,0.0,0.0,0.0,0.0,0.0,0.0,0.0,0.0,0.0,0.0,0.0,0.0,0.0,0.0,0.0,0.0,0.0,0.0,0.0,0.0,0.0,0.0,0.0,0.0,0.0,0.0,0.0,0.0,0.0,0.0,0.0,0.0,0.0,0.0,0.0,0.0,0.0,0.0,0.0,0.0,0.0,0.0,0.0,0.0,0.0,0.0,0.0,0.0,0.0,0.0,0.0,0.0,0.0,0.0,0.0,0.0,0.0,0.0,0.0,0.0,0.0,0.0,0.0,0.0,0.0,0.0,0.0,0.0,0.0,0.0,0.0,0.0,0.0,0.0,0.0,0.0,0.0,0.0,0.0,0.0,0.0,0.0,0.0,0.0,0.4669,0.4297,0.4229,0.4668,0.4053,0.3621,0.0,0.0,0.0,0.0,0.0,0.0,0.0,0.0,0.0,0.0,0.0,0.0,0.0,0.0,0.0,0.0,0.0,0.0,0.0,0.0,0.0,0.0,0.0,0.0,0.0,0.0,0.0,0.0,0.0,0.0,0.0,0.0,0.0,0.0,0.0,0.0,0.0,0.0,0.0,0.0,0.0,0.0,0.0,0.0,0.0,0.0,0.0,0.0,0.0,0.0,0.0,0.0,0.0,0.0,0.0,0.0,0.0,0.0,0.0,0.0,0.0,0.0,0.0,0.0,0.0,0.0,0.0,0.0,0.0,0.0,0.0,0.0,0.0,0.0,0.0,0.0,0.0,0.0,0.0,0.0,0.0,0.0,0.0,0.0,0.0,0.0,0.0,0.0,0.0,0.0,0.0,0.0,0.0,0.0,0.0,0.0,0.0,0.0,0.0,0.0,0.0,0.0,0.0,0.0,0.0,0.0,0.0,0.0,0.0,0.0,0.3539,0.3831,0.423,0.4448,0.4415,0.4146,0.0,0.0,0.0,0.0,0.0,0.0,0.0,0.0,0.0,0.0,0.0,0.0,0.0,0.0,0.0,0.0,0.0,0.0,0.0,0.0,0.0,0.0,0.0,0.0,0.0,0.0,0.0,0.0,0.0,0.0,0.0,0.0,0.0,0.0,0.0,0.0,0.0,0.0,0.0,0.0,0.0,0.0,0.0,0.0,0.0,0.0,0.0,0.0,0.0,0.0,0.0,0.0,0.0,0.0,0.0,0.0,0.0,0.0,0.0,0.0,0.0,0.0,0.0,0.0,0.0,0.0,0.0,0.0,0.0,0.0,0.0,0.0,0.0,0.0,0.0,0.0,0.0,0.0,0.0,0.0,0.0,0.0,0.0,0.0,0.0,0.0,0.0,0.0,0.0,0.0,0.0,0.0,0.0,0.0,0.0,0.0,0.0,0.0,0.0,0.0,0.0,0.0,0.0,0.0,0.0,0.0,0.0,0.0,0.0,0.0,0.3542,0.3764,0.4147,0.4331,0.0,0.0,0.0,0.0,0.0,0.0,0.0,0.0,0.0,0.0,0.0,0.0,0.0,0.0,0.0,0.0,0.0,0.0,0.0,0.0,0.0,0.0,0.0,0.0,0.0,0.0,0.0,0.0,0.0,0.0,0.0,0.0,0.0,0.0,0.0,0.0,0.0,0.0,0.0,0.0,0.0,0.0,0.0,0.0,0.0,0.0,0.0,0.0,0.0,0.0,0.0,0.0,0.0,0.0,0.0,0.0,0.0,0.0,0.0,0.0,0.0,0.0,0.0,0.0,0.0,0.0,0.0,0.0,0.0,0.0,0.0,0.0,0.0,0.0,0.0,0.0,0.0,0.0,0.0,0.0,0.0,0.0,0.0,0.0,0.0,0.0,0.0,0.0,0.0,0.0,0.0,0.0,0.0,0.0,0.0,0.0,0.0,0.0,0.0,0.0,0.0,0.0,0.0,0.0,0.0,0.0,0.0,0.0,0.0,0.0,0.0,0.3333,0.3325,0.364,0.0,0.3661,0.0,0.0,0.0,0.0,0.0,0.0,0.0,0.0,0.0,0.0,0.0,0.0,0.0,0.0,0.0,0.0,0.0,0.0,0.0,0.0,0.0,0.0,0.0,0.0,0.0,0.0,0.0,0.0,0.0,0.0,0.0,0.0,0.0,0.0,0.0,0.0,0.0,0.0,0.0,0.0,0.0,0.0,0.0,0.0,0.0,0.0,0.0,0.0,0.0,0.0,0.0,0.0,0.0,0.0,0.0,0.0,0.0,0.0,0.0,0.0,0.0,0.0,0.0,0.0,0.0,0.0,0.0,0.0,0.0,0.0,0.0,0.0,0.0,0.0,0.0,0.0,0.0,0.0,0.0,0.0,0.0,0.0,0.0,0.0,0.0,0.0,0.0,0.0,0.0,0.0,0.0,0.0,0.0,0.0,0.0,0.0,0.0,0.0,0.0,0.0,0.0,0.0,0.0,0.0,0.0,0.0,0.0,0.0,0.0,0.0,0.0,0.0,0.4126,0.4271,0.3605,0.0,0.0,0.0,0.0,0.0,0.0,0.0,0.0,0.0,0.0,0.0,0.0,0.0,0.0,0.0,0.0,0.0,0.0,0.0,0.0,0.0,0.0,0.0,0.0,0.0,0.0,0.0,0.0,0.0,0.0,0.0,0.0,0.0,0.0,0.0,0.0,0.0,0.0,0.0,0.0,0.0,0.0,0.0,0.0,0.0,0.0,0.0,0.0,0.0,0.0,0.0,0.0,0.0,0.0,0.0,0.0,0.0,0.0,0.0,0.0,0.0,0.0,0.0,0.0,0.0,0.0,0.0,0.0,0.0,0.0,0.0,0.0,0.0,0.0,0.0,0.0,0.0,0.0,0.0,0.0,0.0,0.0,0.0,0.0,0.0,0.0,0.0,0.0,0.0,0.0,0.0,0.0,0.0,0.0,0.0,0.0,0.0,0.0,0.0,0.0,0.0,0.0,0.0,0.0,0.0,0.0,0.0,0.0,0.0,0.0,0.3941,0.3342,0.4436,0.4541,0.3568,0.0,0.0,0.0,0.0,0.0,0.0,0.0,0.0,0.0,0.0,0.0,0.0,0.0,0.0,0.0,0.0,0.0,0.0,0.0,0.0,0.0,0.0,0.0,0.0,0.0,0.0,0.0,0.0,0.0,0.0,0.0,0.0,0.0,0.0,0.0,0.0,0.0,0.0,0.0,0.0,0.0,0.0,0.0,0.0,0.0,0.0,0.0,0.0,0.0,0.0,0.0,0.0,0.0,0.0,0.0,0.0,0.0,0.0,0.0,0.0,0.0,0.0,0.0,0.0,0.0,0.0,0.0,0.0,0.0,0.0,0.0,0.0,0.0,0.0,0.0,0.0,0.0,0.0,0.0,0.0,0.0,0.0,0.0,0.0,0.0,0.0,0.0,0.0,0.0,0.0,0.0,0.0,0.0,0.0,0.0,0.0,0.0,0.0,0.0,0.0,0.0,0.0,0.0,0.0,0.0,0.0,0.0,0.0,0.0,0.0,0.0,0.0,0.0,0.0,0.3465,0.0,0.0,0.0,0.0,0.0,0.0,0.0,0.0,0.0,0.0,0.0,0.0,0.0,0.0,0.0,0.0,0.0,0.0,0.0,0.0,0.0,0.0,0.0,0.0,0.0,0.0,0.0,0.0,0.0,0.0,0.0,0.0,0.0,0.0,0.0,0.0,0.0,0.0,0.0,0.0,0.0,0.0,0.0,0.0,0.0,0.0,0.0,0.0,0.0,0.0,0.0,0.0,0.0,0.0,0.0,0.0,0.0,0.0,0.0,0.0,0.0,0.0,0.0,0.0,0.0,0.0,0.0,0.0,0.0,0.0,0.0,0.0,0.0,0.0,0.0,0.0,0.0,0.0,0.0,0.0,0.0,0.0,0.0,0.0,0.0,0.0,0.0,0.0,0.0,0.0,0.0,0.0,0.0,0.0,0.0,0.0,0.0,0.0,0.0,0.0,0.0,0.0,0.0,0.0,0.0,0.0,0.0,0.0,0.0,0.0,0.0,0.0,0.0,0.0,0.0,0.0,0.0,0.0,0.0,0.0,0.0,0.0,0.0,0.0,0.0,0.0,0.0,0.0,0.0,0.0,0.0,0.0,0.0,0.0,0.0,0.0,0.0,0.0,0.0,0.0,0.0,0.0,0.0,0.0,0.0,0.0,0.0,0.0,0.0,0.0,0.0,0.0,0.0,0.0,0.0,0.0,0.0,0.0,0.0,0.0,0.0,0.0,0.0,0.0,0.0,0.0,0.0,0.0,0.0,0.0,0.0,0.0,0.0,0.0,0.0,0.0,0.0,0.0,0.0,0.0,0.0,0.0,0.0,0.0,0.0,0.0,0.0,0.0,0.0,0.0,0.0,0.0,0.0,0.0,0.0,0.0,0.0,0.0,0.0,0.0,0.0,0.0,0.0,0.0,0.0,0.0,0.0,0.0,0.0,0.0,0.0,0.0,0.0,0.0,0.0,0.0,0.0,0.0,0.0,0.0,0.0,0.0,0.0,0.0,0.0,0.0,0.0,0.0,0.0,0.0,0.0,0.0,0.0,0.0,0.0,0.0,0.0,0.0,0.0,0.0,0.0,0.0,0.0,0.0,0.0,0.0,0.0,0.0,0.0,0.0,0.0,0.0,0.0,0.0,0.0,0.0,0.0,0.0,0.0,0.0,0.0,0.0,0.0,0.0,0.0,0.0,0.0,0.0,0.0,0.0,0.0,0.0,0.0,0.0,0.0,0.0,0.0,0.0,0.0,0.0,0.0,0.0,0.0,0.0,0.0,0.0,0.0,0.0,0.0,0.0,0.0,0.0,0.0,0.0,0.0,0.0,0.0,0.0,0.0,0.0,0.0,0.0,0.0,0.0,0.0,0.0,0.0,0.0,0.0,0.0,0.0,0.0,0.0,0.0,0.0,0.0,0.0,0.0,0.0,0.0,0.0,0.0,0.0,0.0,0.0,0.0,0.0,0.0,0.0,0.0,0.0,0.0,0.0,0.0,0.0,0.0,0.0,0.0,0.0,0.0,0.0,0.0,0.0,0.0,0.0,0.0,0.0,0.0,0.0,0.0,0.0,0.0,0.0,0.0,0.0,0.0,0.0,0.0,0.0,0.0,0.0,0.0,0.0,0.0,0.0,0.0,0.0,0.0,0.0,0.0,0.0,0.0,0.0,0.0,0.0,0.0,0.0,0.0,0.0,0.0,0.0,0.0,0.0,0.0,0.0,0.0,0.0,0.0,0.0,0.0,0.0,0.0,0.0,0.0,0.0,0.0,0.0,0.0,0.0,0.0,0.0,0.0,0.0,0.0,0.0,0.0,0.0,0.0,0.0,0.0,0.0,0.0,0.0,0.0,0.0,0.0,0.0,0.0,0.0,0.0,0.0,0.0,0.0,0.0,0.0,0.0,0.0,0.0,0.0,0.0,0.0,0.0,0.0,0.0,0.0,0.0,0.0,0.0,0.0,0.0,0.0,0.0,0.0,0.0,0.0,0.0,0.0,0.0,0.0,0.0,0.0,0.0,0.0,0.0,0.0,0.0,0.0,0.0,0.0,0.0,0.0,0.0,0.0,0.0,0.0,0.0,0.0,0.0,0.0,0.0,0.0,0.0,0.0,0.0,0.0,0.0,0.0,0.0,0.0,0.0,0.0,0.0,0.0,0.0,0.0,0.0,0.0,0.0,0.0,0.0,0.0,0.0,0.0,0.0,0.0,0.0,0.0,0.0,0.0,0.0,0.0,0.0,0.0,0.0,0.0,0.0,0.0,0.0,0.0,0.0,0.0,0.0,0.0,0.0,0.0,0.0,0.0,0.0,0.0,0.0,0.0,0.0,0.0,0.0,0.0,0.0,0.0,0.0,0.0,0.0,0.0,0.0,0.0,0.0,0.0,0.0,0.0,0.0,0.0,0.0,0.0,0.0,0.0,0.0,0.0,0.0,0.0,0.0,0.0,0.0,0.0,0.0,0.0,0.0,0.0,0.0,0.0,0.0,0.0,0.0,0.0,0.0,0.0,0.0,0.0,0.0,0.0,0.0,0.0,0.0,0.0,0.0,0.0,0.0,0.0,0.0,0.0,0.0,0.0,0.0,0.0,0.0,0.0,0.0,0.0,0.0,0.0,0.0,0.0,0.0,0.0,0.0,0.0,0.0,0.0,0.0,0.0,0.0,0.0,0.0,0.0,0.0,0.0,0.0,0.0,0.0,0.0,0.0,0.0,0.0,0.0,0.0,0.0,0.0,0.0,0.0,0.0,0.0,0.0,0.0,0.0,0.0,0.0,0.0,0.0,0.0,0.0,0.0,0.0,0.0,0.0,0.0,0.0,0.0,0.0,0.0,0.0,0.0,0.0,0.0,0.0,0.0,0.0,0.0,0.0,0.0,0.0,0.0,0.0,0.0,0.0,0.0,0.0,0.0,0.0,0.0,0.0,0.0,0.0,0.0,0.0,0.0,0.0,0.0,0.0,0.0,0.0,0.0,0.0,0.0,0.0,0.0,0.0,0.0,0.0,0.0,0.0,0.0,0.0,0.0,0.0,0.0,0.0,0.0,0.0,0.0,0.0,0.0,0.0,0.0,0.0,0.0,0.0,0.0,0.0,0.0,0.0,0.0,0.0,0.0,0.0,0.0,0.0,0.0,0.0,0.0,0.0,0.0,0.0,0.0,0.0,0.0,0.0,0.0,0.0,0.0,0.0,0.0,0.0,0.0,0.0,0.0,0.0,0.0,0.0,0.0,0.0,0.0,0.0,0.0,0.0,0.0,0.0,0.0,0.0,0.0,0.0,0.0,0.0,0.0,0.0,0.0,0.0,0.0,0.0,0.0,0.0,0.0,0.0,0.0,0.0,0.0,0.0,0.0,0.0,0.0,0.0,0.0,0.0,0.0,0.0,0.0,0.0,0.0,0.0,0.0,0.0,0.0,0.0,0.0,0.0,0.0,0.0,0.0,0.0,0.0,0.0,0.0,0.0,0.0,0.0,0.0,0.0,0.0,0.0,0.0,0.0,0.0,0.0,0.0,0.0,0.0,0.0,0.0,0.0,0.0,0.0,0.0,0.0,0.0,0.0,0.0,0.0,0.0,0.0,0.0,0.0,0.0,0.0,0.0,0.0,0.0,0.0,0.0,0.0,0.0,0.0,0.0,0.0,0.0,0.0,0.0,0.0,0.0,0.0,0.0,0.0,0.0,0.0,0.0,0.0,0.0,0.0,0.0,0.0,0.0,0.0,0.0,0.0,0.0,0.0,0.0,0.0,0.0,0.0,0.0,0.0,0.0,0.0,0.0,0.0,0.0,0.0,0.0,0.0,0.0,0.0,0.0,0.0,0.0,0.0,0.0,0.0,0.0,0.0,0.0,0.0,0.0,0.0,0.0,0.0,0.0,0.0,0.0,0.0,0.0,0.0,0.0,0.0,0.0,0.0,0.0,0.0,0.0,0.0,0.0,0.0,0.0,0.0,0.0,0.0,0.0,0.0,0.0,0.0,0.0,0.0,0.0,0.0,0.0,0.0,0.0,0.0,0.0,0.0,0.0,0.0,0.0,0.0,0.0,0.0,0.0,0.0,0.0,0.0,0.0,0.0,0.0,0.0,0.0,0.0,0.0,0.0,0.0,0.0,0.0,0.0,0.0,0.0,0.0,0.0,0.0,0.0,0.0,0.0,0.0,0.0,0.0,0.0,0.0,0.0,0.0,0.0,0.0,0.0,0.0,0.0,0.0,0.0,0.0,0.0,0.0,0.0,0.0,0.0,0.0,0.0,0.0,0.0,0.0,0.0,0.0,0.0,0.0,0.0,0.0,0.0,0.0,0.0,0.0,0.0,0.0,0.0,0.0,0.0,0.0,0.0,0.0,0.0,0.0,0.0,0.0,0.0,0.0,0.0,0.0,0.0,0.0]}]]]